[[{"header":{"parameterUnit":"m.s-1","parameterCategory":1,"la1":30.6,"la2":28.766,"lo1":-90.7593,"lo2":-88.6598,"dy":0.0162,"dx":0.0183,"nx":116,"ny":114,"refTime":"2024-03-28T12:00:00:Z","depth":0,"parameterNumber":2,"parameterNumberName":"U-component_of_WINDS"},"data":[0.0,0.0,0.0,0.0,0.0,0.0,0.0,0.0,0.0,0.0,0.0,0.0,0.0,0.0,0.0,0.0,0.0,0.0,0.0,0.0,0.0,0.0,0.0,0.0,0.0,0.0,0.0,0.0,0.0,0.0,0.0,0.0,0.0,0.0,0.0,0.0,0.0,0.0,0.0,0.0,0.0,0.0,0.0,0.0,0.0,0.0,0.0,0.0,0.0,0.0,0.0,0.0,0.0,0.0,0.0,0.0,0.0,0.0,0.0,0.0,0.0,0.0,0.0,0.0,0.0,0.0,0.0,0.0,0.0,0.0,0.0,0.0,0.0,0.0,0.0,0.0,0.0,0.0,0.0,0.0,0.0,0.0,0.0,0.0,0.0,0.0,0.0,0.0,0.0,0.0,0.0,0.0,0.0,0.0,0.0,0.0,0.0,0.0,0.0,0.0,0.0,0.0,0.0,0.0,0.0,0.0,0.0,0.0,0.0,0.0,0.0,0.0,0.0,0.0,0.0,0.0,0.0,0.0,0.0,0.0,0.0,0.0,0.0,0.0,0.0,0.0,0.0,0.0,0.0,0.0,0.0,0.0,0.0,0.0,0.0,0.0,0.0,0.0,0.0,0.0,0.0,0.0,0.0,0.0,0.0,0.0,0.0,0.0,0.0,0.0,0.0,0.0,0.0,0.0,0.0,0.0,0.0,0.0,0.0,0.0,0.0,0.0,0.0,0.0,0.0,0.0,0.0,0.0,0.0,0.0,0.0,0.0,0.0,0.0,0.0,0.0,0.0,0.0,0.0,0.0,0.0,0.0,0.0,0.0,0.0,0.0,0.0,0.0,0.0,0.0,0.0,0.0,0.0,0.0,0.0,0.0,0.0,0.0,0.0,0.0,0.0,0.0,0.0,0.0,0.0,0.0,0.0,0.0,0.0,0.0,0.0,0.0,0.0,0.0,0.0,0.0,0.0,0.0,0.0,0.0,0.0,0.0,0.0,0.0,0.0,0.0,0.0,0.0,0.0,0.0,0.0,0.0,0.0,0.0,0.0,0.0,0.0,0.0,0.0,0.0,0.0,0.0,0.0,0.0,0.0,0.0,0.0,0.0,0.0,0.0,0.0,0.0,0.0,0.0,0.0,0.0,0.0,0.0,0.0,0.0,0.0,0.0,0.0,0.0,0.0,0.0,0.0,0.0,0.0,0.0,0.0,0.0,0.0,0.0,0.0,0.0,0.0,0.0,0.0,0.0,0.0,0.0,0.0,0.0,0.0,0.0,0.0,0.0,0.0,0.0,0.0,0.0,0.0,0.0,0.0,0.0,0.0,0.0,0.0,0.0,0.0,0.0,0.0,0.0,0.0,0.0,0.0,0.0,0.0,0.0,0.0,0.0,0.0,0.0,0.0,0.0,0.0,0.0,0.0,0.0,0.0,0.0,0.0,0.0,0.0,0.0,0.0,0.0,0.0,0.0,0.0,0.0,0.0,0.0,0.0,0.0,0.0,0.0,0.0,0.0,0.0,0.0,0.0,0.0,0.0,0.0,0.0,0.0,0.0,0.0,0.0,0.0,0.0,0.0,0.0,0.0,0.0,0.0,0.0,0.0,0.0,0.0,0.0,0.0,0.0,0.0,0.0,0.0,0.0,0.0,0.0,0.0,0.0,0.0,0.0,0.0,0.0,0.0,0.0,0.0,0.0,0.0,0.0,0.0,0.0,0.0,0.0,0.0,0.0,0.0,0.0,0.0,0.0,0.0,0.0,0.0,0.0,0.0,0.0,0.0,0.0,0.0,0.0,0.0,0.0,0.0,0.0,0.0,0.0,0.0,0.0,0.0,0.0,0.0,0.0,0.0,0.0,0.0,0.0,0.0,0.0,0.0,0.0,0.0,0.0,0.0,0.0,0.0,0.0,0.0,0.0,0.0,0.0,0.0,0.0,0.0,0.0,0.0,0.0,0.0,0.0,0.0,0.0,0.0,0.0,0.0,0.0,0.0,0.0,0.0,0.0,0.0,0.0,0.0,0.0,0.0,0.0,0.0,0.0,0.0,0.0,0.0,0.0,0.0,0.0,0.0,0.0,0.0,0.0,0.0,0.0,0.0,0.0,0.0,0.0,0.0,0.0,0.0,0.0,0.0,0.0,0.0,0.0,0.0,0.0,0.0,0.0,0.0,0.0,0.0,0.0,0.0,0.0,0.0,0.0,0.0,0.0,0.0,0.0,0.0,0.0,0.0,0.0,0.0,0.0,0.0,0.0,0.0,0.0,0.0,0.0,0.0,0.0,0.0,0.0,0.0,0.0,0.0,0.0,0.0,0.0,0.0,0.0,0.0,0.0,0.0,0.0,0.0,0.0,0.0,0.0,0.0,0.0,0.0,0.0,0.0,0.0,0.0,0.0,0.0,0.0,0.0,0.0,0.0,0.0,0.0,0.0,0.0,0.0,0.0,0.0,0.0,0.0,0.0,0.0,0.0,0.0,0.0,0.0,0.0,0.0,0.0,0.0,0.0,0.0,0.0,0.0,0.0,0.0,0.0,0.0,0.0,0.0,0.0,0.0,0.0,0.0,0.0,0.0,0.0,0.0,0.0,0.0,0.0,0.0,0.0,0.0,0.0,0.0,0.0,0.0,0.0,0.0,0.0,0.0,0.0,0.0,0.0,0.0,0.0,0.0,0.0,0.0,0.0,0.0,0.0,0.0,0.0,0.0,0.0,0.0,0.0,0.0,0.0,0.0,0.0,0.0,0.0,0.0,0.0,0.0,0.0,0.0,0.0,0.0,0.0,0.0,0.0,0.0,0.0,0.0,0.0,0.0,0.0,0.0,0.0,0.0,0.0,0.0,0.0,0.0,0.0,0.0,0.0,0.0,0.0,0.0,0.0,0.0,0.0,0.0,0.0,0.0,0.0,0.0,0.0,0.0,0.0,0.0,0.0,0.0,0.0,0.0,0.0,0.0,0.0,0.0,0.0,0.0,0.0,0.0,0.0,0.0,0.0,0.0,0.0,0.0,0.0,0.0,0.0,0.0,0.0,0.0,0.0,0.0,0.0,0.0,0.0,0.0,0.0,0.0,0.0,0.0,0.0,0.0,0.0,0.0,0.0,0.0,0.0,0.0,0.0,0.0,0.0,0.0,0.0,0.0,0.0,0.0,0.0,0.0,0.0,0.0,0.0,0.0,0.0,0.0,0.0,0.0,0.0,0.0,0.0,0.0,0.0,0.0,0.0,0.0,0.0,0.0,0.0,0.0,0.0,0.0,0.0,0.0,0.0,0.0,0.0,0.0,0.0,0.0,0.0,0.0,0.0,0.0,0.0,0.0,0.0,0.0,0.0,0.0,0.0,0.0,0.0,0.0,0.0,0.0,0.0,0.0,0.0,0.0,0.0,0.0,0.0,0.0,0.0,0.0,0.0,0.0,0.0,0.0,0.0,0.0,0.0,0.0,0.0,0.0,0.0,0.0,0.0,0.0,0.0,0.0,0.0,0.0,0.0,0.0,0.0,0.0,0.0,0.0,0.0,0.0,0.0,0.0,0.0,0.0,0.0,0.0,0.0,0.0,0.0,0.0,0.0,0.0,0.0,0.0,0.0,0.0,0.0,0.0,0.0,0.0,0.0,0.0,0.0,0.0,0.0,0.0,0.0,0.0,0.0,0.0,0.0,0.0,0.0,0.0,0.0,0.0,0.0,0.0,0.0,0.0,0.0,0.0,0.0,0.0,0.0,0.0,0.0,0.0,0.0,0.0,0.0,0.0,0.0,0.0,0.0,0.0,0.0,0.0,0.0,0.0,0.0,0.0,0.0,0.0,0.0,0.0,0.0,0.0,0.0,0.0,0.0,0.0,0.0,0.0,0.0,0.0,0.0,0.0,0.0,0.0,0.0,0.0,0.0,0.0,0.0,0.0,0.0,0.0,0.0,0.0,0.0,0.0,0.0,0.0,0.0,0.0,0.0,0.0,0.0,0.0,0.0,0.0,0.0,0.0,0.0,0.0,0.0,0.0,0.0,0.0,0.0,0.0,0.0,0.0,0.0,0.0,0.0,0.0,0.0,0.0,0.0,0.0,0.0,0.0,0.0,0.0,0.0,0.0,0.0,0.0,0.0,0.0,0.0,0.0,0.0,0.0,0.0,0.0,0.0,0.0,0.0,0.0,0.0,0.0,0.0,0.0,0.0,0.0,0.0,0.0,0.0,0.0,0.0,0.0,0.0,0.0,0.0,0.0,0.0,0.0,0.0,0.0,0.0,0.0,0.0,0.0,0.0,0.0,0.0,0.0,0.0,0.0,0.0,0.0,0.0,0.0,0.0,0.0,0.0,0.0,0.0,0.0,0.0,0.0,0.0,0.0,0.0,0.0,0.0,0.0,0.0,0.0,0.0,0.0,0.0,0.0,0.0,0.0,0.0,0.0,0.0,0.0,0.0,0.0,0.0,0.0,0.0,0.0,0.0,0.0,0.0,0.0,0.0,0.0,0.0,0.0,0.0,0.0,0.0,0.0,0.0,0.0,0.0,0.0,0.0,0.0,0.0,0.0,0.0,0.0,0.0,0.0,0.0,0.0,0.0,0.0,0.0,0.0,0.0,0.0,0.0,0.0,0.0,0.0,0.0,0.0,0.0,0.0,0.0,0.0,0.0,0.0,0.0,0.0,0.0,0.0,0.0,0.0,0.0,0.0,0.0,0.0,0.0,0.0,0.0,0.0,0.0,0.0,0.0,0.0,0.0,0.0,0.0,0.0,0.0,0.0,0.0,0.0,0.0,0.0,0.0,0.0,0.0,0.0,0.0,0.0,0.0,0.0,0.0,0.0,0.0,0.0,0.0,0.0,0.0,0.0,0.0,0.0,0.0,0.0,0.0,0.0,0.0,0.0,0.0,0.0,0.0,0.0,0.0,0.0,0.0,0.0,0.0,0.0,0.0,0.0,0.0,0.0,0.0,0.0,0.0,0.0,0.0,0.0,0.0,0.0,0.0,0.0,0.0,0.0,0.0,0.0,0.0,0.0,0.0,0.0,0.0,0.0,0.0,0.0,0.0,0.0,0.0,0.0,0.0,0.0,0.0,0.0,0.0,0.0,0.0,0.0,0.0,0.0,0.0,0.0,0.0,0.0,0.0,0.0,0.0,0.0,0.0,0.0,0.0,0.0,0.0,0.0,0.0,0.0,0.0,0.0,0.0,0.0,0.0,0.0,0.0,0.0,0.0,0.0,0.0,0.0,0.0,0.0,0.0,0.0,0.0,0.0,0.0,0.0,0.0,0.0,0.0,0.0,0.0,0.0,0.0,0.0,0.0,0.0,0.0,0.0,0.0,0.0,0.0,0.0,0.0,0.0,0.0,0.0,0.0,0.0,0.0,0.0,0.0,0.0,0.0,0.0,0.0,0.0,0.0,0.0,0.0,0.0,0.0,0.0,0.0,0.0,0.0,0.0,0.0,0.0,0.0,0.0,0.0,0.0,0.0,0.0,0.0,0.0,0.0,0.0,0.0,0.0,0.0,0.0,0.0,0.0,0.0,0.0,0.0,0.0,0.0,0.0,0.0,0.0,0.0,0.0,0.0,0.0,0.0,0.0,0.0,0.0,0.0,0.0,0.0,0.0,0.0,0.0,0.0,0.0,0.0,0.0,0.0,0.0,0.0,0.0,0.0,0.0,0.0,0.0,0.0,0.0,0.0,0.0,0.0,0.0,0.0,0.0,0.0,0.0,0.0,0.0,0.0,0.0,0.0,0.0,0.0,0.0,0.0,0.0,0.0,0.0,0.0,0.0,0.0,0.0,0.0,0.0,0.0,0.0,0.0,0.0,0.0,0.0,0.0,0.0,0.0,0.0,0.0,0.0,0.0,0.0,0.0,0.0,0.0,0.0,0.0,0.0,0.0,0.0,0.0,0.0,0.0,0.0,0.0,0.0,0.0,0.0,0.0,0.0,0.0,0.0,0.0,0.0,0.0,0.0,0.0,0.0,0.0,0.0,0.0,0.0,0.0,0.0,0.0,0.0,0.0,0.0,0.0,0.0,0.0,0.0,0.0,0.0,0.0,0.0,0.0,0.0,0.0,0.0,0.0,0.0,0.0,0.0,0.0,0.0,0.0,0.0,0.0,0.0,0.0,0.0,0.0,0.0,0.0,4.3724,0.0,0.0,0.0,0.0,0.0,0.0,0.0,0.0,0.0,0.0,0.0,0.0,0.0,0.0,0.0,0.0,0.0,0.0,0.0,0.0,0.0,0.0,0.0,0.0,5.6761,5.6761,5.6761,5.6761,5.6954,5.7115,0.0,0.0,0.0,0.0,0.0,5.8211,5.8701,5.9004,5.9004,5.9274,5.9452,5.9684,5.8939,5.8227,5.7579,0.0,0.0,0.0,0.0,0.0,0.0,0.0,0.0,0.0,0.0,0.0,0.0,0.0,0.0,0.0,0.0,0.0,0.0,0.0,0.0,0.0,0.0,0.0,0.0,0.0,0.0,0.0,0.0,0.0,0.0,0.0,0.0,0.0,0.0,0.0,0.0,0.0,0.0,0.0,0.0,0.0,0.0,0.0,0.0,0.0,0.0,0.0,0.0,0.0,0.0,0.0,0.0,0.0,0.0,0.0,0.0,0.0,0.0,0.0,0.0,0.0,0.0,0.0,0.0,0.0,0.0,0.0,0.0,0.0,0.0,0.0,4.3762,0.0,0.0,0.0,0.0,0.0,0.0,0.0,0.0,0.0,0.0,0.0,0.0,0.0,0.0,0.0,0.0,0.0,0.0,0.0,0.0,0.0,5.6761,5.6761,5.6761,5.6761,5.6761,5.6761,5.6761,5.6761,5.6761,0.0,0.0,0.0,5.8119,5.8119,5.8701,5.9004,5.9004,5.9094,5.9363,5.9716,5.9716,5.9069,5.7935,5.7935,0.0,0.0,0.0,0.0,0.0,0.0,0.0,0.0,0.0,0.0,0.0,0.0,0.0,0.0,0.0,0.0,0.0,0.0,0.0,0.0,0.0,0.0,0.0,0.0,0.0,0.0,0.0,0.0,0.0,0.0,0.0,0.0,0.0,0.0,0.0,0.0,0.0,0.0,0.0,0.0,0.0,0.0,0.0,0.0,0.0,0.0,0.0,0.0,0.0,0.0,0.0,0.0,0.0,0.0,0.0,0.0,0.0,0.0,0.0,0.0,0.0,0.0,0.0,0.0,4.6439,4.6848,4.6848,4.6319,4.5347,4.4252,4.3018,4.1603,0.0,0.0,0.0,0.0,0.0,0.0,0.0,0.0,0.0,0.0,0.0,0.0,0.0,0.0,0.0,0.0,0.0,0.0,0.0,0.0,5.6761,5.6761,5.6761,5.6761,5.6761,5.6761,5.6761,5.6761,5.6761,5.6858,5.6858,5.7306,5.759,5.759,5.8518,5.9004,5.9004,5.9452,5.9628,5.9716,5.9716,5.9619,5.9425,5.9425,5.9425,5.9425,0.0,0.0,0.0,0.0,0.0,0.0,0.0,0.0,0.0,0.0,0.0,0.0,0.0,0.0,0.0,0.0,0.0,0.0,0.0,0.0,0.0,0.0,0.0,0.0,0.0,0.0,0.0,0.0,0.0,0.0,0.0,0.0,0.0,0.0,0.0,0.0,0.0,0.0,0.0,0.0,0.0,4.8326,4.8326,0.0,0.0,0.0,0.0,0.0,0.0,0.0,0.0,0.0,0.0,0.0,0.0,0.0,0.0,4.5934,4.6391,4.6607,4.6607,4.7064,4.7329,4.7401,4.7401,4.6839,4.576,4.4375,0.0,4.2279,4.0796,0.0,0.0,0.0,0.0,0.0,0.0,0.0,0.0,0.0,0.0,0.0,0.0,0.0,0.0,0.0,0.0,0.0,0.0,0.0,0.0,0.0,5.6761,5.6761,5.6761,5.6761,5.6761,5.6761,5.6761,5.6954,5.7211,5.7653,5.784,5.784,5.861,5.9004,5.9004,5.9452,5.9716,5.9716,5.9716,5.9716,5.9716,5.9716,5.9716,5.9716,5.9716,0.0,0.0,0.0,0.0,0.0,0.0,0.0,0.0,0.0,0.0,0.0,0.0,0.0,0.0,0.0,0.0,0.0,0.0,0.0,0.0,0.0,0.0,0.0,0.0,0.0,0.0,0.0,0.0,0.0,0.0,0.0,0.0,0.0,0.0,0.0,0.0,0.0,0.0,0.0,4.9448,4.901,4.8655,4.816,4.7493,0.0,0.0,0.0,0.0,0.0,0.0,0.0,0.0,0.0,4.6343,4.6367,4.6511,4.68,4.704,4.7305,4.7593,4.7834,4.8098,4.8387,4.7525,4.6358,4.4998,4.3285,4.1585,4.0398,3.983,3.9682,3.9554,0.0,0.0,0.0,0.0,0.0,3.8557,0.0,0.0,0.0,0.0,0.0,0.0,0.0,0.0,0.0,0.0,0.0,0.0,5.6761,5.6761,5.6761,5.6761,5.6761,5.6761,5.6761,5.6761,5.6954,5.7306,5.7746,5.8119,5.8211,5.8882,5.9184,5.9184,5.954,5.9716,5.9716,5.9716,5.9716,5.9716,5.9716,5.9716,5.9716,5.9716,5.9716,5.9716,0.0,0.0,0.0,0.0,0.0,0.0,0.0,0.0,0.0,0.0,0.0,0.0,0.0,0.0,0.0,0.0,0.0,0.0,0.0,0.0,0.0,0.0,0.0,0.0,0.0,0.0,0.0,0.0,0.0,0.0,0.0,0.0,0.0,0.0,0.0,0.0,0.0,4.9213,4.8743,4.8043,4.6914,4.633,0.0,0.0,0.0,0.0,0.0,0.0,4.6102,4.6126,4.6439,4.7088,4.7112,4.7377,4.7906,4.7762,4.7906,4.8291,4.8147,4.8291,4.854,4.6935,4.5445,4.3868,4.1979,4.0306,3.8633,3.8671,3.8784,3.8765,3.8236,3.8198,3.8368,3.8443,3.8519,3.8385,0.0,0.0,0.0,0.0,0.0,0.0,0.0,0.0,0.0,0.0,0.0,5.6761,5.6761,5.6761,5.6761,5.6761,5.6761,5.6761,5.6761,5.6761,5.6858,5.6858,5.7306,5.7746,5.8211,5.9152,5.9628,5.9628,5.9716,5.9716,5.9716,5.9716,5.9716,5.9716,5.9716,5.9716,5.9716,5.9716,5.9716,5.9716,5.9716,0.0,0.0,0.0,0.0,0.0,0.0,0.0,0.0,0.0,0.0,0.0,0.0,0.0,0.0,0.0,0.0,0.0,0.0,0.0,0.0,0.0,0.0,0.0,0.0,0.0,0.0,0.0,0.0,0.0,0.0,0.0,0.0,0.0,0.0,0.0,0.0,0.0,0.0,4.5421,4.5846,0.0,0.0,0.0,0.0,4.5966,4.5886,4.6102,4.6631,4.668,4.7136,4.8171,4.8219,4.8459,4.8988,4.8507,4.8267,4.8291,4.7786,4.7412,4.7036,4.546,4.4036,4.2677,4.1068,3.9731,3.8614,3.7746,3.7446,3.7408,3.7017,3.7164,3.7573,3.7914,3.8042,3.8001,0.0,0.0,0.0,0.0,0.0,5.6761,5.6761,5.6761,5.6761,5.6761,5.6761,5.6761,5.6761,5.6761,5.6761,5.6761,5.6761,5.6761,5.6761,5.6761,5.6761,5.6761,5.7211,5.7871,5.8701,5.9813,6.0397,6.0397,6.085,6.1044,6.1044,6.1044,6.1044,6.1044,6.1044,6.1044,6.1012,6.0105,5.9716,5.9716,5.9716,5.9716,0.0,0.0,0.0,0.0,0.0,0.0,0.0,0.0,0.0,0.0,0.0,0.0,0.0,0.0,0.0,0.0,0.0,0.0,0.0,0.0,0.0,0.0,0.0,0.0,0.0,0.0,0.0,0.0,0.0,0.0,0.0,0.0,0.0,0.0,0.0,0.0,0.0,4.6785,4.6312,0.0,4.6102,4.6197,4.6348,4.6391,4.6439,4.68,4.769,4.7738,4.7906,4.8267,4.8291,4.8219,4.805,4.7882,4.7954,4.8291,4.8098,4.806,4.7987,4.5698,4.4207,4.3403,4.0729,3.9451,3.8943,3.8223,3.7902,3.8229,3.8032,3.8087,3.8124,3.8264,3.8375,3.8411,0.0,0.0,0.0,0.0,5.6761,5.6761,5.6761,5.6761,5.6761,5.6761,5.6761,5.6761,5.6761,5.6761,5.6761,5.6761,5.6761,5.6761,5.6761,5.6761,5.6854,5.71,5.7961,5.8718,5.9324,6.0483,6.1141,6.1141,6.1595,6.1821,6.1821,6.1821,6.1821,6.1821,6.1821,6.1821,6.1757,6.0818,6.0299,6.0073,6.0073,5.9943,5.9716,0.0,0.0,0.0,0.0,0.0,0.0,0.0,0.0,0.0,0.0,0.0,0.0,0.0,0.0,0.0,0.0,0.0,0.0,0.0,0.0,0.0,0.0,0.0,0.0,0.0,0.0,0.0,0.0,0.0,0.0,0.0,0.0,0.0,0.0,0.0,4.7283,4.748,4.6518,4.6126,4.6655,4.6559,4.668,4.7209,4.7233,4.7545,4.8243,4.8122,4.8098,4.8291,4.8291,4.8219,4.8026,4.7858,4.8026,4.8555,4.8252,4.7875,4.7516,4.5068,4.3468,4.2472,3.9778,3.878,3.8892,3.843,3.8467,3.8753,3.8448,3.8236,3.8255,3.8383,3.8438,3.8475,0.0,0.0,0.0,5.6761,5.6761,5.6761,5.6761,5.6761,5.6761,5.6761,5.6761,5.6761,5.6761,5.6761,5.6761,5.6761,5.6761,5.6761,5.6761,5.6792,5.71,5.7875,5.9439,6.0233,6.006,6.1193,6.1821,6.1821,6.1854,6.1886,6.1886,6.1886,6.1886,6.1886,6.1886,6.1886,6.1886,6.1886,6.1465,6.085,6.085,6.0397,5.9781,0.0,0.0,0.0,0.0,0.0,0.0,0.0,0.0,0.0,0.0,0.0,0.0,0.0,0.0,0.0,0.0,0.0,0.0,0.0,0.0,0.0,0.0,0.0,0.0,0.0,0.0,0.0,0.0,0.0,0.0,0.0,0.0,0.0,4.7758,4.7758,4.748,4.6762,4.6295,4.6199,4.668,4.7209,4.7738,4.8219,4.8267,4.8267,4.8291,4.781,4.7762,4.8267,4.8291,4.8531,4.9036,4.8555,4.8555,4.9084,4.8171,4.6912,4.5475,4.3649,4.1616,3.9712,3.8079,3.7723,3.8108,3.8511,3.8915,3.9135,3.7961,3.7503,3.7558,3.7924,3.8071,3.8181,0.0,0.0,5.6761,5.6761,5.6761,5.6761,5.6761,5.6761,5.6761,5.6761,5.6761,5.6761,5.6761,5.6761,5.6761,5.6761,5.6761,5.6761,5.6761,5.7223,5.7973,5.9047,5.9696,6.0352,6.0764,6.1934,6.2599,6.2599,6.3149,6.3408,6.3408,6.3408,6.3408,6.3408,6.3408,6.3408,6.3408,6.3408,6.2987,6.2275,6.1724,6.14,6.1239,0.0,0.0,0.0,0.0,0.0,0.0,0.0,0.0,0.0,0.0,0.0,0.0,0.0,0.0,0.0,0.0,0.0,0.0,0.0,0.0,0.0,0.0,0.0,0.0,0.0,0.0,0.0,0.0,0.0,0.0,0.0,4.9179,4.8334,4.846,4.7597,4.6924,4.668,4.7257,4.7545,4.7305,4.7762,4.7978,4.7738,4.7714,4.7882,4.8267,4.8147,4.8147,4.8291,4.8291,4.8363,4.8507,4.8363,4.8555,4.9084,4.8911,4.7772,4.5867,4.4657,4.3024,4.0899,3.9664,3.9245,3.9355,3.9465,3.9575,3.9648,3.93,3.9171,3.919,3.93,3.9336,3.9373,0.0,5.6761,5.6761,5.6761,5.6761,5.6761,5.6761,5.6761,5.6761,5.6761,5.6761,5.6761,5.6761,5.6761,5.6761,5.6761,5.6761,5.6761,5.6761,5.7948,5.8896,5.9759,6.0803,6.1466,6.1874,6.2894,6.3376,6.3376,6.3797,6.4024,6.4024,6.4024,6.4024,6.4024,6.4024,6.4024,6.4024,6.4024,6.3764,6.3311,6.289,6.2372,6.1821,6.1821,6.1423,6.102,6.1607,6.102,6.0011,6.0234,0.0,0.0,0.0,0.0,0.0,0.0,0.0,0.0,0.0,0.0,0.0,0.0,0.0,0.0,0.0,0.0,0.0,0.0,0.0,0.0,0.0,0.0,0.0,0.0,4.8661,4.8164,4.8164,4.7734,4.7281,4.7064,4.7786,4.8074,4.7545,4.7978,4.8171,4.7858,4.7834,4.7954,4.8267,4.8074,4.805,4.8291,4.8291,4.8507,4.894,4.894,4.9325,4.979,4.9084,4.7681,4.5769,4.4369,4.2605,0.0,4.021,3.9942,4.0107,4.0107,4.0198,0.0,0.0,0.0,0.0,0.0,3.985,3.9868,0.0,5.6761,5.6761,5.6761,5.6761,5.6761,5.6761,5.6761,5.6761,5.6761,5.6761,5.6761,5.6761,5.6761,5.6761,5.6761,5.6761,5.6823,5.6977,5.8709,5.9822,6.0256,6.2076,6.3099,6.302,6.3667,6.4024,6.4024,6.4024,6.4024,6.4024,6.4024,6.4024,6.4024,6.4024,6.4024,6.4024,6.4024,6.4024,6.4024,6.4024,6.3246,6.2048,6.2048,6.2048,6.2048,6.2048,6.2048,6.1957,6.0994,0.0,0.0,0.0,0.0,0.0,0.0,0.0,0.0,0.0,0.0,0.0,0.0,0.0,0.0,0.0,0.0,0.0,0.0,0.0,0.0,0.0,0.0,0.0,0.0,4.8077,4.7497,4.7497,4.7954,4.8098,4.7569,4.7954,4.8074,4.7545,4.7978,4.8267,4.8195,4.8195,4.8219,4.8291,0.0,0.0,0.0,0.0,4.9036,5.0046,5.0046,5.0269,5.096,4.8885,4.6985,4.5388,4.342,4.1552,3.9978,3.9978,4.0198,4.0529,4.0529,4.0749,4.0987,4.0253,3.9978,3.9978,3.9978,3.9978,0.0,0.0,5.6761,5.6761,5.6761,5.6761,5.6761,5.6761,5.6761,5.6761,5.6761,5.6761,5.6761,5.6761,5.6761,5.6761,5.6761,5.6761,5.7223,5.83,5.9348,6.0518,6.1914,6.2586,6.3218,6.3797,6.3959,6.4024,6.4024,6.4024,6.4024,6.4024,6.4024,6.4024,6.4024,6.4024,6.4024,6.4024,6.4024,6.4024,6.4024,6.4024,6.3829,6.357,6.357,6.357,6.357,6.357,6.357,6.357,6.3382,6.2652,6.1909,6.1712,6.0648,0.0,0.0,0.0,0.0,0.0,0.0,0.0,0.0,0.0,0.0,0.0,0.0,0.0,0.0,0.0,0.0,0.0,0.0,0.0,4.9595,4.8322,4.7497,4.7497,4.7954,4.8098,4.7569,4.7954,4.8074,4.7545,4.7978,4.8122,4.769,4.7642,4.7834,4.8267,4.8603,0.0,4.9541,4.9998,5.0527,5.1177,5.0867,5.1033,5.1483,0.0,0.0,4.5849,4.4179,4.243,4.0822,4.0822,4.0877,4.095,4.095,4.0987,4.1042,4.0877,4.0822,4.0822,4.0822,4.0822,4.084,0.0,5.6761,5.6761,5.6761,5.6761,5.6761,5.6761,5.6761,5.6761,5.6761,5.6761,5.6761,5.6761,5.6761,5.6761,5.6761,5.6761,5.729,5.8572,5.9601,6.0772,6.2172,6.3033,6.3635,6.3991,6.4024,6.4024,6.4024,6.4024,6.4024,6.4024,6.4024,6.4024,6.4024,6.4024,6.4024,6.4024,6.4024,6.4024,6.4024,6.4024,6.4024,6.4024,6.4024,6.4024,6.4024,6.4024,6.4024,6.4024,6.4024,6.358,6.3164,6.3164,6.2022,6.0432,0.0,0.0,0.0,0.0,0.0,0.0,0.0,0.0,0.0,0.0,0.0,0.0,0.0,0.0,5.488,5.2876,0.0,5.0865,4.8893,4.787,4.7497,4.7497,4.7738,4.781,4.7521,4.7954,4.8074,4.7545,4.7738,4.7906,4.7906,4.8147,4.8507,4.906,4.9589,5.0143,5.0672,5.0794,5.1177,5.1967,5.1526,5.1467,5.1836,4.9074,4.7124,4.6031,4.3535,4.1863,4.106,4.106,4.106,4.106,4.106,4.106,4.106,4.106,4.106,4.106,4.106,4.106,4.106,0.0,5.6761,5.6761,5.6761,5.6761,5.6761,5.6761,5.6761,5.6761,5.6761,5.6761,5.6761,5.6761,5.6761,5.6761,5.6761,5.6858,5.7391,5.8456,5.9822,6.0963,6.1982,6.329,6.3929,6.3802,6.3929,6.4024,6.4024,6.4024,6.4024,6.4024,6.4024,6.4024,6.4024,6.4024,6.4024,6.4024,6.4024,6.4024,6.4024,6.4024,6.4024,6.4024,6.4024,6.4024,6.4024,6.4024,6.4024,6.4024,6.4024,6.4024,6.4024,6.4024,6.2873,6.1286,6.0058,5.8486,0.0,0.0,0.0,0.0,0.0,0.0,0.0,0.0,5.5496,5.5496,5.5496,5.5496,5.4762,5.2385,5.1616,5.0764,4.8264,4.763,4.7497,4.7497,4.7497,4.7497,4.7497,4.7882,4.7954,4.7545,4.769,4.7978,4.8411,4.9036,4.9614,5.0143,5.0696,5.1106,5.1633,5.1438,5.1597,5.2451,5.1977,5.1734,5.1516,4.828,4.6363,4.5576,4.2512,4.106,4.106,4.106,4.106,4.106,4.106,4.106,4.106,4.106,4.106,4.106,4.106,4.106,4.106,0.0,5.6761,5.6761,5.6761,5.6761,5.6761,5.6761,5.6761,5.6761,5.6761,5.6761,5.6761,5.6761,5.6761,5.6761,5.6761,5.7211,5.7769,5.8677,6.017,6.1186,6.1628,6.3164,6.3802,6.3293,6.3802,6.4024,6.4024,6.4024,6.4024,6.4024,6.4024,6.4024,6.4024,6.4024,6.4024,6.4024,6.4024,6.4024,6.4024,6.4024,6.4024,6.4024,6.4024,6.4024,6.4024,6.4024,6.4024,6.4024,6.4024,6.4024,6.4024,6.4024,6.3484,6.2548,6.0371,5.9212,5.8187,5.6049,5.5496,5.5496,5.5496,5.5496,5.5496,0.0,5.5496,5.5496,5.5496,5.5496,5.4998,5.351,5.2262,5.0991,4.9515,4.8264,4.7497,4.7497,4.7497,4.7497,4.7497,4.7545,4.7569,4.7521,4.8363,4.894,4.8988,4.995,5.0744,5.1273,5.1512,5.1745,5.2268,5.2419,5.24,5.2518,5.2213,5.1139,4.9741,4.7347,4.5413,4.3797,4.203,4.106,4.106,4.106,4.106,4.106,4.106,4.106,4.106,4.106,4.106,4.106,4.106,4.106,4.106,0.0,0.0,5.6761,5.6761,5.6761,5.6761,5.6761,5.6761,5.6761,5.6761,5.6761,5.6761,5.6761,5.6761,5.6761,5.6761,5.6954,5.7704,5.9166,5.9815,6.0929,6.2418,6.2905,6.3293,6.3707,6.358,6.3707,6.4024,6.4024,6.4024,6.4024,6.4024,6.4024,6.4024,6.4024,6.4024,6.4024,6.4024,6.4024,6.4024,6.4024,6.4024,6.4024,6.4024,6.4024,6.4024,6.4024,6.3802,0.0,6.3897,6.3802,6.358,6.3897,6.3068,6.1721,6.0163,5.8703,5.7358,5.5933,5.5777,5.5945,5.558,5.5496,5.5496,5.5496,5.5496,5.5496,5.5496,5.5496,5.488,5.2754,5.1865,5.0764,0.0,4.787,4.7497,4.7497,4.7762,4.8074,4.8387,4.87,4.8748,4.8459,4.9397,5.0143,5.0455,5.1177,5.1705,5.2086,5.2292,5.2522,5.2585,5.2342,5.2307,5.2307,5.0898,4.9763,4.8956,4.6061,4.4291,4.3468,4.1863,4.106,4.106,4.106,4.106,4.106,4.106,4.106,4.106,4.106,4.106,4.106,4.106,4.106,4.106,0.0,0.0,0.0,5.6761,5.6761,5.6761,5.6761,5.6761,5.6761,5.6761,5.6761,5.6761,5.6761,5.6761,5.6761,5.6761,5.6761,5.751,5.9265,5.9652,6.0638,6.2418,6.2678,6.3099,6.3517,6.3484,6.3612,6.4024,6.4024,6.4024,6.4024,6.4024,6.4024,6.4024,6.4024,6.4024,6.4024,6.4024,6.4024,6.4024,6.4024,6.4024,6.4024,6.4024,6.3897,6.3802,6.3802,6.3389,6.2873,6.3068,6.2744,6.2351,6.2868,6.2003,6.0665,5.9831,5.8385,5.6764,5.5922,5.6086,5.6283,5.5664,5.5496,5.5496,5.5496,5.5496,5.5496,5.5496,5.5496,5.4762,5.2508,5.1741,5.0739,4.8371,4.7762,4.7593,4.7906,4.8267,4.8748,4.9445,5.0119,5.0383,4.9998,5.0672,5.1297,5.1682,5.2331,5.2712,5.2648,5.2878,5.2916,5.2459,5.2,5.187,5.187,4.9786,4.8504,4.8006,4.5088,4.3303,4.2825,4.1714,4.106,4.106,4.106,4.106,4.106,4.106,4.106,4.106,4.106,4.106,4.106,4.106,4.106,4.106,0.0,0.0,0.0,0.0,5.6761,5.6761,5.6761,5.6761,5.6761,5.6761,5.6761,5.6761,5.6761,5.6761,5.6761,5.6761,5.6761,5.7346,5.8701,5.9847,6.054,6.0835,6.2808,6.3517,6.2481,6.3389,6.4024,6.4024,6.4024,6.4024,6.4024,6.4024,6.4024,6.4024,6.4024,6.4024,6.4024,6.4024,6.4024,6.4024,6.4024,6.4024,6.4024,6.4024,6.3707,6.3164,6.3164,6.2646,6.1891,6.1418,6.0536,5.994,6.0639,6.0452,5.9836,5.956,5.8548,5.7182,5.6564,5.6395,5.6283,5.5664,5.5496,5.5496,5.5496,5.5496,5.5496,5.5496,5.5496,5.5116,5.3752,5.2385,5.1016,4.9618,4.8371,4.7858,4.8892,4.9036,4.9445,5.0527,5.1562,5.2211,0.0,5.2211,5.2235,5.2259,5.3197,5.3624,5.3219,5.2764,5.2459,5.2,5.1562,5.1431,5.1431,4.9629,4.8006,4.6223,4.4454,4.2825,4.1229,4.106,4.106,4.106,4.106,4.106,4.106,4.106,4.106,4.106,4.106,4.106,4.106,4.106,4.106,4.106,0.0,0.0,0.0,0.0,0.0,0.0,5.6761,5.6761,5.6761,5.6761,5.6761,0.0,0.0,0.0,0.0,0.0,5.6761,5.7541,5.9265,5.9358,6.0246,6.2319,6.2383,6.271,6.3421,6.3484,6.3612,6.4024,6.4024,6.4024,6.4024,6.4024,6.4024,6.4024,6.4024,6.4024,6.4024,6.4024,6.4024,6.4024,6.4024,6.4024,6.3962,6.4127,6.3966,6.3834,0.0,6.23,6.0835,6.0849,6.0365,6.0024,6.1014,6.0565,5.9416,5.843,5.7831,5.7238,5.6592,5.6423,5.6283,5.5664,5.5496,5.5496,5.5496,5.5496,5.5496,5.5496,5.5496,5.5116,5.3752,5.2385,5.1249,5.06,4.945,4.8916,4.9998,5.0455,5.0936,5.1658,5.2379,0.0,0.0,0.0,0.0,5.3293,5.333,5.3219,5.2764,5.2459,5.2024,5.1562,5.1431,5.0766,4.9629,4.8006,4.6223,4.4435,4.2678,4.1714,4.106,4.106,4.106,4.106,4.106,4.106,4.106,4.106,4.106,4.106,4.106,4.106,4.0892,3.9671,3.9155,3.8979,0.0,0.0,0.0,0.0,0.0,0.0,0.0,0.0,0.0,0.0,0.0,0.0,0.0,0.0,0.0,0.0,0.0,5.7418,5.8825,5.9037,5.9955,6.1873,6.1959,6.2284,6.3099,6.3002,6.3068,6.3421,6.3612,6.3707,6.3707,6.3897,6.4024,6.4024,6.4024,6.4024,6.4024,6.4024,6.4059,6.4062,6.3804,6.3902,6.4191,6.3959,6.3753,0.0,6.2898,6.1399,5.9867,6.0366,5.9852,5.9211,6.017,5.9976,5.9209,5.7987,5.7716,5.7519,5.6648,5.6423,5.6283,5.5664,5.5496,5.5496,5.5496,5.5496,5.5496,5.5496,5.5861,5.5786,5.4406,5.3342,5.2698,5.2532,5.0962,5.0162,5.1766,5.1968,5.2043,5.274,5.3125,5.3461,0.0,0.0,0.0,5.3822,5.337,5.3068,5.2612,5.2154,5.187,5.1431,5.1431,5.0611,4.882,4.7048,4.5088,4.2678,4.1546,4.106,4.106,4.106,4.106,4.106,4.106,4.106,4.106,4.106,4.106,4.1042,4.0895,4.0859,4.0654,3.8624,3.7724,3.757,0.0,0.0,0.0,0.0,0.0,0.0,0.0,0.0,0.0,0.0,0.0,0.0,0.0,0.0,0.0,0.0,0.0,0.0,5.7715,5.8887,5.9669,5.9849,6.144,6.2085,6.1683,6.2184,6.2383,6.2383,6.2873,6.3164,6.3164,6.3707,6.3929,6.3929,6.3929,6.3929,6.3929,6.3929,6.3998,6.3994,6.3452,6.3603,6.4208,6.3609,6.2809,6.2086,6.1267,6.0056,5.8956,5.9682,5.8927,5.7575,5.8165,5.8727,5.9064,5.8474,5.825,5.794,5.6732,5.6395,5.6226,5.5636,5.5496,5.5496,5.5496,5.5524,5.5552,5.558,5.6564,5.7042,5.5784,5.5252,5.4942,5.5286,5.2767,5.1673,5.4077,5.3299,5.2716,0.0,0.0,5.3822,5.3822,0.0,0.0,5.3672,0.0,5.2916,5.2588,5.2154,5.187,5.1431,5.1254,5.0455,4.8662,4.6888,4.4291,4.106,4.106,4.106,4.106,4.106,4.106,4.106,4.106,4.106,4.106,4.106,4.106,4.1024,4.0639,4.0492,4.0086,3.7979,3.6975,3.6642,0.0,0.0,0.0,0.0,0.0,0.0,0.0,0.0,0.0,0.0,0.0,0.0,0.0,0.0,0.0,0.0,0.0,0.0,5.7715,5.8591,5.9371,6.0353,6.1308,6.1885,6.2184,6.2284,6.2383,6.2383,6.258,6.258,6.258,6.2776,6.2776,6.2776,6.2776,6.2776,6.2776,6.2776,6.2805,6.2833,6.2643,6.2657,6.2592,6.2514,6.2286,6.1928,6.1783,6.1526,6.0881,5.9257,5.8701,5.8783,5.8924,5.8783,5.8502,5.8362,5.7631,5.6816,5.6507,5.6086,5.5693,5.5552,5.5496,5.5496,5.5496,5.5861,5.6311,5.6816,5.7519,5.8071,5.8271,5.6461,5.5203,5.6066,5.3778,5.2381,5.3838,5.3711,5.3534,5.3798,5.3822,5.3672,5.337,5.337,0.0,0.0,5.2764,5.2612,5.2154,5.1716,5.1585,5.1431,5.0121,4.8662,4.6867,4.3982,4.203,4.106,4.106,4.106,4.106,4.106,4.106,4.106,4.106,4.106,4.106,4.106,4.106,4.1042,4.095,3.9856,3.8229,3.6236,3.4493,3.2555,0.0,0.0,0.0,0.0,0.0,0.0,0.0,0.0,0.0,0.0,0.0,0.0,0.0,0.0,0.0,0.0,0.0,0.0,0.0,5.7962,5.8838,5.9818,6.0501,6.1099,6.1683,6.1683,6.1683,6.1683,6.1885,6.2085,6.2085,6.2284,6.2383,6.2383,6.2383,6.2383,6.2383,6.2383,6.2441,0.0,0.0,6.2331,6.2716,6.2488,6.2445,6.2505,6.2085,6.1407,6.0566,5.9154,5.8924,5.9205,5.9205,5.8812,5.825,5.7969,5.721,5.6367,5.6086,5.5777,5.5496,5.5496,5.5693,5.5973,5.6254,5.6816,5.7435,5.8053,5.8896,5.9626,5.9992,5.8022,5.6915,5.8122,5.5307,5.3445,5.4597,5.4248,5.3672,5.3521,5.3521,5.337,5.2916,5.2916,5.2764,0.0,5.2307,5.2307,5.2,5.1562,5.1431,5.1431,4.9629,4.7528,4.5088,4.2345,4.106,4.106,4.106,4.106,4.106,4.106,4.106,4.106,0.0,4.106,4.106,4.106,4.106,4.1042,4.0877,3.9617,3.7504,3.5297,3.3245,3.1073,0.0,0.0,0.0,0.0,0.0,0.0,0.0,0.0,0.0,0.0,5.6761,5.6761,0.0,0.0,0.0,0.0,0.0,0.0,0.0,0.0,5.8023,5.8608,5.9378,6.0055,6.064,6.0763,6.0794,6.0794,6.1308,6.1481,6.1481,6.1985,6.2184,6.2184,6.2184,6.2184,6.2184,6.2184,6.2229,6.2322,6.173,6.2248,6.3268,0.0,6.2748,6.2728,6.1998,6.0716,5.9205,5.9245,5.9273,5.9205,5.9121,5.8671,5.8053,5.7435,5.6788,5.617,5.5636,5.5496,5.5524,5.5608,5.6086,5.6704,5.735,5.8053,5.8727,5.9345,6.0413,6.1228,6.1312,5.967,5.8789,6.007,5.6649,5.4248,5.5557,5.4695,5.3672,5.3243,5.3243,5.3068,5.2612,5.2459,5.2307,5.2024,5.187,5.187,5.187,5.1562,5.1254,5.0766,4.9,4.6545,4.3322,4.1863,4.106,4.106,4.106,4.106,4.106,4.106,4.106,4.106,0.0,0.0,4.106,4.106,4.106,4.1024,4.0508,3.8954,3.7115,3.4606,3.2495,3.0551,0.0,0.0,0.0,0.0,0.0,0.0,0.0,0.0,0.0,0.0,5.6761,5.6761,0.0,0.0,0.0,0.0,0.0,0.0,0.0,0.0,0.0,5.7931,5.9131,5.9839,5.9963,6.0517,6.0794,6.0794,6.0897,6.0897,6.0897,6.1,6.1103,6.1103,6.1103,6.1103,6.1103,6.1103,6.1062,6.1051,6.0959,6.0775,6.0684,6.1378,0.0,0.0,6.0624,6.0165,5.9245,5.9565,5.9371,5.9121,5.8615,5.8025,5.7407,5.676,5.6142,5.5636,5.5524,5.5496,5.5636,5.6142,5.6732,5.7378,5.7997,5.9008,5.9992,6.0638,6.134,6.2015,6.2521,6.0237,5.8507,5.8789,5.5947,5.3972,5.4098,5.3972,5.3672,5.3243,5.3243,5.2916,5.2154,5.2154,0.0,0.0,0.0,5.1562,5.1562,5.1431,5.0121,4.7208,4.5413,4.3487,4.1546,4.1229,4.106,4.106,4.106,4.106,4.106,4.106,4.106,4.106,0.0,0.0,4.106,4.106,4.106,4.0873,3.926,3.73,3.528,3.3284,3.1038,2.8933,0.0,0.0,0.0,0.0,0.0,0.0,0.0,5.6761,5.6761,5.6761,5.6761,5.6761,5.6761,5.6761,5.6761,0.0,0.0,0.0,0.0,0.0,0.0,0.0,0.0,0.0,5.9778,6.0455,6.0794,6.0794,0.0,6.0794,6.0794,6.0794,6.0794,6.0794,6.0794,6.0794,6.0794,6.0794,6.0794,6.0794,6.0794,6.0821,6.0976,6.1777,0.0,0.0,6.1197,6.0381,5.9121,5.8965,5.8843,5.8643,5.8025,5.7378,5.6816,5.6507,5.5973,5.558,5.5889,5.5973,5.6198,5.7154,5.7884,5.8587,5.9542,6.0469,6.1284,6.1931,6.2296,6.2577,6.2886,6.0372,5.8366,5.8366,5.5801,5.3822,5.3822,5.3672,5.337,5.2916,5.2764,5.233,5.1716,5.1716,5.1562,0.0,0.0,5.1431,5.1431,5.0611,4.882,4.6223,4.4454,4.2844,4.106,4.106,4.106,4.106,4.106,4.106,4.106,4.106,4.106,4.106,4.106,0.0,4.106,4.106,4.0536,3.9501,3.8631,3.6436,3.3649,3.2614,3.1005,2.9018,0.0,0.0,0.0,0.0,0.0,0.0,5.6761,5.6761,5.6761,5.6761,5.6761,5.6761,5.6761,5.6761,5.6761,0.0,0.0,0.0,0.0,0.0,0.0,0.0,0.0,0.0,0.0,0.0,0.0,6.0794,6.0794,0.0,0.0,0.0,0.0,0.0,6.0794,6.0794,6.0794,6.0794,6.0794,0.0,0.0,6.1089,0.0,0.0,0.0,0.0,0.0,6.0537,5.8924,5.8306,5.7997,5.78,5.7182,5.6732,5.6395,5.6254,5.5973,5.5805,5.6283,5.662,5.7097,5.8221,5.9064,5.9907,6.1031,6.1762,6.2352,6.283,6.2648,6.2354,6.2354,5.9931,5.794,5.794,5.5532,5.3822,5.3822,5.337,5.3068,5.2612,5.2307,5.187,5.1431,5.1431,0.0,0.0,0.0,0.0,5.0944,4.9157,4.7368,4.5738,4.3962,4.2345,4.106,4.106,4.106,4.106,4.106,4.106,4.106,4.106,4.106,4.106,4.106,0.0,0.0,4.106,4.001,3.8289,3.7929,3.5668,3.2661,3.2062,3.0733,2.9419,0.0,0.0,0.0,0.0,0.0,0.0,5.6761,5.6761,5.6761,5.6761,5.6761,5.6761,5.6761,5.6761,5.6761,0.0,0.0,0.0,0.0,0.0,0.0,0.0,0.0,0.0,0.0,0.0,0.0,6.0794,6.0794,0.0,0.0,0.0,0.0,0.0,0.0,6.0794,6.0794,6.0794,0.0,0.0,0.0,0.0,0.0,0.0,0.0,0.0,0.0,5.9672,5.8278,5.7688,5.7069,5.6479,5.5861,5.603,5.6311,5.5749,5.5945,5.6339,5.6395,5.7238,5.8278,5.8952,6.0048,6.1116,6.179,6.2408,6.2858,6.2914,6.1789,6.0784,6.0784,5.8366,5.6264,5.6264,5.4967,5.3822,5.3822,5.337,5.3068,5.2612,5.2307,5.187,5.1431,5.1431,5.1431,0.0,0.0,0.0,0.0,4.7368,4.5576,4.3962,4.2197,4.1229,4.106,4.106,4.106,4.106,4.106,4.106,4.106,4.106,4.106,4.106,4.106,0.0,0.0,4.106,4.001,3.8118,3.6362,3.4432,3.2514,3.0753,2.9878,2.9472,0.0,0.0,0.0,0.0,0.0,0.0,5.6761,5.6761,5.6761,5.6761,5.6761,5.6761,5.6761,5.6761,5.6761,5.6761,0.0,0.0,0.0,0.0,0.0,0.0,0.0,0.0,0.0,0.0,6.0116,6.0794,6.0794,0.0,0.0,0.0,0.0,0.0,0.0,6.0794,6.0794,6.0794,0.0,0.0,0.0,0.0,0.0,0.0,0.0,0.0,0.0,0.0,5.8839,5.7366,5.662,5.6367,5.6142,5.6226,5.6367,5.6114,5.6226,5.6592,5.735,5.8193,5.9093,6.0104,6.1003,6.1818,6.2408,6.2745,6.2942,6.2942,6.1626,6.062,6.062,5.8082,5.6118,5.6118,5.4819,5.3822,5.3822,5.337,5.3068,5.2612,5.2307,5.187,0.0,0.0,0.0,0.0,0.0,0.0,0.0,4.6545,4.5413,4.3633,4.203,4.106,4.106,4.106,4.106,4.106,4.106,4.106,4.106,4.106,4.106,4.106,4.106,0.0,0.0,3.9841,3.8272,3.6362,3.4607,3.269,3.0959,3.0272,2.9847,2.9713,0.0,0.0,0.0,0.0,0.0,5.705,5.705,5.705,5.6954,5.6858,5.6761,5.6761,5.6761,5.6761,5.6761,5.6761,5.6761,0.0,0.0,0.0,0.0,0.0,0.0,0.0,0.0,0.0,5.9932,6.0794,6.0794,6.0794,0.0,0.0,6.0794,6.0794,0.0,0.0,0.0,0.0,0.0,0.0,0.0,0.0,0.0,0.0,0.0,0.0,0.0,0.0,0.0,0.0,0.0,5.617,5.6367,5.6423,5.6451,5.6648,5.6816,5.721,5.8278,5.9149,6.002,6.1116,6.1818,6.2408,6.283,6.2942,6.2942,6.2942,6.1356,5.9931,5.9931,5.7512,5.541,5.541,5.4546,5.3822,5.3822,5.337,5.2916,5.2764,0.0,5.1716,0.0,0.0,0.0,0.0,0.0,0.0,0.0,4.5413,4.4598,4.2991,4.1714,4.106,4.106,4.106,4.106,4.106,4.106,4.106,4.106,4.106,4.106,4.106,0.0,0.0,0.0,3.9143,3.7241,3.5304,3.3395,3.1479,2.9913,2.9913,2.9913,2.9887,0.0,0.0,0.0,0.0,0.0,5.7495,5.7495,5.7495,5.7306,5.6858,5.6761,5.6761,5.6761,5.6761,5.6761,5.6761,5.6761,0.0,0.0,0.0,0.0,0.0,0.0,0.0,0.0,0.0,5.9439,6.0794,6.0794,6.0794,6.0794,6.0794,6.0794,6.0794,0.0,0.0,0.0,0.0,0.0,0.0,0.0,0.0,0.0,0.0,0.0,0.0,0.0,0.0,0.0,0.0,0.0,0.0,0.0,5.6423,5.6535,5.7182,5.78,5.8418,5.9036,6.0132,6.1228,6.1846,6.2464,6.2914,6.2942,6.2942,6.2942,6.2942,6.051,5.8366,5.8366,5.5947,5.3822,5.3822,5.3822,5.3822,5.3822,5.3068,5.2764,5.3091,0.0,5.1562,5.2024,0.0,0.0,0.0,0.0,0.0,0.0,4.3633,4.2825,4.1229,4.106,4.106,4.106,4.106,4.106,4.106,4.106,4.106,4.106,4.106,4.106,0.0,0.0,0.0,0.0,3.9143,3.7241,3.5304,3.3395,3.1479,2.9913,2.9913,2.9913,2.9913,0.0,0.0,0.0,0.0,0.0,0.0,5.7019,5.7019,5.6954,5.6858,5.6761,5.6761,5.6761,5.6761,5.6761,5.6761,5.6761,0.0,0.0,0.0,0.0,0.0,0.0,0.0,0.0,5.8793,5.9439,6.0794,6.0794,6.0794,6.0794,6.0794,6.0794,6.0794,6.0794,6.0794,0.0,0.0,0.0,0.0,0.0,0.0,0.0,0.0,0.0,0.0,0.0,0.0,0.0,0.0,0.0,0.0,0.0,0.0,0.0,5.8952,5.9093,5.9064,5.9683,6.0778,6.1762,6.1959,6.2464,6.2942,6.2942,6.2942,6.2942,6.2942,6.051,5.8366,5.8366,5.5801,5.3822,5.3822,5.3822,5.3822,5.3822,5.337,5.2916,5.2764,5.2024,5.1431,0.0,0.0,0.0,0.0,0.0,0.0,0.0,4.3633,4.2825,4.1229,4.106,4.106,4.106,4.106,4.106,4.106,4.106,4.106,4.106,4.106,0.0,0.0,0.0,0.0,0.0,3.7757,3.6015,3.5146,3.1997,3.0437,2.9913,2.9913,2.9913,2.9913,0.0,0.0,0.0,0.0,0.0,0.0,5.7115,5.7019,5.705,5.6858,5.6761,5.6761,5.6761,5.6761,5.6761,5.6761,5.6761,0.0,0.0,0.0,0.0,0.0,0.0,0.0,5.8762,5.8793,5.9439,6.0794,6.0794,6.0794,6.0794,6.0794,6.0794,6.0794,6.0794,6.0794,0.0,0.0,0.0,0.0,0.0,0.0,5.8694,0.0,0.0,0.0,0.0,0.0,0.0,0.0,0.0,0.0,0.0,0.0,0.0,0.0,6.0048,6.0048,6.0666,6.1425,6.2071,6.2296,6.2633,6.2942,6.2942,6.2487,6.2058,6.2058,5.9654,5.7512,5.7512,5.5532,5.3822,5.3822,5.3822,5.3822,5.3521,0.0,0.0,5.2154,0.0,0.0,0.0,0.0,0.0,0.0,0.0,0.0,0.0,0.0,4.2197,4.106,4.106,4.106,4.106,4.106,4.106,4.106,4.106,4.106,4.106,4.106,0.0,0.0,0.0,0.0,0.0,3.6707,3.513,3.4097,3.1137,2.9913,2.9913,2.9913,2.9913,2.9913,0.0,0.0,0.0,0.0,0.0,0.0,0.0,5.7495,5.7306,5.6858,5.6761,5.6761,5.6761,5.6761,5.6761,5.6761,5.6761,0.0,0.0,0.0,0.0,0.0,0.0,0.0,5.8762,5.8824,5.9501,6.0794,6.0794,6.0794,6.0794,6.0794,6.0794,6.0794,6.0794,6.0794,0.0,0.0,0.0,0.0,5.9819,5.9469,0.0,0.0,0.0,0.0,0.0,0.0,0.0,0.0,0.0,0.0,0.0,0.0,0.0,0.0,0.0,0.0,0.0,6.2071,6.2212,6.2773,6.2942,6.2942,6.2942,6.1761,0.0,6.062,5.8224,5.6118,5.6118,5.4819,5.3822,5.3822,5.3822,5.3672,0.0,5.2764,0.0,0.0,0.0,0.0,0.0,0.0,0.0,0.0,0.0,0.0,0.0,0.0,4.106,4.106,4.106,4.106,4.106,4.106,4.106,4.106,4.106,4.106,4.106,4.106,0.0,0.0,0.0,0.0,0.0,3.6188,3.4257,3.2514,3.0616,2.9913,2.9913,2.9913,2.9913,2.9913,0.0,0.0,0.0,0.0,0.0,0.0,0.0,0.0,0.0,0.0,5.6761,5.6761,5.6761,5.6761,5.6761,0.0,0.0,0.0,0.0,0.0,0.0,0.0,0.0,0.0,5.8762,5.9285,5.9963,6.0794,6.0794,6.0794,6.0794,6.0794,6.0794,6.0794,6.0794,6.0794,0.0,0.0,0.0,0.0,5.9819,5.9039,0.0,0.0,0.0,0.0,5.5782,5.5636,0.0,0.0,0.0,0.0,0.0,0.0,0.0,0.0,6.0975,6.134,6.2408,0.0,6.2745,6.2886,6.2942,6.2942,0.0,6.1761,6.062,6.062,5.8224,5.6118,5.6118,5.4819,5.3822,5.3822,5.3822,5.3672,5.3243,0.0,0.0,0.0,0.0,0.0,0.0,0.0,0.0,0.0,0.0,0.0,0.0,0.0,4.106,4.106,4.106,4.106,4.106,4.106,4.106,4.106,4.106,4.106,4.106,4.106,0.0,0.0,0.0,0.0,3.8118,3.4781,3.3043,3.2514,3.0616,2.9913,2.9913,2.9913,2.9913,2.9913,0.0,0.0,0.0,0.0,0.0,0.0,0.0,0.0,0.0,0.0,5.6761,5.6761,5.6761,5.6761,5.6761,0.0,0.0,0.0,0.0,0.0,0.0,0.0,0.0,5.8085,5.8762,5.9439,6.0116,6.0794,6.0794,6.0794,6.0794,6.0794,6.0794,6.0794,6.0794,6.0794,0.0,0.0,0.0,6.069,5.9392,0.0,0.0,0.0,0.0,0.0,5.5613,5.5496,0.0,5.6226,5.6845,5.7491,0.0,0.0,0.0,0.0,6.1312,6.1734,6.2661,6.2942,6.2942,6.2942,6.2942,6.2942,6.2942,6.122,5.9627,5.9627,5.7226,5.4967,5.4967,5.4397,5.3822,5.3822,5.3672,0.0,0.0,0.0,5.1562,0.0,0.0,0.0,0.0,0.0,0.0,0.0,0.0,0.0,0.0,0.0,4.106,4.106,4.106,4.106,4.106,4.106,4.106,4.106,4.106,4.106,4.106,4.106,4.0705,0.0,0.0,0.0,3.5494,3.3556,3.2174,3.1301,3.0258,2.9913,2.9913,2.9913,2.9913,2.9913,0.0,0.0,0.0,0.0,0.0,0.0,0.0,0.0,0.0,0.0,0.0,0.0,0.0,0.0,0.0,0.0,0.0,0.0,0.0,0.0,0.0,0.0,5.7623,5.8239,5.8916,5.9593,6.0209,6.0794,6.0794,6.0794,6.0794,6.0794,6.0794,6.0794,6.0794,6.0794,6.0794,6.0794,6.069,6.0481,5.8852,0.0,0.0,0.0,0.0,0.0,0.0,0.0,0.0,5.6311,5.6929,5.7519,5.8221,0.0,0.0,0.0,0.0,0.0,6.2773,6.2942,6.2942,6.2942,6.2942,6.2781,6.2648,6.0372,5.8366,5.8082,5.5826,5.3822,5.3822,5.3822,5.3822,5.3822,0.0,0.0,5.2154,5.1408,0.0,0.0,0.0,0.0,0.0,0.0,0.0,0.0,0.0,0.0,0.0,0.0,0.0,4.106,4.106,4.106,4.106,4.106,4.106,4.106,4.106,4.106,4.106,4.0892,3.9841,0.0,0.0,0.0,3.269,3.2337,3.1301,2.9913,2.9913,2.9913,2.9913,2.9913,2.9913,2.9913,0.0,0.0,0.0,0.0,0.0,0.0,0.0,0.0,0.0,0.0,0.0,0.0,0.0,0.0,0.0,0.0,0.0,0.0,0.0,0.0,0.0,5.8454,5.8577,5.8947,5.9624,6.0301,6.0701,6.0794,6.0794,6.0794,6.0794,6.0794,6.0794,6.0794,6.0794,6.0794,6.0794,6.0794,6.0346,5.9576,5.8634,0.0,0.0,0.0,0.0,0.0,0.0,0.0,0.0,5.6845,5.7294,5.7575,5.8727,0.0,0.0,0.0,0.0,0.0,6.2773,6.2942,6.2942,6.2942,6.2942,6.2515,6.1193,5.9654,5.8082,5.6674,5.4967,5.3822,5.3822,5.3822,5.3822,0.0,0.0,0.0,0.0,0.0,0.0,0.0,0.0,0.0,0.0,0.0,0.0,0.0,0.0,0.0,0.0,0.0,0.0,4.106,4.106,4.106,4.106,4.106,4.106,4.106,4.106,4.106,4.106,3.9501,3.8631,0.0,0.0,3.3219,3.2514,3.0959,3.0093,2.9913,2.9913,2.9913,2.9913,2.9913,2.9913,2.9734,0.0,0.0,0.0,0.0,0.0,0.0,0.0,0.0,0.0,0.0,0.0,0.0,0.0,0.0,0.0,0.0,0.0,0.0,0.0,0.0,5.8608,5.9285,5.9316,5.947,5.9778,6.0455,6.0794,6.0794,6.0794,6.0794,6.0794,6.0794,6.0794,6.0794,6.0794,6.0794,6.0794,6.0794,6.0241,5.9469,0.0,0.0,0.0,0.0,0.0,0.0,0.0,0.0,0.0,0.0,5.7378,5.7603,5.884,0.0,0.0,0.0,0.0,0.0,6.2858,6.2942,6.2648,6.1923,6.1626,6.1193,5.9766,5.8224,5.6963,5.6264,5.4819,5.3822,5.3822,0.0,5.3672,5.3195,0.0,0.0,0.0,0.0,0.0,0.0,0.0,0.0,0.0,0.0,0.0,0.0,0.0,0.0,0.0,0.0,0.0,0.0,4.106,4.106,4.106,4.106,4.106,4.106,4.106,4.0536,3.9501,3.8631,3.7241,3.5146,0.0,3.2174,3.1123,3.0258,2.9913,2.9913,2.9913,2.9913,2.9913,2.9913,2.9913,2.9554,0.0,0.0,0.0,0.0,0.0,0.0,0.0,0.0,0.0,0.0,0.0,0.0,0.0,0.0,0.0,0.0,0.0,0.0,0.0,5.9008,5.9316,5.9993,6.0024,6.0024,6.0024,6.0547,6.0794,6.0794,6.0794,6.0794,6.0794,6.0794,6.0794,6.0794,6.0794,6.0794,6.0794,6.0586,6.0031,5.9177,0.0,0.0,0.0,0.0,0.0,0.0,0.0,0.0,0.0,0.0,0.0,0.0,0.0,0.0,0.0,6.1088,6.1959,6.2942,6.2942,6.2942,6.2487,6.1057,6.062,6.007,5.8224,5.6963,5.5972,5.5679,5.4695,5.3822,5.3822,5.3672,0.0,5.274,0.0,0.0,0.0,0.0,0.0,0.0,0.0,0.0,0.0,0.0,0.0,0.0,0.0,0.0,0.0,0.0,0.0,0.0,4.106,4.106,4.106,4.0969,4.0914,4.0914,4.0577,3.9476,3.8015,3.7146,3.524,3.2456,3.1944,3.1091,2.9713,2.9713,2.9713,2.9713,2.9713,2.9753,2.982,2.9887,2.9554,2.8989,0.0,0.0,0.0,0.0,0.0,0.0,0.0,0.0,0.0,0.0,0.0,0.0,0.0,0.0,0.0,0.0,0.0,0.0,0.0,5.9716,6.0024,6.0701,6.0732,6.0732,6.0732,6.0763,6.0794,6.0794,6.0794,6.0794,6.0794,6.0794,6.0794,6.0794,6.0794,6.0794,6.0794,5.9925,5.9069,5.8254,5.7971,0.0,0.0,0.0,0.0,0.0,0.0,0.0,0.0,0.0,0.0,0.0,0.0,0.0,6.1088,6.1088,6.1959,6.2942,6.2942,6.2942,6.2487,6.1057,6.062,5.9766,5.6963,5.6118,5.5679,5.4248,5.3822,5.3822,5.3822,5.3521,5.3068,5.2612,0.0,0.0,0.0,0.0,0.0,0.0,0.0,0.0,0.0,0.0,0.0,0.0,0.0,0.0,0.0,0.0,0.0,0.0,0.0,4.106,4.106,4.0694,4.051,4.051,3.8786,3.7738,3.721,3.3831,3.2141,3.1798,2.9941,2.9273,2.9098,2.9098,2.9098,2.9098,2.9098,2.9272,2.9553,2.982,2.8809,2.6966,0.0,0.0,0.0,0.0,0.0,0.0,0.0,0.0,0.0,0.0,0.0,0.0,0.0,0.0,0.0,0.0,0.0,0.0,0.0,6.0424,6.0547,6.0794,6.0794,6.0794,6.0794,6.0794,6.0794,6.0794,6.0794,6.0794,6.0794,6.0794,6.0794,6.0794,6.0794,6.0481,5.9925,5.9576,5.8842,5.7942,5.783,5.7106,0.0,0.0,0.0,0.0,0.0,0.0,0.0,0.0,5.7631,5.8109,5.8952,6.0076,6.1088,6.1088,6.1959,6.2942,6.2942,6.222,6.1356,6.0756,5.9209,5.7538,5.641,5.541,5.4546,5.3972,5.3822,5.3822,5.3822,0.0,5.2764,0.0,0.0,0.0,0.0,0.0,0.0,0.0,0.0,0.0,0.0,0.0,0.0,0.0,0.0,0.0,0.0,0.0,0.0,0.0,0.0,4.095,4.0694,3.9509,3.8504,3.803,3.7577,3.609,3.3753,3.2408,3.1224,3.0045,2.9379,2.9045,2.9045,2.9045,2.9045,2.9045,2.9045,2.9112,2.9043,2.8079,2.7206,2.6128,0.0,0.0,0.0,0.0,0.0,0.0,0.0,0.0,0.0,0.0,0.0,0.0,0.0,0.0,0.0,0.0,0.0,0.0,6.0763,6.0794,6.0794,6.0794,6.0794,6.0794,6.0794,6.0794,6.0794,6.0794,6.0794,6.0794,6.0794,6.0794,6.0794,6.0794,6.0481,6.0152,5.9801,5.923,5.862,5.8147,5.7997,5.7355,0.0,0.0,0.0,0.0,0.0,0.0,0.0,0.0,5.794,5.8446,5.9233,6.0245,6.1144,6.134,6.1705,6.2192,6.2192,6.1356,6.0483,6.007,5.8366,5.6674,5.6264,5.4967,5.3822,5.3822,5.3822,5.3822,5.3822,5.3195,0.0,0.0,0.0,0.0,0.0,0.0,0.0,0.0,0.0,0.0,0.0,0.0,0.0,0.0,0.0,0.0,0.0,0.0,0.0,0.0,0.0,4.0563,3.9605,3.8171,3.6592,3.4915,3.5046,3.3945,3.1432,3.0922,2.9926,2.8751,2.8751,2.8751,2.8751,2.8751,2.8751,2.8764,2.8858,2.8538,2.7843,2.6696,2.5489,2.4064,0.0,0.0,0.0,0.0,0.0,0.0,0.0,0.0,5.8793,5.8793,5.9378,0.0,0.0,0.0,0.0,0.0,0.0,0.0,6.0794,6.0794,6.0794,6.0794,6.0794,6.0794,6.0794,6.0794,6.0794,6.0794,6.0794,6.0794,6.0794,6.0794,6.0794,6.0794,5.9925,5.9831,6.0246,5.8603,5.8176,5.8692,5.839,5.7547,5.6507,0.0,0.0,0.0,0.0,0.0,0.0,0.0,5.8306,5.8531,5.9739,6.0582,6.1228,6.1818,6.1319,6.062,6.062,6.062,6.0208,5.8789,5.8366,5.794,5.6384,5.4967,5.3822,5.3822,5.3822,5.3822,5.3822,5.3195,0.0,0.0,0.0,0.0,0.0,0.0,0.0,0.0,0.0,0.0,0.0,0.0,0.0,0.0,0.0,0.0,0.0,0.0,0.0,0.0,0.0,0.0,3.7875,3.6953,3.475,3.141,3.0934,3.0788,3.0788,2.8978,2.8136,2.8136,2.8136,2.8136,2.8136,2.8136,2.8136,2.8177,2.8484,2.7362,2.5796,2.6085,2.3875,2.0676,0.0,0.0,0.0,0.0,0.0,0.0,0.0,0.0,5.9655,6.0147,6.0363,0.0,0.0,0.0,0.0,0.0,0.0,0.0,6.0794,6.0794,6.0794,6.0794,6.0794,6.0794,6.0794,6.0794,6.0794,6.0794,6.0794,6.0794,6.0794,6.0794,6.0481,5.9925,6.073,6.0174,5.8633,5.9185,5.9044,5.839,5.8344,5.7828,5.7126,0.0,0.0,0.0,0.0,0.0,0.0,0.0,0.0,0.0,5.9879,6.0582,6.1228,6.1818,6.2145,6.222,6.222,6.0647,0.0,5.9793,5.7512,5.5385,5.5972,5.4967,5.3822,5.3822,5.3822,5.3822,5.3822,5.3195,0.0,0.0,0.0,0.0,0.0,0.0,0.0,0.0,0.0,0.0,0.0,0.0,0.0,0.0,0.0,0.0,0.0,0.0,0.0,0.0,0.0,3.9335,3.6919,3.551,3.3463,3.092,2.9677,2.8964,2.8964,2.8473,2.8136,2.8136,2.8136,2.8136,2.8136,2.8136,2.8136,2.815,2.6859,2.6019,2.5163,2.2642,2.1104,1.9887,0.0,0.0,0.0,0.0,0.0,0.0,0.0,0.0,6.0332,6.0763,6.0794,6.0794,0.0,0.0,0.0,0.0,0.0,0.0,6.0794,6.0794,6.0794,6.0794,6.0794,6.0794,6.0794,6.0794,6.0794,6.0794,6.0794,6.0794,6.0794,6.0794,6.0604,6.0426,6.0637,6.0104,5.9132,5.9277,5.9114,5.8671,5.8671,5.8137,5.7407,0.0,0.0,0.0,0.0,0.0,0.0,0.0,0.0,0.0,6.0329,6.0947,6.1435,6.1497,6.1351,6.0947,6.0372,5.8815,0.0,5.7798,5.6239,5.4819,5.5115,5.4546,5.3822,5.3822,5.3822,5.3822,5.3521,5.3068,0.0,0.0,0.0,0.0,0.0,0.0,0.0,0.0,0.0,0.0,0.0,0.0,0.0,0.0,0.0,0.0,0.0,0.0,0.0,0.0,0.0,3.804,3.5575,3.3613,3.1798,2.9802,2.8642,2.8136,2.8136,2.8136,2.8136,2.8136,2.8136,2.8136,2.8136,2.8136,2.7799,2.6927,2.5896,2.452,2.2966,2.0732,1.9351,1.8663,0.0,0.0,6.2085,6.1,0.0,0.0,0.0,0.0,6.0794,6.0794,6.0794,6.0794,0.0,0.0,0.0,0.0,0.0,0.0,6.0794,6.0794,6.0794,6.0794,6.0794,6.0794,6.0794,6.0794,6.0794,6.0794,6.0794,6.0794,6.0794,6.0855,6.112,6.1492,6.0066,5.985,6.0706,5.9159,5.8823,5.9205,5.9205,5.8502,5.7519,5.8081,0.0,0.0,0.0,0.0,0.0,0.0,0.0,0.0,6.0947,6.1565,6.1837,6.1028,5.9793,5.8224,5.6819,5.6264,5.5826,5.4397,5.4967,0.0,5.4098,5.3822,5.3822,5.3822,0.0,5.3672,5.337,0.0,0.0,0.0,0.0,0.0,0.0,0.0,0.0,0.0,0.0,0.0,0.0,0.0,0.0,0.0,0.0,0.0,0.0,0.0,0.0,0.0,0.0,3.6091,3.3692,3.1753,2.9969,0.0,2.8136,2.8136,2.8136,2.8136,2.8136,2.8136,2.8136,2.8136,2.8136,2.8136,2.7109,2.5373,2.5203,2.2966,1.9873,1.97,1.8488,1.7112,0.0,0.0,6.2085,6.1,0.0,0.0,0.0,0.0,0.0,6.0794,6.0794,0.0,0.0,0.0,0.0,0.0,0.0,0.0,6.0794,6.0794,6.0794,6.0794,6.0794,6.0794,6.0794,6.0794,6.0794,6.0794,6.0794,6.0794,6.0824,6.1348,6.0882,5.9725,6.1104,6.0674,5.8888,5.9765,5.9806,5.9205,5.9205,5.8755,5.8109,5.825,5.8137,0.0,0.0,0.0,0.0,0.0,0.0,0.0,6.1453,6.1902,6.1996,6.232,6.1356,6.007,5.9766,5.794,5.5972,5.5679,5.4967,5.4248,5.3822,5.3822,5.3822,5.3822,5.3521,5.337,0.0,0.0,0.0,0.0,0.0,0.0,0.0,0.0,0.0,0.0,0.0,0.0,0.0,0.0,0.0,0.0,0.0,0.0,0.0,0.0,0.0,0.0,3.7508,3.5311,3.1556,3.0984,2.9969,0.0,2.8136,2.8136,2.8136,2.8136,2.8136,2.8136,2.8136,2.8136,2.8136,2.8136,2.7109,2.5203,2.3824,2.177,1.97,1.8322,1.7455,1.7112,0.0,0.0,0.0,0.0,0.0,0.0,0.0,0.0,0.0,0.0,0.0,0.0,0.0,0.0,0.0,0.0,6.0794,6.0794,6.0794,6.0794,6.0794,6.0794,6.0794,6.0794,6.0794,6.0794,6.0794,6.0794,6.1132,6.1286,6.1286,6.1656,6.1584,6.1318,6.1672,6.1115,6.0014,6.0022,5.9702,5.9205,5.9205,5.884,5.8334,5.8615,5.8559,5.8334,5.8643,0.0,0.0,0.0,0.0,0.0,0.0,0.0,6.2361,6.1975,6.1193,6.0345,5.8789,5.7251,5.5972,5.5115,0.0,5.3822,5.3822,5.3822,5.3822,5.3822,5.3672,0.0,0.0,0.0,0.0,0.0,0.0,0.0,0.0,0.0,0.0,0.0,0.0,0.0,0.0,0.0,0.0,0.0,0.0,0.0,0.0,0.0,0.0,0.0,3.6459,3.4279,3.0788,2.9969,2.9132,2.8136,2.8136,2.8136,2.8136,2.8136,2.8136,2.8136,2.8136,2.8136,2.8136,2.7279,2.5726,2.3835,2.2105,2.0211,1.8497,1.7455,1.7112,1.7112,0.0,0.0,0.0,0.0,0.0,0.0,0.0,0.0,0.0,0.0,0.0,0.0,0.0,0.0,0.0,0.0,0.0,0.0,6.0794,6.0794,6.0794,6.0794,6.0794,6.0794,6.0794,6.0794,6.0855,6.0978,6.1532,6.1827,6.1936,6.2042,6.2518,6.3232,6.1834,6.1263,6.1407,5.992,5.9205,5.9205,5.9205,5.8924,5.8502,5.9008,5.8952,5.8699,5.9205,5.9767,6.0301,6.0413,0.0,0.0,0.0,0.0,6.2648,6.1356,6.062,5.9627,5.7251,5.6118,5.541,5.4098,5.3822,0.0,5.3822,5.3822,5.3822,5.3822,5.3672,0.0,0.0,0.0,0.0,0.0,0.0,0.0,0.0,0.0,0.0,0.0,0.0,0.0,0.0,0.0,0.0,0.0,0.0,0.0,0.0,0.0,3.9467,3.6826,3.5119,3.2938,3.0303,2.8978,2.8136,2.8136,2.8136,2.8136,2.8136,2.8136,2.8136,2.8136,2.8136,2.7968,2.7617,2.6066,2.4178,2.1932,2.0558,1.8663,1.7112,1.7112,1.7112,1.7112,0.0,0.0,0.0,0.0,0.0,0.0,0.0,0.0,0.0,0.0,6.0794,6.0794,0.0,0.0,6.0794,6.0794,6.0794,6.0794,6.0794,0.0,0.0,6.0794,6.0794,6.0794,6.0794,6.0794,6.1071,6.1686,6.1779,6.1967,6.2294,6.3098,6.2718,6.1401,6.1732,6.099,5.9578,5.9329,5.9205,5.9205,5.9205,5.9177,5.9093,5.9177,5.9486,5.9907,5.9992,6.0413,6.1059,6.1593,6.1874,0.0,0.0,0.0,6.2809,6.2648,6.0784,5.8648,5.8224,5.6093,5.4122,5.3822,5.3822,5.3822,5.3822,0.0,5.3822,0.0,0.0,0.0,0.0,0.0,0.0,0.0,0.0,0.0,0.0,0.0,0.0,0.0,0.0,0.0,0.0,0.0,0.0,0.0,0.0,0.0,4.106,3.9501,3.759,3.4967,3.309,3.1092,2.8642,2.8305,2.8136,2.8136,2.8136,2.8136,2.8136,2.8136,2.8136,2.8136,2.8136,2.7279,2.5726,2.5556,2.3309,2.0221,2.0047,1.8663,1.7112,1.7112,1.7112,1.7112,0.0,0.0,0.0,0.0,0.0,0.0,0.0,0.0,0.0,0.0,0.0,6.0794,0.0,6.0794,6.0794,6.0794,6.0794,6.0794,6.0794,6.0794,6.0794,6.0794,6.0794,6.0794,6.0794,6.1163,6.1502,6.1809,6.2579,6.2792,6.2453,6.3152,6.2852,6.1585,6.1319,6.0745,5.992,5.9454,5.9205,5.9205,5.9205,5.9205,5.9261,5.9598,5.9907,6.0188,6.0554,6.1088,6.165,6.1931,6.224,6.2577,6.2858,0.0,0.0,0.0,6.1356,5.9209,5.7538,5.5532,5.3822,5.3822,5.3822,5.3822,5.3822,5.3822,5.3822,0.0,0.0,0.0,0.0,0.0,0.0,0.0,0.0,0.0,0.0,0.0,0.0,0.0,0.0,0.0,0.0,0.0,0.0,0.0,0.0,4.0705,3.9671,3.8802,3.6721,3.3105,3.2238,3.0581,2.815,2.8136,2.8136,2.8136,2.8136,2.8136,2.8136,2.8136,2.8136,2.8136,2.7109,2.6236,2.5203,2.3137,2.1424,1.9873,1.8663,1.7797,1.7112,1.7112,1.7112,1.7112,0.0,0.0,0.0,0.0,0.0,0.0,0.0,0.0,0.0,0.0,0.0,0.0,0.0,0.0,0.0,0.0,6.0794,6.0794,6.0794,6.0794,6.0794,6.0794,6.0948,6.104,6.104,6.1717,6.2148,6.2333,6.3318,6.3324,6.2355,6.2834,6.2349,6.1316,6.0865,6.0531,6.0165,5.9454,5.9205,5.9205,5.9205,5.9317,5.9514,5.9964,6.0329,6.0666,6.1172,6.1734,6.224,6.224,6.2549,6.2942,6.2942,6.2942,0.0,0.0,0.0,5.8929,5.6264,5.4695,5.3822,5.3822,5.3822,5.3822,0.0,0.0,5.3672,0.0,0.0,0.0,0.0,0.0,0.0,0.0,0.0,0.0,0.0,0.0,0.0,0.0,0.0,0.0,0.0,0.0,0.0,0.0,0.0,3.9841,3.8289,3.7414,3.5333,3.1925,3.1396,3.0083,2.815,2.8136,2.8136,2.8136,2.8136,2.8136,2.8136,2.7799,2.7448,2.7448,2.6066,2.4861,2.3835,2.1078,1.97,1.9012,1.763,1.7112,1.7112,1.7112,1.7112,1.7112,0.0,0.0,0.0,0.0,0.0,0.0,0.0,0.0,0.0,0.0,0.0,0.0,6.0794,6.0794,6.0794,6.0794,6.0794,6.0794,6.0794,6.0794,6.0794,6.0794,6.1409,0.0,6.1748,6.2425,6.3071,6.3718,6.3779,6.3234,6.2086,6.2116,6.1077,5.9329,6.0287,6.0165,5.9205,5.9205,5.9205,5.9205,5.9205,5.957,6.0104,6.0132,6.0863,6.1931,6.1959,6.2352,6.2886,6.2886,6.2886,6.2942,6.2942,6.2942,6.2648,0.0,0.0,0.0,5.4397,5.3822,5.3822,5.3822,5.3822,5.3672,0.0,0.0,0.0,0.0,0.0,0.0,0.0,0.0,0.0,0.0,0.0,0.0,0.0,0.0,0.0,0.0,0.0,0.0,0.0,0.0,0.0,0.0,0.0,3.846,3.8289,3.4972,3.2572,3.1754,3.0045,2.8923,2.815,2.8136,2.8136,2.8136,2.8136,2.8136,2.8136,2.6418,2.5556,2.5556,2.5385,2.3492,2.0221,2.0047,1.8837,1.7288,1.7112,1.7112,1.7112,1.7112,1.7112,1.7112,0.0,0.0,0.0,0.0,0.0,0.0,0.0,0.0,0.0,0.0,0.0,0.0,0.0,6.0794,6.0794,6.0794,6.0794,6.0978,6.1409,6.144,6.1625,6.2086,6.2333,6.2456,6.2456,6.3133,6.3595,6.3841,6.3659,6.3063,6.1998,6.1436,6.0381,5.9205,5.9578,5.9578,5.9205,5.9205,5.943,5.9795,5.9795,6.0188,6.0807,6.12,6.1621,6.2071,6.2464,6.2745,6.2942,6.2942,6.2942,6.2942,6.2942,6.2942,6.2354,5.9931,5.7655,5.5826,5.4248,5.3822,5.3822,5.3822,5.3822,5.3822,5.3672,5.3521,0.0,0.0,0.0,0.0,0.0,0.0,0.0,0.0,0.0,0.0,0.0,0.0,0.0,0.0,0.0,0.0,0.0,0.0,0.0,0.0,0.0,0.0,3.4643,3.3045,3.1368,2.9769,2.9095,2.8564,2.815,2.8136,2.8136,2.8136,2.8136,2.7617,2.6418,2.5726,2.4178,2.1943,2.1943,2.1078,1.9873,1.8663,1.763,1.7112,1.7112,1.7112,1.7112,1.7112,1.7112,1.7112,0.0,0.0,0.0,0.0,0.0,6.1985,6.1683,6.1481,6.1206,6.0794,0.0,0.0,0.0,0.0,6.0886,6.1132,6.1348,6.1656,6.2117,6.2148,6.2333,6.2794,6.3041,6.3164,6.3164,6.3595,6.3933,6.418,6.3701,6.2979,6.1998,6.1316,6.0381,5.9205,5.9205,5.9205,5.9233,5.943,5.9767,6.016,6.0357,6.0835,6.1453,6.1874,6.2155,6.238,0.0,0.0,0.0,6.2942,6.2942,6.2942,6.2942,6.222,6.0947,5.8929,5.6963,5.5115,5.4098,5.3822,5.3822,5.3822,5.3822,5.3672,5.3521,0.0,0.0,0.0,0.0,0.0,0.0,0.0,0.0,0.0,0.0,0.0,0.0,0.0,0.0,0.0,0.0,0.0,0.0,0.0,0.0,0.0,0.0,0.0,3.2219,3.1339,3.0251,2.8617,2.8511,2.835,2.815,2.8136,2.8136,2.8136,2.8136,2.7279,2.5385,2.4691,2.2794,1.9873,1.9186,1.9012,1.8837,1.763,1.7112,1.7112,1.7112,1.7112,1.7112,1.7112,1.7112,1.7112,0.0,0.0,6.3164,6.3164,6.2383,6.1683,6.1582,6.1206,6.0794,6.0794,0.0,0.0,0.0,0.0,0.0,6.1779,6.2425,6.2825,6.2856,6.2856,6.2856,6.2887,6.3502,6.3841,6.3841,6.3841,6.421,6.4888,6.4101,6.3152,6.1998,6.188,6.0957,5.9205,5.9233,5.9233,5.9289,5.9879,6.016,6.0245,6.0863,6.1481,6.2043,6.2043,6.2408,0.0,6.2942,6.2942,0.0,6.2942,6.2942,6.2942,6.2809,6.0784,5.8366,5.8366,5.6239,5.3822,0.0,0.0,0.0,5.3822,5.3822,5.3672,5.274,0.0,0.0,0.0,0.0,0.0,0.0,0.0,0.0,0.0,0.0,0.0,0.0,0.0,0.0,0.0,0.0,0.0,0.0,0.0,0.0,0.0,0.0,3.171,3.171,3.0032,2.8885,2.8604,2.8297,2.8136,2.8136,2.8136,2.8136,2.8136,2.8136,2.7096,2.5203,2.3309,2.1597,1.97,1.7972,1.7112,1.7112,1.7112,1.7112,1.7112,1.7112,1.7112,1.7112,1.7112,1.7112,1.7112,0.0,6.3897,6.3802,6.3802,6.3517,6.3099,6.2284,6.2085,6.1683,0.0,0.0,0.0,6.1471,6.1963,6.2333,6.2517,6.2702,6.301,6.3502,6.3533,6.3779,6.4303,6.4518,6.4611,6.4611,6.4611,6.4703,6.4888,6.3267,6.2288,6.1998,6.0624,5.9673,5.9233,5.9683,5.9879,5.9879,6.0048,6.0666,6.1509,6.1678,6.2127,6.2661,6.2661,6.2773,0.0,0.0,6.2942,6.2942,0.0,6.2942,6.2648,6.1626,5.9931,5.8224,5.7107,5.5385,5.3822,5.3822,0.0,0.0,0.0,0.0,0.0,5.3521,5.337,0.0,0.0,0.0,0.0,0.0,0.0,0.0,0.0,0.0,0.0,0.0,0.0,0.0,0.0,0.0,0.0,0.0,0.0,0.0,0.0,3.2861,3.0893,2.9556,2.8839,2.835,2.827,2.819,2.8136,2.8136,2.8136,2.8136,2.8136,2.6758,2.5203,2.3309,2.1424,1.97,1.7805,1.7288,1.7112,1.7112,1.7112,1.7112,1.7112,1.7112,1.7112,1.7112,1.7112,1.7112,1.7112,6.4024,6.4024,6.4024,6.4024,6.3612,6.3099,6.2481,6.2184,6.1878,0.0,0.0,0.0,6.2148,6.2825,6.3225,6.3225,6.3502,6.3841,6.4241,6.4272,6.4457,6.4888,6.4888,6.4888,6.4888,6.4611,6.4611,6.4888,6.3033,6.2083,6.1998,6.0502,5.9719,5.9598,5.9964,6.0413,6.0919,6.0919,6.134,6.2043,6.2296,6.2605,6.2942,6.2942,6.2942,0.0,0.0,0.0,6.2942,6.2942,6.2942,0.0,6.1789,6.007,5.8224,5.7395,5.5532,5.3822,5.3822,5.3822,5.3822,5.3822,0.0,0.0,5.274,5.2107,5.1008,0.0,0.0,0.0,0.0,0.0,0.0,0.0,0.0,0.0,0.0,0.0,0.0,0.0,0.0,0.0,0.0,0.0,0.0,3.3013,3.1168,2.9564,2.8417,2.8243,2.8136,2.8136,2.8136,2.8136,2.8136,2.8136,2.7799,2.7109,2.5896,2.4006,2.1414,2.0385,1.8837,1.7112,1.7112,1.7112,1.7112,1.7112,1.7112,1.7112,1.7112,1.7112,1.7112,1.7112,1.7112,1.7112,0.0,6.4024,6.4024,6.4024,6.3196,6.2612,6.2576,6.211,6.1854,0.0,6.2383,6.2767,6.2856,6.3533,6.3933,6.3933,6.4518,6.4888,6.4888,6.4888,6.4888,6.4888,6.4888,6.4888,6.4888,6.4272,6.4241,6.4888,6.3213,6.2246,6.1998,6.1044,6.0442,6.0132,6.0273,6.0975,6.2015,6.2071,6.2127,6.2155,6.2717,6.2942,0.0,0.0,6.2942,6.2942,6.2942,6.2942,6.2942,6.2942,6.2942,0.0,6.2515,6.051,5.8366,5.794,5.5947,5.3822,5.3822,5.3822,5.3822,5.3822,5.3822,0.0,5.1493,5.0543,4.9091,0.0,0.0,0.0,0.0,0.0,0.0,0.0,0.0,0.0,0.0,0.0,0.0,0.0,0.0,0.0,0.0,3.4408,3.2412,3.0954,2.9132,2.8136,2.8136,2.8136,2.8136,2.8136,2.8136,2.8136,2.8136,2.7968,2.7109,2.5373,2.5032,2.3137,1.9873,1.97,1.8663,1.7112,1.7112,1.7112,1.7112,1.7112,1.7112,1.7112,1.7112,1.7112,1.7112,1.7112,1.7112,1.7112,6.4024,6.4024,6.4024,6.4024,6.3802,6.3677,6.3834,6.3404,6.3084,6.3256,6.3499,6.358,6.3626,6.4272,6.4703,6.4703,6.4826,6.4888,6.4888,6.4888,6.4888,6.4888,6.4888,6.4888,6.4888,6.4764,6.4764,6.4888,6.2954,6.1997,6.1998,6.0774,6.0146,6.016,6.12,6.179,6.2043,6.2549,6.2745,6.2745,6.2886,6.2942,6.2942,6.2942,6.2942,6.2942,6.2942,6.2942,6.2942,6.2942,6.2942,6.2515,0.0,0.0,0.0,5.5385,5.4248,5.3822,5.3822,5.3822,5.3822,5.3822,5.3822,0.0,5.3346,5.2084,5.0342,0.0,0.0,0.0,0.0,0.0,0.0,0.0,0.0,0.0,0.0,0.0,0.0,0.0,0.0,0.0,0.0,3.2458,3.112,3.0788,2.9132,2.8136,2.8136,2.8136,2.8136,2.8136,2.8136,2.8136,2.8136,2.6758,2.5726,2.5373,2.246,2.0558,1.9873,1.8322,1.7455,1.7112,1.7112,1.7112,1.7112,1.7112,1.7112,1.7112,1.7112,1.7112,1.7112,1.7112,1.7112,1.7112,6.4024,6.4024,6.4121,6.4445,6.4319,6.4256,6.4636,6.4234,6.4082,6.4601,6.4977,6.4986,6.4364,6.4892,6.5187,6.4888,6.4888,6.4888,6.4888,6.4888,6.4888,6.4888,6.4888,6.4888,6.4888,6.4888,6.4888,6.4888,6.3318,6.2499,6.2529,6.1154,6.0778,6.1088,6.1734,6.2183,6.2492,6.2802,6.2942,6.2942,6.2942,0.0,6.2942,6.2942,6.2942,6.2942,6.2942,6.2942,6.2942,6.2942,6.2942,0.0,6.0208,5.8929,5.794,0.0,5.4397,5.3822,5.3822,5.3822,5.3822,5.3822,0.0,0.0,0.0,5.0498,4.8912,0.0,0.0,0.0,0.0,0.0,0.0,0.0,0.0,0.0,0.0,0.0,0.0,0.0,0.0,0.0,0.0,3.1271,3.0455,2.9635,2.8642,2.8136,2.8136,2.8136,2.8136,2.8136,2.8136,2.7799,2.6758,2.5896,2.452,2.2622,2.0732,1.9351,1.8497,1.7455,1.7112,1.7112,1.7112,1.7112,1.7112,1.7112,1.7112,1.7112,1.7112,1.7112,1.7112,1.7112,1.7112,1.6936,6.425,6.4218,6.4412,6.5125,6.4835,6.4767,6.5571,6.5198,6.5014,6.5638,6.6133,6.6161,6.5328,6.5623,6.5623,6.5108,6.5108,6.506,6.5072,6.5103,6.5165,6.5288,6.5288,6.5288,6.5288,6.5288,6.5288,6.5288,6.3917,6.3207,6.3207,6.1839,6.1537,6.2015,6.2127,6.2464,6.2942,6.2942,6.2942,6.2942,0.0,6.2942,6.2942,6.2942,6.2942,6.2942,6.2942,6.2942,6.2942,6.2942,6.2942,6.2648,6.0784,5.9349,0.0,0.0,0.0,5.3822,0.0,0.0,0.0,0.0,0.0,5.302,0.0,0.0,0.0,0.0,0.0,0.0,0.0,0.0,0.0,0.0,0.0,0.0,0.0,0.0,0.0,0.0,0.0,0.0,0.0,3.0289,2.9802,2.8305,2.8136,2.8136,2.8136,2.8136,2.8136,2.8136,2.7799,2.6927,2.5385,2.4691,2.2794,1.9873,1.9525,1.8488,1.7112,1.7112,1.7112,1.7112,1.7112,1.7112,1.7112,1.7112,1.7112,1.7112,1.7112,1.7112,1.7112,1.7112,1.6928,1.6577,6.5027,6.4898,6.5157,6.5869,6.5869,6.6128,6.6839,6.6438,6.6186,6.6501,6.6098,6.5915,6.6374,6.648,6.6268,6.57,6.5592,6.5654,6.575,6.578,6.6057,6.6673,6.6673,6.6673,6.6673,6.6673,6.6673,6.6673,6.4814,6.3885,6.3885,6.2466,6.1931,6.2043,6.2577,6.2858,6.2942,6.2942,6.2942,0.0,6.2942,6.2942,0.0,6.2942,6.2942,6.2942,6.2942,6.2942,6.2942,0.0,6.2942,6.2354,0.0,5.8507,5.7798,5.4967,5.3972,5.3822,0.0,0.0,0.0,0.0,5.3822,0.0,0.0,0.0,4.8143,4.6244,0.0,0.0,0.0,0.0,0.0,0.0,0.0,0.0,0.0,0.0,0.0,0.0,0.0,0.0,0.0,0.0,2.8473,2.8136,2.8136,2.8136,2.8136,2.8136,2.8136,2.8136,2.6588,2.5556,2.5373,2.2105,2.0395,1.9873,1.8147,1.7279,1.7112,1.7112,1.7112,1.7112,1.7112,1.7112,1.7112,1.7112,1.7112,1.7112,1.7112,1.7112,1.7112,1.7112,1.6393,1.5154,6.5708,6.5643,6.5869,6.6614,6.6744,6.6971,6.7651,6.7548,6.717,6.6659,6.6691,6.6712,6.6695,6.665,6.6698,6.6854,0.0,6.69,0.0,0.0,6.692,6.6888,6.6919,6.6919,6.6919,6.6919,6.666,6.6052,6.4963,6.4165,6.3698,6.2863,6.2549,6.2549,6.283,6.2942,6.2942,6.2942,6.2942,0.0,0.0,0.0,0.0,6.2942,6.2942,6.2942,6.2942,6.2942,6.2781,0.0,6.1626,0.0,0.0,0.0,0.0,5.4397,5.3822,5.3822,0.0,0.0,0.0,0.0,0.0,0.0,5.0498,0.0,4.7985,0.0,0.0,0.0,0.0,0.0,0.0,0.0,4.0016,0.0,0.0,0.0,0.0,0.0,0.0,0.0,0.0,0.0,0.0,0.0,0.0,2.8136,2.8136,2.8136,2.7617,2.6588,2.5896,2.4349,2.2277,2.0732,1.9361,1.8322,1.7455,1.7112,1.7112,1.7112,1.7112,1.7112,1.7112,1.7112,1.7112,1.7112,1.7112,1.7112,1.7112,1.7112,1.6936,1.6217,1.5506,1.4801,6.6679,6.6517,6.6614,6.7327,6.7456,6.7618,6.8136,6.8101,6.7861,6.7364,6.7396,6.7441,6.7463,6.7448,6.7637,6.8029,6.8202,6.8265,0.0,0.0,6.7909,6.7672,6.7557,6.7442,6.7442,6.7442,6.7096,6.6334,6.5588,6.4839,6.4086,6.3215,6.2942,6.2942,6.2942,6.2942,6.2942,0.0,6.2942,6.2942,6.2942,6.2942,6.2942,6.2942,6.2942,6.2942,6.2942,6.2942,6.2648,6.1057,6.062,0.0,5.7107,0.0,5.5826,5.4248,5.3822,5.3822,5.3822,0.0,0.0,0.0,0.0,0.0,0.0,0.0,0.0,0.0,0.0,0.0,0.0,0.0,4.1345,4.0292,0.0,3.8426,0.0,0.0,0.0,0.0,0.0,0.0,0.0,0.0,0.0,2.8136,2.8136,2.8136,2.8136,2.7799,2.6758,2.5385,2.4349,2.2622,1.9873,1.9361,1.8497,1.7112,1.7112,1.7112,1.7112,1.7112,1.7112,1.7112,1.7112,1.7112,1.7112,1.7112,1.7112,1.7112,1.7112,1.6928,1.6401,1.533,1.4448,1.3558,6.8136,6.7618,6.7359,6.8039,6.8169,6.8169,6.8201,6.7797,6.785,6.9071,0.0,0.0,0.0,0.0,0.0,0.0,0.0,6.9542,6.9588,0.0,6.9038,0.0,0.0,6.8828,0.0,6.8828,6.8828,6.8828,6.6849,6.586,6.5764,6.3777,6.2942,6.2942,6.2942,6.2942,6.2942,6.2942,6.2942,6.2942,6.2942,6.2942,6.2942,0.0,6.2942,6.2942,6.2942,0.0,0.0,6.1057,6.062,0.0,0.0,0.0,0.0,0.0,0.0,0.0,0.0,0.0,0.0,5.3822,0.0,0.0,0.0,0.0,4.5818,0.0,0.0,0.0,0.0,4.1816,4.1503,4.0586,3.8724,0.0,0.0,0.0,0.0,0.0,0.0,0.0,0.0,0.0,0.0,2.8136,2.8136,2.8136,2.8136,2.6418,2.5373,2.5373,2.1943,2.0047,1.9873,1.8147,1.7112,1.7112,1.7112,1.7112,1.7112,1.7112,1.7112,1.7112,1.7112,1.7112,1.7112,1.7112,1.7112,1.7112,1.7112,1.6217,1.4977,1.4977,1.3205,1.0905,6.8201,6.8007,6.791,6.8169,6.8201,6.8201,6.8201,6.8489,6.8807,0.0,0.0,0.0,0.0,6.988,6.9854,0.0,0.0,7.0754,7.0346,7.0123,0.0,0.0,0.0,6.8889,0.0,0.0,6.8268,6.6909,6.6263,6.5163,6.3908,6.3178,6.2942,6.2942,6.2942,6.2942,0.0,0.0,0.0,0.0,0.0,6.2942,6.2942,0.0,0.0,6.2942,6.2942,6.222,0.0,5.9654,5.8507,5.7251,5.5263,5.4546,5.4546,5.3972,5.3822,0.0,0.0,0.0,5.3822,5.3822,0.0,0.0,0.0,0.0,0.0,0.0,0.0,0.0,0.0,4.1562,4.1172,4.0529,3.8901,3.7117,0.0,0.0,0.0,0.0,0.0,0.0,0.0,0.0,0.0,2.8136,2.7109,2.6418,0.0,2.452,2.2966,2.177,2.0558,1.9361,1.7972,1.7455,1.7112,1.7112,1.7112,1.7112,1.7112,1.7112,1.7112,1.7112,1.7112,1.7112,1.7112,1.7112,1.7112,1.6936,1.6042,1.4801,1.3565,1.3565,1.2325,1.055,6.8201,6.8201,6.8201,6.8201,6.8428,6.859,6.859,0.0,0.0,0.0,6.9881,0.0,7.0812,0.0,7.0663,0.0,7.183,7.1689,7.1029,7.0838,0.0,6.924,6.9006,0.0,0.0,0.0,0.0,6.6417,6.6044,6.5036,6.3413,6.3046,6.2942,6.2942,6.2942,6.2942,6.2942,6.2942,6.2942,0.0,0.0,6.2942,0.0,0.0,6.2942,6.2781,0.0,6.1491,6.0345,5.8224,5.6963,5.5826,5.4248,5.3822,5.3822,5.3822,5.3822,5.3822,5.3822,5.3822,0.0,5.302,5.1462,0.0,4.8042,0.0,0.0,0.0,0.0,0.0,0.0,4.1348,4.0841,3.9707,3.8091,3.5833,0.0,2.9955,0.0,0.0,0.0,0.0,0.0,0.0,2.7848,2.7266,2.5979,2.4937,0.0,0.0,2.1078,1.9873,1.9186,1.8322,1.7112,1.7112,1.7112,1.7112,1.7112,1.7112,1.7112,1.7112,1.7112,1.7112,1.7112,1.7112,1.7112,1.7112,1.6753,1.6217,1.533,1.3742,1.2154,1.2154,1.1266,0.9669,6.8234,6.8266,6.8298,6.8298,6.8881,0.0,0.0,0.0,7.0695,0.0,7.0878,7.0844,7.1625,7.1689,7.1689,7.1689,7.2154,7.2262,7.158,7.1029,0.0,0.0,6.924,6.9006,6.9006,0.0,0.0,0.0,6.6417,6.5387,6.4268,6.3282,6.2942,6.2942,6.2942,6.2942,6.2942,6.2942,6.2942,6.2942,6.2942,6.2942,6.2942,6.2942,0.0,6.2648,6.1193,6.0483,6.007,5.7107,5.6118,5.5679,5.4248,5.3822,5.3822,5.3822,5.3822,5.3822,5.3822,5.3672,5.3346,5.1731,0.0,0.0,0.0,0.0,4.2285,0.0,0.0,0.0,0.0,0.0,4.0529,3.8268,3.6316,3.3708,2.9481,2.8473,2.8123,0.0,0.0,0.0,0.0,2.7856,2.6955,2.5495,2.4951,2.4071,0.0,0.0,1.9671,1.9671,1.7947,1.7088,1.7096,1.7096,1.7104,1.7112,1.7112,1.7112,1.7112,1.7112,1.7112,1.7112,1.7112,1.7112,1.7112,1.7112,1.6217,1.4977,1.4977,1.3205,1.055,1.055,0.9669,0.8607,6.9011,6.9464,6.9853,0.0,6.9982,7.0112,0.0,0.0,0.0,0.0,7.1755,7.2068,7.2262,7.2262,7.2262,7.2262,7.2401,0.0,0.0,0.0,0.0,7.0501,6.9901,6.9588,6.9588,6.9123,6.8029,6.6293,0.0,6.5036,6.3282,6.3046,6.2942,6.2942,6.2942,6.2942,6.2942,6.2942,6.2942,6.2942,6.2942,6.2942,0.0,0.0,6.222,6.1193,6.0756,5.9931,5.8648,5.6674,5.541,5.4248,5.3972,5.3822,5.3822,5.3822,5.3822,5.3822,5.3822,5.2869,5.1838,5.101,4.8454,4.6111,0.0,0.0,0.0,0.0,0.0,0.0,0.0,0.0,0.0,3.8724,3.5655,3.2412,2.9649,2.8799,0.0,2.7816,0.0,0.0,2.7622,2.6556,2.544,2.4984,2.2392,0.0,0.0,0.0,0.0,1.7391,1.7057,1.6779,1.6917,1.6917,1.6982,1.7112,1.7112,1.7112,1.7112,1.7112,1.7112,1.7112,1.7112,1.7112,1.7112,1.7112,1.6217,1.4977,1.3918,1.1621,0.9139,0.9139,0.896,0.8429,6.9788,7.0338,0.0,7.0857,0.0,0.0,7.0889,0.0,0.0,7.1893,7.2249,0.0,7.2508,7.2508,7.2508,7.2508,7.2508,0.0,7.158,0.0,0.0,7.0356,7.0016,6.9672,6.9472,6.8623,0.0,6.5919,0.0,6.4396,6.2942,6.2942,6.2942,6.2942,6.2942,6.2942,6.2942,6.2942,6.2942,6.2942,6.2942,6.2487,0.0,6.1647,6.0674,5.9227,5.8243,5.7484,5.6867,5.5331,5.4058,5.3149,5.3149,5.3317,5.3485,5.3485,5.3654,5.3672,5.2869,5.1921,5.0597,4.8919,4.6663,4.4762,4.3751,4.2604,4.1523,0.0,0.0,0.0,0.0,0.0,0.0,3.6797,3.3544,3.0895,2.9466,0.0,0.0,0.0,2.6423,0.0,2.6134,2.4637,2.3465,2.3442,2.096,0.0,0.0,0.0,0.0,1.6584,1.6584,1.6633,1.673,1.673,1.682,1.6998,1.6998,1.7039,1.7112,1.7112,1.7112,1.7112,1.7112,1.7112,1.7112,1.6401,1.5337,1.3918,1.1799,1.0026,0.8607,0.8071,0.8071,0.7889,7.0662,7.1148,0.0,0.0,0.0,0.0,0.0,7.2087,0.0,7.2508,0.0,7.2508,7.2508,7.2508,7.2508,7.2508,0.0,7.2262,7.1689,7.1689,7.125,7.0243,7.0016,6.9787,6.9123,6.7998,6.7031,0.0,6.4909,6.3908,6.2942,6.2942,6.2942,6.2942,6.2942,6.2942,6.2942,6.2942,6.2886,6.2802,6.2536,6.1623,6.0348,5.9697,5.8529,5.6928,5.5152,5.4762,5.4902,5.3522,5.2668,5.2283,5.2283,5.2596,5.2956,5.2956,5.3269,5.3306,5.1569,5.0636,4.9508,4.6185,4.4638,4.3596,4.2034,4.1426,4.1172,4.1172,4.1172,4.1172,0.0,0.0,0.0,3.374,3.1256,0.0,0.0,0.0,0.0,0.0,0.0,0.0,2.4316,2.2701,2.1653,0.0,0.0,0.0,0.0,0.0,0.0,1.6511,1.6511,0.0,1.6544,0.0,1.6633,1.682,1.6844,1.6933,1.708,1.7096,1.7112,1.7112,1.7112,1.7112,1.6936,1.5513,1.4095,1.2331,0.9674,0.8607,0.8429,0.7535,0.7173,0.6994,7.2022,0.0,0.0,0.0,0.0,7.2443,7.2346,7.2411,7.2508,7.2508,7.2508,7.2508,7.2508,7.2508,7.2508,7.2508,7.2508,0.0,0.0,0.0,0.0,7.2046,7.158,7.1029,7.0388,6.8914,6.7457,0.0,0.0,6.3908,6.2942,6.2942,6.2942,6.2942,6.2942,6.2942,6.2942,6.2942,0.0,6.2052,6.091,5.9912,5.9021,5.7807,5.6383,5.4986,5.4603,5.4486,5.4445,5.2962,5.2355,5.2283,5.2283,5.2331,5.2427,5.2427,5.2475,5.223,5.0526,4.908,4.74,4.5167,4.3427,4.2014,4.1523,4.123,4.1172,4.1172,4.1172,4.0685,3.9374,0.0,0.0,0.0,0.0,0.0,0.0,0.0,0.0,0.0,0.0,2.4209,0.0,0.0,0.0,0.0,0.0,0.0,0.0,0.0,0.0,0.0,0.0,0.0,0.0,0.0,1.6446,1.6633,1.6779,1.6868,1.6901,1.7047,1.7112,1.7112,1.7112,1.7112,1.6936,1.5513,1.3388,1.0911,0.9317,0.8607,0.8429,0.7535,0.6637,0.592,7.2443,0.0,0.0,0.0,0.0,0.0,0.0,7.2508,0.0,7.2508,7.2508,7.2508,7.2508,7.2508,7.2508,7.2508,7.2508,7.2508,7.2508,7.2508,7.2154,7.1612,7.1282,7.0694,6.9818,6.7968,6.6634,6.5919,0.0,6.3413,6.2942,6.2942,6.2942,6.2914,6.2605,6.2268,0.0,0.0,0.0,6.1407,5.9984,5.8698,5.7595,5.5916,5.4289,5.2902,5.2632,5.2509,5.2441,5.2042,5.1682,5.1465,5.1465,5.1658,5.1874,5.1874,5.1459,5.0741,4.9028,4.716,4.5412,4.3522,4.2249,4.1426,4.1211,4.1172,4.1172,4.1172,4.1172,4.0353,3.7755,3.5036,0.0,0.0,0.0,0.0,0.0,0.0,2.7241,0.0,0.0,0.0,0.0,0.0,0.0,0.0,0.0,0.0,0.0,0.0,0.0,0.0,0.0,0.0,0.0,0.0,0.0,1.6438,1.6527,1.6665,1.6852,1.6942,1.7023,1.7112,1.7112,1.6753,1.5866,1.3735,1.1438,0.9491,0.8786,0.8607,0.8429,0.6994,0.6099,0.5562,0.0,7.2508,0.0,0.0,7.2508,0.0,7.2508,7.2508,7.2508,7.2508,7.2508,7.2508,7.2508,7.2508,7.2508,7.2508,7.2508,7.2508,7.2508,7.2508,7.2046,7.0949,7.0917,7.0356,6.9123,6.7123,6.6014,0.0,0.0,0.0,6.2942,6.2802,6.2661,0.0,0.0,0.0,0.0,0.0,6.0875,6.0348,5.8826,5.7356,5.5701,5.3747,5.2386,5.1273,5.0864,5.0696,5.0768,5.1177,5.1056,5.0696,5.0696,5.0984,5.1321,5.0866,5.0256,4.9182,4.7029,4.5396,4.3762,4.2112,4.1426,4.1172,4.1172,4.1172,4.1016,4.0685,4.0021,3.8566,3.5994,3.3613,0.0,0.0,0.0,0.0,0.0,0.0,0.0,0.0,0.0,0.0,2.1383,0.0,0.0,0.0,0.0,0.0,0.0,0.0,0.0,0.0,0.0,1.6048,1.6048,0.0,1.6113,0.0,1.6284,1.6454,1.6738,1.682,1.6925,1.7055,1.6737,1.569,1.3912,1.1616,0.9847,0.8607,0.8607,0.8607,0.8429,0.6637,0.592,0.5562,0.0,0.0,0.0,0.0,0.0,0.0,0.0,7.2508,7.2508,7.2508,7.2508,7.2508,7.2508,7.2508,7.2508,7.2508,7.2508,7.2508,7.2508,7.2508,7.2154,7.158,7.147,7.0917,6.9672,6.7698,6.6481,0.0,0.0,6.2942,0.0,6.2352,0.0,0.0,0.0,0.0,0.0,6.1088,6.0079,5.82,5.669,5.5028,5.2955,5.159,5.091,5.0768,5.072,5.0696,5.072,5.0768,5.0744,5.0696,5.0696,5.0744,5.0484,4.898,4.8569,4.784,4.4718,4.3788,4.3157,4.1677,4.1211,4.1172,4.1172,4.1172,4.0685,3.9216,3.5977,3.356,3.3576,3.169,2.9871,0.0,0.0,0.0,0.0,0.0,2.6901,2.6386,0.0,0.0,0.0,2.106,0.0,0.0,0.0,0.0,0.0,0.0,0.0,1.6048,0.0,1.6048,1.6048,1.6048,0.0,1.6073,1.6227,1.6324,1.6365,1.6698,1.686,1.6711,1.5622,1.3558,1.1083,1.0728,0.9847,0.8607,0.8607,0.8607,0.8429,0.7352,0.6458,0.5562,0.0,0.0,0.0,0.0,0.0,0.0,0.0,7.2508,7.2508,7.2508,7.2508,7.2508,7.2508,7.2508,7.2508,7.2508,7.2508,7.2508,7.2508,7.2154,7.1721,7.1029,7.0694,6.987,6.8356,6.7001,6.589,0.0,0.0,0.0,0.0,0.0,0.0,0.0,0.0,6.0301,5.9964,5.9017,5.8208,5.7315,5.5013,5.3529,5.2666,5.1236,5.0696,5.0696,5.0696,5.0696,5.0696,5.0696,5.0696,5.0696,5.0696,5.0104,4.9198,4.8453,4.6971,4.517,4.3835,4.279,4.1907,4.1327,4.1172,4.1172,4.1172,4.1172,4.0685,3.8882,3.5655,3.3022,3.2817,3.0899,2.9243,0.0,0.0,0.0,0.0,0.0,0.0,2.6386,0.0,2.2671,0.0,0.0,0.0,0.0,0.0,0.0,0.0,0.0,0.0,1.6048,0.0,1.6048,1.6048,1.6048,1.6048,1.6048,1.6113,1.6202,1.6308,1.6568,1.6278,1.56,1.3362,1.1793,1.055,0.9847,0.9139,0.8607,0.8607,0.8607,0.8429,0.6815,0.6099,0.5562,7.2508,0.0,7.2508,0.0,7.2508,7.2508,7.2508,7.2508,7.2508,7.2508,7.2508,7.2508,7.2508,7.2508,7.2508,7.2508,7.2508,7.2508,7.2508,7.2154,7.147,7.0726,7.0243,0.0,6.7427,6.6417,6.5416,6.4396,6.3413,0.0,0.0,0.0,0.0,0.0,5.9879,5.9626,5.908,5.7761,5.6807,5.626,5.3733,5.2529,5.2,5.1095,5.0696,5.0696,5.0696,5.0696,5.0696,5.0696,5.0412,4.9961,4.9961,4.9198,4.8163,4.7118,4.5319,4.338,4.2943,4.2062,4.1172,4.1172,4.1172,4.1172,4.1172,4.0841,3.9864,3.7596,3.4456,3.2227,3.1655,3.0145,2.8593,2.796,0.0,0.0,0.0,0.0,0.0,2.6386,2.4283,2.235,2.1383,1.8961,0.0,0.0,0.0,0.0,0.0,0.0,0.0,0.0,0.0,0.0,0.0,1.6048,1.6048,1.6048,1.6048,1.6113,1.6235,1.6132,1.5182,1.3676,1.1599,1.0555,1.0021,0.896,0.8607,0.8607,0.8607,0.8429,0.8071,0.6637,0.5741,0.5025,7.2508,7.2508,7.2508,7.2508,7.2508,7.2508,7.2508,7.2508,7.2508,7.2508,7.2508,7.2508,7.2508,7.2508,7.2508,7.2508,7.2508,7.2508,7.2508,7.2508,7.1938,0.0,0.0,6.9672,6.7427,6.6417,6.5416,6.4396,0.0,0.0,6.1987,0.0,0.0,5.9233,5.9233,5.9233,5.908,5.7761,5.626,5.4782,5.3326,5.2,5.0696,5.0696,5.0696,5.0696,5.0696,5.0696,5.0696,5.0696,4.9652,4.8308,4.8308,4.8308,4.7726,4.444,4.3532,4.3248,4.1618,4.1172,4.1172,4.1172,4.1172,4.1172,4.1172,3.9864,3.7596,3.4229,3.1541,2.9707,2.9707,2.8853,2.795,2.7643,0.0,0.0,0.0,0.0,0.0,2.6386,2.6386,2.4933,2.1534,0.0,0.0,0.0,0.0,0.0,0.0,0.0,0.0,1.6048,1.6048,0.0,1.6048,1.6048,1.6048,1.6048,1.6048,1.6048,1.5899,1.5049,1.3044,1.0745,1.0682,0.9847,0.8607,0.8607,0.8607,0.8607,0.8607,0.8071,0.7173,0.7173,0.592,0.4307,7.2508,7.2508,7.2508,7.2508,7.2508,7.2508,7.2508,7.2508,7.2508,7.2508,7.2508,7.2508,7.2508,7.2508,7.2508,0.0,7.2508,7.2508,0.0,7.2154,7.1721,7.136,7.0917,6.9526,6.7093,6.6727,6.5484,6.3413,0.0,0.0,0.0,6.0526,5.9795,5.9205,5.9205,5.9205,5.908,5.665,5.5314,5.4649,5.2278,5.1095,5.0696,5.0696,5.0696,5.0696,5.0696,5.0696,5.0554,4.9509,4.8766,4.7872,4.5766,4.502,4.4891,4.3835,4.281,4.1773,4.1327,4.1172,4.1172,4.1172,4.1172,4.0841,3.9707,3.6923,3.4338,3.3225,3.1356,2.963,2.9266,2.8556,2.788,2.7209,2.677,0.0,0.0,0.0,2.6386,2.6386,2.4283,2.235,0.0,1.9124,0.0,0.0,0.0,0.0,0.0,0.0,0.0,0.0,1.6048,0.0,1.6048,1.6048,1.6048,1.6048,1.6048,1.5609,1.4725,1.2551,1.1318,1.0564,0.9623,0.896,0.8607,0.8607,0.8607,0.8607,0.7892,0.7531,0.6994,0.5741,0.4845,0.4128,7.2508,7.2508,7.2508,7.2508,7.2508,7.2508,7.2508,7.2508,7.2508,7.2508,7.2508,7.2508,7.2508,7.2508,0.0,7.2508,7.2508,7.2508,7.2508,7.2154,7.1798,7.158,7.0774,6.9232,6.6819,0.0,0.0,6.2942,6.2689,6.2071,6.1088,6.0441,5.9795,5.9205,5.9205,5.8955,5.827,5.5867,5.4649,5.3843,5.1632,5.0696,5.0696,5.0696,5.0696,5.0696,5.0696,5.0246,4.9652,4.8598,4.7558,4.6085,4.4138,4.3096,4.2657,4.2657,4.1907,4.1172,4.1172,4.1172,4.1172,4.1172,4.1172,4.049,3.8049,3.5122,3.2711,3.1941,3.054,2.9312,2.8631,2.8011,2.7554,2.6901,2.6544,2.6386,2.6386,0.0,2.6228,0.0,0.0,0.0,0.0,1.8309,0.0,0.0,0.0,0.0,0.0,0.0,0.0,1.6048,1.6048,0.0,1.6048,1.6048,1.5711,1.5216,1.4713,1.3936,1.2694,1.0965,1.0052,0.9637,0.8867,0.8575,0.8607,0.8607,0.8429,0.8071,0.7352,0.6815,0.592,0.4666,0.4128,0.3769,7.2508,7.2508,0.0,0.0,7.2508,0.0,7.2508,7.2508,7.2508,7.2508,7.2508,7.2508,7.2508,7.2508,7.2508,7.2508,0.0,0.0,0.0,7.2508,7.2262,7.1689,7.0406,0.0,6.6941,6.5639,6.4296,6.2942,6.2324,6.1706,6.1088,6.0441,5.9795,5.9205,5.9205,5.8424,5.6936,5.5604,5.4113,5.2666,5.1211,5.0696,5.0696,5.0696,5.0696,5.0696,5.0696,4.9652,4.8308,4.8163,4.6063,4.3532,4.34,4.237,4.1172,4.1172,4.1172,4.1172,4.1172,4.1172,4.1172,4.1172,4.0997,3.9888,3.6114,3.3947,3.2102,3.0203,2.9268,2.8719,2.8227,2.7527,2.686,2.6544,2.6386,2.6386,2.6386,0.0,2.574,0.0,0.0,0.0,0.0,1.8463,1.7819,0.0,0.0,0.0,0.0,0.0,1.6048,1.6048,1.6048,1.6048,1.6048,1.5875,1.5216,1.388,1.2554,1.1392,1.0065,1.0008,0.9441,0.8338,0.8432,0.8522,0.8607,0.8607,0.8071,0.7352,0.7173,0.6099,0.4307,0.4307,0.3769,0.2874,0.0,0.0,7.2508,7.2508,7.2508,7.2508,7.2508,7.2508,7.2508,7.2508,7.2508,7.2508,7.2508,7.2508,7.2508,7.2508,7.2508,7.2508,7.2508,7.2508,7.2401,7.2262,7.1076,6.9547,6.7877,6.6421,6.4752,6.2942,6.2324,6.1706,6.1088,6.0441,5.9795,5.9205,5.9205,5.8424,5.6936,5.5604,5.4113,5.2666,5.1211,5.0696,5.0696,5.0696,5.0696,5.0696,5.0696,4.9652,4.8163,4.6824,4.517,4.3248,4.2062,4.1463,4.1172,4.1172,4.1172,4.1172,4.1172,4.1172,4.1172,4.1172,3.8993,3.6254,3.3842,3.1666,3.0052,2.9659,2.9237,2.8704,2.8389,2.7847,2.7333,2.686,2.6544,2.6386,2.6386,2.6386,0.0,0.0,2.2682,2.0888,1.8789,1.7337,1.6369,0.0,0.0,0.0,0.0,1.6048,1.6048,1.6048,1.6048,1.6048,1.6048,1.5043,1.388,1.2554,1.122,1.0393,1.0065,0.9169,0.859,0.8338,0.8432,0.8522,0.8607,0.8607,0.8429,0.825,0.7531,0.6458,0.5204,0.4487,0.3769,0.2874,7.2508,7.2508,7.2508,7.2508,7.2508,7.2508,7.2508,7.2508,7.2508,7.2508,7.2508,7.2508,7.2508,7.2508,7.2508,7.2508,7.2508,7.2508,7.2508,7.2508,7.2262,7.1657,7.0375,6.8938,6.7397,6.5831,6.4268,6.2942,6.2605,6.1987,6.1088,6.075,6.0076,5.9205,5.855,5.7478,5.5998,5.4515,5.3189,5.1747,5.0954,5.0696,5.0696,5.0696,5.0696,5.0554,4.9818,4.8598,4.6971,4.5319,4.3684,4.235,4.1463,4.1172,4.1172,4.1172,4.1172,4.1172,4.1172,4.1172,4.0958,3.9949,3.6884,3.3826,3.2537,3.0755,2.9339,2.9178,2.8861,2.8431,2.8118,2.7647,2.7175,2.686,2.6544,2.6386,2.6386,2.574,0.0,2.2843,2.105,1.9277,1.7665,1.6525,1.6048,1.6048,0.0,0.0,1.6048,1.6048,1.6048,1.6048,1.6048,1.6048,1.6048,1.4045,1.2554,1.1225,0.9893,0.9226,0.923,0.845,0.8187,0.8277,0.837,0.846,0.855,0.8591,0.8071,0.7173,0.6637,0.5741,0.4307,0.3769,0.3412,0.2874,7.2508,7.2508,7.2508,7.2508,7.2508,7.2508,7.2508,7.2508,7.2508,7.2508,7.2508,7.2508,7.2508,7.2508,7.2508,7.2508,7.2508,7.2508,7.2508,7.2262,7.1766,7.0599,6.9201,6.7788,6.6451,6.4781,6.3704,6.2914,6.2914,6.2296,6.1088,6.1088,6.0286,5.8802,5.7606,5.6129,5.4515,5.3326,5.2,5.0696,5.0696,5.0696,5.0696,5.0696,5.0696,5.0554,4.891,4.7265,4.5617,4.3987,4.2503,4.1172,4.1172,4.1172,4.1172,4.1172,4.1133,4.1074,4.1074,4.086,4.0066,3.7714,3.4705,3.2221,3.1715,3.0384,2.9222,2.8944,2.8588,2.8275,2.7633,2.7333,2.686,2.6544,2.6386,2.6386,2.6386,0.0,2.3164,2.1383,1.9592,1.7983,1.6205,1.6048,1.6048,1.6048,1.6048,1.6048,0.0,1.6048,1.6048,1.6048,1.6048,1.5875,1.5711,1.3383,1.1392,1.006,0.8729,0.806,0.806,0.806,0.8113,0.8203,0.8281,0.8201,0.8301,0.8377,0.7342,0.5741,0.5741,0.4666,0.3053,0.3053,0.3053,0.2874,7.2508,7.2508,7.2508,7.2508,7.2508,7.2508,7.2508,7.2508,7.2508,7.2508,7.2508,7.2508,7.2508,7.2508,7.2508,7.2508,7.2508,7.2508,7.2508,7.1548,7.0854,7.0599,6.8382,6.7093,6.6757,6.4938,6.3834,6.3282,6.3046,6.2296,6.1088,6.1088,5.9745,5.7478,5.7221,5.5604,5.3053,5.2916,5.2,5.0696,5.0696,5.0696,5.0696,5.0696,5.0696,5.0554,4.891,4.7265,4.5617,4.3987,4.2503,4.1172,4.1172,4.1172,4.1172,4.1172,4.0918,4.0625,4.0625,3.9395,3.7294,3.3814,3.2452,3.1543,2.9814,2.9115,2.8944,2.89,2.8886,2.8573,2.779,2.7476,2.7319,2.6544,2.6386,2.6386,2.6386,0.0,2.3164,2.1383,1.9592,1.7983,1.6205,1.6048,1.6048,1.6048,1.6048,1.6048,1.6048,1.6048,1.6048,1.6048,1.6048,1.5381,1.4383,1.2886,1.1392,1.006,0.8729,0.806,0.806,0.806,0.8113,0.8199,0.8211,0.7795,0.7237,0.7251,0.6583,0.5741,0.5741,0.5025,0.4128,0.4128,0.3592,0.2874,7.2508,7.2508,7.2508,7.2508,7.2508,7.2508,7.2508,7.2508,7.2508,7.2508,7.2508,7.2508,7.2508,7.2508,7.2508,7.2508,7.2508,7.2262,7.1548,7.0965,7.0262,6.9662,6.7818,6.6387,6.529,6.4454,6.3704,6.3178,6.2914,6.2296,6.1088,6.0255,5.8914,5.7092,5.5472,5.4004,5.2804,5.2,5.1352,5.0696,5.0696,5.0696,5.0696,5.0696,5.0104,4.9198,4.7558,4.5915,4.444,4.281,4.1773,4.1172,4.1172,4.1016,4.082,4.082,4.0684,4.0469,4.0254,3.7986,3.5445,3.3735,3.1868,3.0156,2.9071,2.8886,2.8886,2.8886,2.8886,2.8573,2.779,2.7633,2.7319,2.6544,2.6386,0.0,0.0,2.3484,2.1706,2.0079,1.8309,1.6854,1.6048,1.6048,1.6048,1.6048,1.6048,1.6048,1.6048,1.6048,1.6048,1.6048,1.5381,1.4548,1.4045,1.2056,1.0726,1.006,0.8729,0.806,0.806,0.806,0.8085,0.813,0.8179,0.7929,0.7701,0.7746,0.6928,0.5741,0.5741,0.4845,0.3592,0.3592,0.3233,0.2874,7.2508,7.2508,7.2508,7.2508,7.2508,7.2508,7.2508,7.2508,7.2508,7.2508,7.2508,7.2508,7.2508,7.2508,7.2508,7.2508,7.2508,7.1906,7.0711,7.0375,6.9547,6.8382,6.7093,6.5794,6.4224,6.4095,6.3704,6.3178,6.2773,6.2155,6.1088,5.9407,5.7938,5.6547,5.4004,5.2666,5.2278,5.1236,5.0696,5.0696,5.0696,5.0696,5.0696,5.0246,4.9365,4.8018,4.6063,4.4591,4.3248,4.1773,4.1172,4.1152,4.1055,4.0801,4.0508,4.041,3.9988,3.9509,3.8728,3.6479,3.4026,3.3259,3.1058,2.8886,2.8886,2.8886,2.8886,2.8886,2.89,2.8573,2.779,2.7476,2.7162,2.6544,0.0,0.0,0.0,2.235,2.0565,1.8789,1.7009,1.6048,1.6048,1.6048,1.6048,1.6048,1.6048,1.6048,1.6048,1.6048,1.5875,1.5546,1.4548,1.4045,1.4045,1.1386,1.006,1.006,0.8729,0.806,0.806,0.806,0.806,0.8064,0.8138,0.8049,0.7619,0.7701,0.6725,0.5008,0.502,0.4128,0.2874,0.2874,0.2874,0.2694,7.2508,7.2508,7.2508,7.2508,7.2508,7.2508,7.2508,7.2508,7.2508,7.2508,7.2508,7.2508,7.2508,7.2508,7.2508,7.2508,7.2508,7.1906,7.0711,6.9547,6.8264,6.7123,6.5823,6.5094,6.4996,6.4354,6.3965,6.3965,6.2614,6.1734,6.1088,5.8996,5.7007,5.5049,5.3462,5.2139,5.0837,5.0696,5.0696,5.0696,5.0696,5.0696,5.0554,4.9054,4.8453,4.7872,4.472,4.3532,4.3248,4.1773,4.1172,4.1094,4.0703,4.0547,4.0449,4.0059,3.8557,3.6691,3.5269,3.4229,3.3028,2.9989,2.9056,2.8886,2.8886,2.8886,2.8886,2.8886,2.8588,2.8118,2.7633,2.7333,2.6874,2.6386,0.0,0.0,2.3976,2.235,2.0565,1.8789,1.7009,1.6048,1.6048,1.6048,1.6048,1.6048,1.6048,1.6048,1.6048,1.6048,1.5381,1.421,1.4045,1.4045,1.4045,1.1386,1.006,1.006,0.8729,0.806,0.806,0.806,0.806,0.806,0.8068,0.7109,0.5651,0.5712,0.4728,0.3011,0.3042,0.3053,0.2874,0.2874,0.2874,0.2694,7.2508,7.2508,7.2508,7.2508,7.2508,7.2508,7.2508,7.2508,7.2508,7.2508,7.2508,7.2508,7.2508,7.2508,7.2508,7.2508,7.2508,7.1657,6.9547,6.8938,6.7788,6.5823,6.5222,6.4868,6.474,6.3823,6.3236,6.3106,6.1993,6.07,5.9126,5.7542,5.5625,5.3598,5.2139,5.1236,5.0696,5.0696,5.0696,5.0696,5.0696,5.0104,4.9198,4.8453,4.7118,4.517,4.3987,4.2943,4.1868,4.0994,4.0781,4.0703,4.0273,3.9941,3.946,3.797,3.698,3.5785,3.3212,3.2348,3.1928,3.0716,2.9649,2.8886,2.8886,2.8886,2.8886,2.8886,2.8588,2.8118,2.7633,2.7333,2.6874,2.6386,0.0,2.5422,2.251,2.1545,2.0089,1.7337,1.6369,1.6048,1.6048,1.6048,1.6048,1.6048,1.6048,1.6048,1.6048,1.6048,1.5381,1.4045,1.3217,1.2886,1.2886,1.0226,0.9226,1.006,0.8729,0.806,0.806,0.806,0.806,0.806,0.7558,0.693,0.6325,0.5665,0.4867,0.3712,0.3728,0.3393,0.2874,0.2874,0.2334,0.1256,7.2508,7.2508,7.2508,7.2508,7.2508,7.2508,7.2508,7.2508,7.2508,7.2508,7.2508,7.2508,7.2508,7.2508,7.2508,7.2508,7.2122,7.0965,6.8821,6.8026,6.6727,6.5094,6.4996,6.4781,6.4323,6.3606,6.2908,6.2324,6.1472,5.9857,5.796,5.6292,5.4634,5.2804,5.1352,5.0696,5.0696,5.0696,5.0696,5.0696,5.0104,4.9342,4.8163,4.7118,4.5468,4.3359,4.2779,4.1842,4.0898,4.0469,4.0332,4.0254,3.9805,3.9375,3.8651,3.6701,3.5867,3.4804,3.2097,3.087,3.0577,3.0577,2.9649,2.8886,2.8886,2.8886,2.8886,2.8744,2.8431,2.7961,2.749,2.7018,2.6702,2.6386,2.5911,2.4614,2.1545,2.0737,1.9277,1.6369,1.6048,1.6048,1.6048,1.6048,1.6048,1.6048,1.6048,1.6048,1.6048,1.6048,1.5216,1.3383,1.2554,1.1724,1.0893,0.9059,0.8562,0.9392,0.8562,0.806,0.806,0.806,0.7893,0.7558,0.7056,0.6411,0.5951,0.529,0.4484,0.3851,0.3878,0.3373,0.286,0.2871,0.1974,0.0538,7.2508,7.2508,7.2508,7.2508,7.2508,7.2508,7.2508,7.2508,7.2508,7.2508,7.2508,7.2508,7.2508,7.2508,7.2508,7.2508,7.1328,7.0004,6.8705,6.6387,6.4967,6.4967,6.4967,6.4677,6.4038,6.363,6.306,6.2079,6.1046,5.9667,5.7933,5.5869,5.4113,5.2641,5.1352,5.0696,5.0696,5.0696,5.0696,5.0554,4.891,4.8308,4.7872,4.472,4.3532,4.3166,4.1257,4.0527,4.0449,4.0039,3.9883,3.9805,3.9336,3.8906,3.8263,3.6608,3.4954,3.3281,3.1791,3.0114,2.8886,2.8886,2.8886,2.8886,2.8886,2.8886,2.8744,2.8446,2.7961,2.7476,2.7018,2.6702,2.6386,2.6386,2.4945,2.3164,2.1383,1.9755,1.7983,1.6205,1.6048,1.6048,1.6048,1.6048,1.6048,1.6048,1.6048,1.6048,1.6048,1.6048,1.4878,1.2222,1.2056,1.0893,0.8064,0.806,0.806,0.806,0.806,0.806,0.806,0.806,0.7558,0.6721,0.6721,0.5712,0.404,0.4085,0.3591,0.2744,0.2804,0.2829,0.2831,0.2863,0.1974,0.0538,7.2508,7.2508,7.2508,7.2508,7.2508,7.2508,7.2508,7.2508,7.2508,7.2508,7.2508,7.2508,7.2508,7.2508,7.2154,7.1186,7.0822,6.9662,6.7578,6.5506,6.4328,6.4328,6.4328,6.4038,6.3399,6.2284,6.116,5.9918,5.8668,5.6789,5.437,5.3674,5.2666,5.1352,5.0837,5.0696,5.0696,5.0696,5.0104,4.891,4.8453,4.6971,4.4849,4.3481,4.2342,4.1237,4.0386,4.0078,4.0019,3.9551,3.9414,3.9336,3.8906,3.792,3.6608,3.4954,3.3297,3.1638,3.0114,2.9197,2.8886,2.8886,2.8886,2.8886,2.8886,2.8744,2.8431,2.8289,2.7647,2.7175,2.7032,2.6702,2.6386,2.6386,2.4945,2.3164,2.1383,1.9755,1.7983,1.6205,1.6048,1.6048,1.6048,1.6048,1.6048,1.6048,1.6048,1.6048,1.6048,1.6048,1.4878,1.2222,1.2056,1.0893,0.8064,0.806,0.806,0.806,0.806,0.806,0.806,0.806,0.7893,0.7558,0.6385,0.5544,0.4875,0.3713,0.2888,0.274,0.2758,0.2791,0.2653,0.1772,0.0535,-0.0897,7.2508,7.2508,7.2508,7.2508,7.2508,7.2508,7.2508,7.2508,7.2508,7.2508,7.2508,7.2508,7.2508,7.2508,7.2014,7.0711,6.9412,6.7867,6.5907,6.448,6.3545,6.3283,6.3283,6.2956,6.2485,6.1154,5.9781,5.8484,5.7098,5.5181,5.2779,5.2779,5.2,5.0696,5.0696,5.0696,5.0696,5.0696,4.9795,4.8308,4.7558,4.5657,4.3091,4.2241,4.1303,4.0215,3.9785,3.9629,3.9551,3.9101,3.8945,3.8759,3.7901,3.6922,3.5718,3.3449,3.2081,3.087,2.9353,2.8886,2.8886,2.8886,2.8886,2.8886,2.8886,2.8744,2.8431,2.8118,2.7647,2.7175,2.686,2.6544,2.6228,2.5422,2.3964,2.2189,2.0403,1.8626,1.7173,1.6205,1.6048,1.6048,1.6048,1.6048,1.6048,1.6048,1.6048,1.6048,1.6048,1.5546,1.4217,1.2222,1.1558,1.0226,0.806,0.806,0.806,0.806,0.806,0.806,0.806,0.7725,0.7391,0.6888,0.5544,0.4707,0.4204,0.3197,0.2703,0.2721,0.2733,0.2767,0.2635,0.1234,-0.0178,-0.1614,7.2508,7.2508,7.2508,7.2508,7.2508,7.2508,7.2508,7.2508,7.2508,7.2508,7.2508,7.2508,7.2508,7.2369,7.1798,7.0487,6.7535,6.5162,6.3951,6.3341,6.2732,6.2122,6.2035,6.1762,6.127,6.0062,5.874,5.7451,5.5972,5.4247,5.2666,5.2666,5.1886,5.0696,5.0696,5.0696,5.0696,5.0696,4.9628,4.7949,4.6463,4.455,4.2529,4.1019,4.0176,3.9766,3.9316,3.9141,3.9082,3.8711,3.8574,3.8117,3.6608,3.6015,3.5103,3.225,3.1178,3.0716,2.9353,2.8886,2.8886,2.8886,2.8886,2.8886,2.8886,2.8886,2.8573,2.779,2.7633,2.7319,2.6544,2.6228,2.5581,2.4136,2.2189,2.0403,1.8789,1.7173,1.6048,1.6048,1.6048,1.6048,1.6048,1.6048,1.6048,1.6048,1.6048,1.6048,1.6048,1.4713,1.3383,1.2222,1.0726,0.9392,0.806,0.806,0.806,0.806,0.806,0.806,0.7893,0.7056,0.6218,0.5376,0.4372,0.3532,0.2861,0.2692,0.2692,0.2695,0.2722,0.258,0.2435,0.1054,-0.0355,-0.1791,7.2508,7.2508,7.2508,7.2508,7.2508,7.2508,7.2508,7.2508,7.2508,7.2508,7.2508,7.2508,7.2508,7.1657,7.0487,6.917,6.6251,6.4056,6.3312,6.2674,6.2238,6.2093,6.1658,6.061,5.8913,5.8507,5.7661,5.6206,5.4381,5.2666,5.1095,5.1095,5.0954,5.0696,5.0696,5.0696,5.0696,5.0696,4.8821,4.5954,4.5515,4.3489,4.0433,3.9778,3.9434,3.9297,3.8867,3.8711,3.8691,3.8613,3.7824,3.6608,3.6312,3.4354,3.225,3.1485,3.0423,2.9353,2.9042,2.8886,2.8886,2.8886,2.8886,2.8886,2.8886,2.8588,2.8275,2.7633,2.7333,2.7018,2.6544,2.5263,2.4295,2.3816,2.1222,1.9105,1.8626,1.7173,1.6048,1.6048,1.6048,1.6048,1.6048,1.6048,1.6048,1.6048,1.6048,1.6048,1.6048,1.4713,1.3549,1.2222,1.0726,0.9392,0.806,0.806,0.806,0.806,0.806,0.7725,0.7056,0.6721,0.6218,0.5376,0.4372,0.3868,0.37,0.3029,0.2692,0.2692,0.2699,0.204,0.1031,-0.0521,-0.1931,-0.3193,7.2508,7.2508,7.2508,7.2508,7.2508,7.2508,7.2508,7.2508,7.2508,7.2508,7.2508,7.2262,7.1657,7.0965,6.9765,6.757,6.4685,6.2964,6.2645,6.2035,6.1658,6.1658,6.1367,6.0409,5.8592,5.7524,5.6206,5.4355,5.2666,5.1492,5.0696,5.0696,5.0696,5.0696,5.0696,5.0551,5.0311,4.9582,4.7522,4.4866,4.4138,4.2122,3.9531,3.9297,3.9082,3.8867,3.8652,3.8574,3.8574,3.8574,3.7511,3.6015,3.5253,3.3297,3.1178,3.0423,2.9508,2.8886,2.8886,2.8886,2.8886,2.8886,2.8886,2.8886,2.8886,2.8588,2.8118,2.7633,2.7333,2.6544,2.5422,2.4455,2.3324,2.1545,1.9755,1.83,1.7501,1.6525,1.6048,1.6048,1.6048,1.6048,1.6048,1.6048,1.6048,1.6048,1.6048,1.5711,1.5043,1.388,1.2554,1.1225,0.9893,0.8729,0.806,0.806,0.806,0.806,0.806,0.7558,0.6721,0.6214,0.5544,0.4707,0.37,0.3363,0.3363,0.2861,0.2692,0.2692,0.2692,0.1863,0.0513,-0.086,-0.2785,-0.4597,7.2508,7.2508,7.2508,7.2508,7.2508,7.2508,7.2508,7.2508,7.2508,7.2508,7.2508,7.1982,7.0553,6.9979,6.8467,6.5502,6.3285,6.2064,6.1948,6.1483,6.1193,6.1193,6.0952,6.0165,5.8718,5.6596,5.4756,5.2941,5.1492,5.0696,5.0696,5.0696,5.0648,5.0551,5.0551,5.0098,4.9292,4.8004,4.6262,4.3911,4.2627,4.0914,3.9101,3.9101,3.8887,3.8574,3.8574,3.8574,3.8574,3.8574,3.7511,3.5867,3.4203,3.2538,3.1024,2.9353,2.8886,2.8886,2.8886,2.8886,2.8886,2.8886,2.8886,2.8886,2.873,2.8588,2.8118,2.7647,2.7175,2.6386,2.4136,2.3496,2.235,1.9105,1.83,1.7656,1.6205,1.6048,1.6048,1.6048,1.6048,1.6048,1.6048,1.6048,1.6048,1.6048,1.6048,1.5381,1.4045,1.272,1.1558,1.006,0.8729,0.806,0.806,0.806,0.806,0.806,0.806,0.7558,0.6717,0.5879,0.4875,0.3868,0.3029,0.2692,0.2692,0.2692,0.2692,0.2692,0.2524,0.1522,0.0171,-0.1537,-0.3639,-0.5657,7.2508,7.2508,7.2508,7.2508,7.2508,7.2508,7.2508,7.2508,7.2508,7.2508,7.2508,7.1789,7.003,6.735,6.4904,6.275,6.2302,6.1861,6.1367,6.1251,6.1193,6.1193,6.0014,5.8592,5.6882,5.5049,5.4029,5.3759,5.1632,5.0696,5.0696,5.0696,5.0455,4.9974,4.9974,4.8942,4.7306,4.7026,4.5012,4.2,4.171,4.0468,3.8652,3.8652,3.8633,3.8574,3.8574,3.8574,3.8574,3.8574,3.7511,3.5867,3.4203,3.2538,3.1024,2.9353,2.8886,2.8886,2.8886,2.8886,2.8886,2.8886,2.8886,2.8744,2.8431,2.8289,2.8133,2.7189,2.7032,2.6386,2.4136,2.251,2.0888,1.8942,1.7337,1.6205,1.6048,1.6048,1.6048,1.6048,1.6048,1.6048,1.6048,1.6048,1.6048,1.6048,1.6048,1.5381,1.4045,1.272,1.1558,1.006,0.8729,0.806,0.806,0.806,0.806,0.806,0.806,0.7558,0.6717,0.5879,0.4875,0.3868,0.3029,0.2692,0.2692,0.2692,0.2692,0.2524,0.1346,0.0168,-0.1349,-0.3919,-0.5202,-0.5651,7.2508,7.2508,7.2508,7.2508,7.2508,7.2508,7.2508,7.2508,7.2508,7.2508,7.1585,7.0376,6.8839,6.5555,6.2992,6.2122,6.1774,6.1483,6.1222,6.1193,6.0802,6.0014,5.9369,5.8088,5.5762,5.4567,5.3513,5.2742,5.1376,5.0551,5.0239,5.0239,4.995,4.9421,4.8565,4.7539,4.6357,4.4649,4.2799,4.111,4.0266,3.944,3.8574,3.8574,3.8574,3.8574,3.8574,3.8574,3.8574,3.8574,3.6904,3.4654,3.3885,3.1928,2.9804,2.9042,2.8886,2.8886,2.8886,2.8886,2.8886,2.8886,2.8886,2.873,2.8118,2.7961,2.7805,2.7189,2.607,2.4614,2.2671,2.0888,1.9115,1.7501,1.6534,1.6048,1.6048,1.6048,1.6048,1.6048,1.6048,1.6048,1.6048,1.6048,1.6048,1.6048,1.5381,1.4383,1.3052,1.1724,1.0393,0.9063,0.8395,0.806,0.806,0.806,0.806,0.806,0.806,0.7391,0.5882,0.5547,0.4539,0.3195,0.2861,0.2692,0.2692,0.2692,0.2692,0.2524,0.1178,-0.0673,-0.2692,-0.4769,-0.5529,-0.5605]},{"header":{"parameterUnit":"m.s-1","parameterCategory":1,"la1":30.6,"la2":28.766,"lo1":-90.7593,"lo2":-88.6598,"dy":0.0162,"dx":0.0183,"nx":116,"ny":114,"refTime":"2024-03-28T12:00:00:Z","depth":0,"parameterNumber":3,"parameterNumberName":"V-component_of_WINDS"},"data":[0.0,0.0,0.0,0.0,0.0,0.0,0.0,0.0,0.0,0.0,0.0,0.0,0.0,0.0,0.0,0.0,0.0,0.0,0.0,0.0,0.0,0.0,0.0,0.0,0.0,0.0,0.0,0.0,0.0,0.0,0.0,0.0,0.0,0.0,0.0,0.0,0.0,0.0,0.0,0.0,0.0,0.0,0.0,0.0,0.0,0.0,0.0,0.0,0.0,0.0,0.0,0.0,0.0,0.0,0.0,0.0,0.0,0.0,0.0,0.0,0.0,0.0,0.0,0.0,0.0,0.0,0.0,0.0,0.0,0.0,0.0,0.0,0.0,0.0,0.0,0.0,0.0,0.0,0.0,0.0,0.0,0.0,0.0,0.0,0.0,0.0,0.0,0.0,0.0,0.0,0.0,0.0,0.0,0.0,0.0,0.0,0.0,0.0,0.0,0.0,0.0,0.0,0.0,0.0,0.0,0.0,0.0,0.0,0.0,0.0,0.0,0.0,0.0,0.0,0.0,0.0,0.0,0.0,0.0,0.0,0.0,0.0,0.0,0.0,0.0,0.0,0.0,0.0,0.0,0.0,0.0,0.0,0.0,0.0,0.0,0.0,0.0,0.0,0.0,0.0,0.0,0.0,0.0,0.0,0.0,0.0,0.0,0.0,0.0,0.0,0.0,0.0,0.0,0.0,0.0,0.0,0.0,0.0,0.0,0.0,0.0,0.0,0.0,0.0,0.0,0.0,0.0,0.0,0.0,0.0,0.0,0.0,0.0,0.0,0.0,0.0,0.0,0.0,0.0,0.0,0.0,0.0,0.0,0.0,0.0,0.0,0.0,0.0,0.0,0.0,0.0,0.0,0.0,0.0,0.0,0.0,0.0,0.0,0.0,0.0,0.0,0.0,0.0,0.0,0.0,0.0,0.0,0.0,0.0,0.0,0.0,0.0,0.0,0.0,0.0,0.0,0.0,0.0,0.0,0.0,0.0,0.0,0.0,0.0,0.0,0.0,0.0,0.0,0.0,0.0,0.0,0.0,0.0,0.0,0.0,0.0,0.0,0.0,0.0,0.0,0.0,0.0,0.0,0.0,0.0,0.0,0.0,0.0,0.0,0.0,0.0,0.0,0.0,0.0,0.0,0.0,0.0,0.0,0.0,0.0,0.0,0.0,0.0,0.0,0.0,0.0,0.0,0.0,0.0,0.0,0.0,0.0,0.0,0.0,0.0,0.0,0.0,0.0,0.0,0.0,0.0,0.0,0.0,0.0,0.0,0.0,0.0,0.0,0.0,0.0,0.0,0.0,0.0,0.0,0.0,0.0,0.0,0.0,0.0,0.0,0.0,0.0,0.0,0.0,0.0,0.0,0.0,0.0,0.0,0.0,0.0,0.0,0.0,0.0,0.0,0.0,0.0,0.0,0.0,0.0,0.0,0.0,0.0,0.0,0.0,0.0,0.0,0.0,0.0,0.0,0.0,0.0,0.0,0.0,0.0,0.0,0.0,0.0,0.0,0.0,0.0,0.0,0.0,0.0,0.0,0.0,0.0,0.0,0.0,0.0,0.0,0.0,0.0,0.0,0.0,0.0,0.0,0.0,0.0,0.0,0.0,0.0,0.0,0.0,0.0,0.0,0.0,0.0,0.0,0.0,0.0,0.0,0.0,0.0,0.0,0.0,0.0,0.0,0.0,0.0,0.0,0.0,0.0,0.0,0.0,0.0,0.0,0.0,0.0,0.0,0.0,0.0,0.0,0.0,0.0,0.0,0.0,0.0,0.0,0.0,0.0,0.0,0.0,0.0,0.0,0.0,0.0,0.0,0.0,0.0,0.0,0.0,0.0,0.0,0.0,0.0,0.0,0.0,0.0,0.0,0.0,0.0,0.0,0.0,0.0,0.0,0.0,0.0,0.0,0.0,0.0,0.0,0.0,0.0,0.0,0.0,0.0,0.0,0.0,0.0,0.0,0.0,0.0,0.0,0.0,0.0,0.0,0.0,0.0,0.0,0.0,0.0,0.0,0.0,0.0,0.0,0.0,0.0,0.0,0.0,0.0,0.0,0.0,0.0,0.0,0.0,0.0,0.0,0.0,0.0,0.0,0.0,0.0,0.0,0.0,0.0,0.0,0.0,0.0,0.0,0.0,0.0,0.0,0.0,0.0,0.0,0.0,0.0,0.0,0.0,0.0,0.0,0.0,0.0,0.0,0.0,0.0,0.0,0.0,0.0,0.0,0.0,0.0,0.0,0.0,0.0,0.0,0.0,0.0,0.0,0.0,0.0,0.0,0.0,0.0,0.0,0.0,0.0,0.0,0.0,0.0,0.0,0.0,0.0,0.0,0.0,0.0,0.0,0.0,0.0,0.0,0.0,0.0,0.0,0.0,0.0,0.0,0.0,0.0,0.0,0.0,0.0,0.0,0.0,0.0,0.0,0.0,0.0,0.0,0.0,0.0,0.0,0.0,0.0,0.0,0.0,0.0,0.0,0.0,0.0,0.0,0.0,0.0,0.0,0.0,0.0,0.0,0.0,0.0,0.0,0.0,0.0,0.0,0.0,0.0,0.0,0.0,0.0,0.0,0.0,0.0,0.0,0.0,0.0,0.0,0.0,0.0,0.0,0.0,0.0,0.0,0.0,0.0,0.0,0.0,0.0,0.0,0.0,0.0,0.0,0.0,0.0,0.0,0.0,0.0,0.0,0.0,0.0,0.0,0.0,0.0,0.0,0.0,0.0,0.0,0.0,0.0,0.0,0.0,0.0,0.0,0.0,0.0,0.0,0.0,0.0,0.0,0.0,0.0,0.0,0.0,0.0,0.0,0.0,0.0,0.0,0.0,0.0,0.0,0.0,0.0,0.0,0.0,0.0,0.0,0.0,0.0,0.0,0.0,0.0,0.0,0.0,0.0,0.0,0.0,0.0,0.0,0.0,0.0,0.0,0.0,0.0,0.0,0.0,0.0,0.0,0.0,0.0,0.0,0.0,0.0,0.0,0.0,0.0,0.0,0.0,0.0,0.0,0.0,0.0,0.0,0.0,0.0,0.0,0.0,0.0,0.0,0.0,0.0,0.0,0.0,0.0,0.0,0.0,0.0,0.0,0.0,0.0,0.0,0.0,0.0,0.0,0.0,0.0,0.0,0.0,0.0,0.0,0.0,0.0,0.0,0.0,0.0,0.0,0.0,0.0,0.0,0.0,0.0,0.0,0.0,0.0,0.0,0.0,0.0,0.0,0.0,0.0,0.0,0.0,0.0,0.0,0.0,0.0,0.0,0.0,0.0,0.0,0.0,0.0,0.0,0.0,0.0,0.0,0.0,0.0,0.0,0.0,0.0,0.0,0.0,0.0,0.0,0.0,0.0,0.0,0.0,0.0,0.0,0.0,0.0,0.0,0.0,0.0,0.0,0.0,0.0,0.0,0.0,0.0,0.0,0.0,0.0,0.0,0.0,0.0,0.0,0.0,0.0,0.0,0.0,0.0,0.0,0.0,0.0,0.0,0.0,0.0,0.0,0.0,0.0,0.0,0.0,0.0,0.0,0.0,0.0,0.0,0.0,0.0,0.0,0.0,0.0,0.0,0.0,0.0,0.0,0.0,0.0,0.0,0.0,0.0,0.0,0.0,0.0,0.0,0.0,0.0,0.0,0.0,0.0,0.0,0.0,0.0,0.0,0.0,0.0,0.0,0.0,0.0,0.0,0.0,0.0,0.0,0.0,0.0,0.0,0.0,0.0,0.0,0.0,0.0,0.0,0.0,0.0,0.0,0.0,0.0,0.0,0.0,0.0,0.0,0.0,0.0,0.0,0.0,0.0,0.0,0.0,0.0,0.0,0.0,0.0,0.0,0.0,0.0,0.0,0.0,0.0,0.0,0.0,0.0,0.0,0.0,0.0,0.0,0.0,0.0,0.0,0.0,0.0,0.0,0.0,0.0,0.0,0.0,0.0,0.0,0.0,0.0,0.0,0.0,0.0,0.0,0.0,0.0,0.0,0.0,0.0,0.0,0.0,0.0,0.0,0.0,0.0,0.0,0.0,0.0,0.0,0.0,0.0,0.0,0.0,0.0,0.0,0.0,0.0,0.0,0.0,0.0,0.0,0.0,0.0,0.0,0.0,0.0,0.0,0.0,0.0,0.0,0.0,0.0,0.0,0.0,0.0,0.0,0.0,0.0,0.0,0.0,0.0,0.0,0.0,0.0,0.0,0.0,0.0,0.0,0.0,0.0,0.0,0.0,0.0,0.0,0.0,0.0,0.0,0.0,0.0,0.0,0.0,0.0,0.0,0.0,0.0,0.0,0.0,0.0,0.0,0.0,0.0,0.0,0.0,0.0,0.0,0.0,0.0,0.0,0.0,0.0,0.0,0.0,0.0,0.0,0.0,0.0,0.0,0.0,0.0,0.0,0.0,0.0,0.0,0.0,0.0,0.0,0.0,0.0,0.0,0.0,0.0,0.0,0.0,0.0,0.0,0.0,0.0,0.0,0.0,0.0,0.0,0.0,0.0,0.0,0.0,0.0,0.0,0.0,0.0,0.0,0.0,0.0,0.0,0.0,0.0,0.0,0.0,0.0,0.0,0.0,0.0,0.0,0.0,0.0,0.0,0.0,0.0,0.0,0.0,0.0,0.0,0.0,0.0,0.0,0.0,0.0,0.0,0.0,0.0,0.0,0.0,0.0,0.0,0.0,0.0,0.0,0.0,0.0,0.0,0.0,0.0,0.0,0.0,0.0,0.0,0.0,0.0,0.0,0.0,0.0,0.0,0.0,0.0,0.0,0.0,0.0,0.0,0.0,0.0,0.0,0.0,0.0,0.0,0.0,0.0,0.0,0.0,0.0,0.0,0.0,0.0,0.0,0.0,0.0,0.0,0.0,0.0,0.0,0.0,0.0,0.0,0.0,0.0,0.0,0.0,0.0,0.0,0.0,0.0,0.0,0.0,0.0,0.0,0.0,0.0,0.0,0.0,0.0,0.0,0.0,0.0,0.0,0.0,0.0,0.0,0.0,0.0,0.0,0.0,0.0,0.0,0.0,0.0,0.0,0.0,0.0,0.0,0.0,0.0,0.0,0.0,0.0,0.0,0.0,0.0,0.0,0.0,0.0,0.0,0.0,0.0,0.0,0.0,0.0,0.0,0.0,0.0,0.0,0.0,0.0,0.0,0.0,0.0,0.0,0.0,0.0,0.0,0.0,0.0,0.0,0.0,0.0,0.0,0.0,0.0,0.0,0.0,0.0,0.0,0.0,0.0,0.0,0.0,0.0,0.0,0.0,0.0,0.0,0.0,0.0,0.0,0.0,0.0,0.0,0.0,0.0,0.0,0.0,0.0,0.0,0.0,0.0,0.0,0.0,0.0,0.0,0.0,0.0,0.0,0.0,0.0,0.0,0.0,0.0,0.0,0.0,0.0,0.0,0.0,0.0,0.0,0.0,0.0,0.0,0.0,0.0,0.0,0.0,0.0,0.0,0.0,0.0,0.0,0.0,0.0,0.0,0.0,0.0,0.0,0.0,0.0,0.0,0.0,0.0,0.0,0.0,0.0,0.0,0.0,0.0,0.0,0.0,0.0,0.0,0.0,0.0,0.0,0.0,0.0,0.0,0.0,0.0,0.0,0.0,0.0,0.0,0.0,0.0,0.0,0.0,0.0,0.0,0.0,0.0,0.0,0.0,0.0,0.0,0.0,0.0,0.0,0.0,0.0,0.0,0.0,0.0,0.0,0.0,0.0,0.0,0.0,0.0,0.0,0.0,0.0,0.0,0.0,0.0,0.0,0.0,0.0,0.0,0.0,0.0,0.0,0.0,0.0,0.0,0.0,0.0,0.0,0.0,0.0,0.0,0.0,0.0,0.0,0.0,0.0,0.0,0.0,0.0,0.0,0.0,0.0,0.0,0.0,0.0,0.0,0.0,0.0,0.0,0.0,0.0,0.0,0.0,0.0,0.0,0.0,0.0,0.0,0.0,0.0,0.0,0.0,0.0,0.0,0.0,0.0,0.0,0.0,0.0,0.0,0.0,0.0,0.0,0.0,0.0,0.0,0.0,0.0,0.0,0.0,0.0,0.0,0.0,0.0,0.0,0.0,0.0,0.0,0.0,0.0,0.0,0.0,0.0,0.0,0.0,0.0,0.0,-5.9633,0.0,0.0,0.0,0.0,0.0,0.0,0.0,0.0,0.0,0.0,0.0,0.0,0.0,0.0,0.0,0.0,0.0,0.0,0.0,0.0,0.0,0.0,0.0,0.0,-4.4347,-4.4347,-4.4347,-4.4347,-4.4099,-4.3826,0.0,0.0,0.0,0.0,0.0,-4.2293,-4.1678,-4.1315,-4.1315,-4.0928,-4.0669,-4.0257,-3.9755,-3.9274,-3.8838,0.0,0.0,0.0,0.0,0.0,0.0,0.0,0.0,0.0,0.0,0.0,0.0,0.0,0.0,0.0,0.0,0.0,0.0,0.0,0.0,0.0,0.0,0.0,0.0,0.0,0.0,0.0,0.0,0.0,0.0,0.0,0.0,0.0,0.0,0.0,0.0,0.0,0.0,0.0,0.0,0.0,0.0,0.0,0.0,0.0,0.0,0.0,0.0,0.0,0.0,0.0,0.0,0.0,0.0,0.0,0.0,0.0,0.0,0.0,0.0,0.0,0.0,0.0,0.0,0.0,0.0,0.0,0.0,0.0,0.0,0.0,-6.0234,0.0,0.0,0.0,0.0,0.0,0.0,0.0,0.0,0.0,0.0,0.0,0.0,0.0,0.0,0.0,0.0,0.0,0.0,0.0,0.0,0.0,-4.4347,-4.4347,-4.4347,-4.4347,-4.4347,-4.4347,-4.4347,-4.4347,-4.4347,0.0,0.0,0.0,-4.242,-4.242,-4.1678,-4.1315,-4.1315,-4.1187,-4.0799,-4.0279,-4.0279,-3.9842,-3.9078,-3.9078,0.0,0.0,0.0,0.0,0.0,0.0,0.0,0.0,0.0,0.0,0.0,0.0,0.0,0.0,0.0,0.0,0.0,0.0,0.0,0.0,0.0,0.0,0.0,0.0,0.0,0.0,0.0,0.0,0.0,0.0,0.0,0.0,0.0,0.0,0.0,0.0,0.0,0.0,0.0,0.0,0.0,0.0,0.0,0.0,0.0,0.0,0.0,0.0,0.0,0.0,0.0,0.0,0.0,0.0,0.0,0.0,0.0,0.0,0.0,0.0,0.0,0.0,0.0,0.0,-5.9439,-5.9963,-5.9963,-6.0913,-6.2414,-6.147,-6.1436,-6.2263,0.0,0.0,0.0,0.0,0.0,0.0,0.0,0.0,0.0,0.0,0.0,0.0,0.0,0.0,0.0,0.0,0.0,0.0,0.0,0.0,-4.4347,-4.4347,-4.4347,-4.4347,-4.4347,-4.4347,-4.4347,-4.4347,-4.4347,-4.4223,-4.4223,-4.3576,-4.32,-4.32,-4.1934,-4.1315,-4.1315,-4.0669,-4.0409,-4.0279,-4.0279,-4.0214,-4.0083,-4.0083,-4.0083,-4.0083,0.0,0.0,0.0,0.0,0.0,0.0,0.0,0.0,0.0,0.0,0.0,0.0,0.0,0.0,0.0,0.0,0.0,0.0,0.0,0.0,0.0,0.0,0.0,0.0,0.0,0.0,0.0,0.0,0.0,0.0,0.0,0.0,0.0,0.0,0.0,0.0,0.0,0.0,0.0,0.0,0.0,-5.3203,-5.3203,0.0,0.0,0.0,0.0,0.0,0.0,0.0,0.0,0.0,0.0,0.0,0.0,0.0,0.0,-5.8793,-5.9378,-5.9655,-5.9655,-6.024,-6.0578,-6.0671,-6.0671,-6.1597,-6.3273,-6.3966,0.0,-6.3877,-6.4972,0.0,0.0,0.0,0.0,0.0,0.0,0.0,0.0,0.0,0.0,0.0,0.0,0.0,0.0,0.0,0.0,0.0,0.0,0.0,0.0,0.0,-4.4347,-4.4347,-4.4347,-4.4347,-4.4347,-4.4347,-4.4347,-4.4099,-4.3701,-4.3051,-4.2799,-4.2799,-4.1806,-4.1315,-4.1315,-4.0669,-4.0279,-4.0279,-4.0279,-4.0279,-4.0279,-4.0279,-4.0279,-4.0279,-4.0279,0.0,0.0,0.0,0.0,0.0,0.0,0.0,0.0,0.0,0.0,0.0,0.0,0.0,0.0,0.0,0.0,0.0,0.0,0.0,0.0,0.0,0.0,0.0,0.0,0.0,0.0,0.0,0.0,0.0,0.0,0.0,0.0,0.0,0.0,0.0,0.0,0.0,0.0,0.0,-5.2108,-5.2787,-5.3801,-5.3722,-5.4156,0.0,0.0,0.0,0.0,0.0,0.0,0.0,0.0,0.0,-5.9316,-5.9347,-5.9532,-5.9901,-6.0209,-6.0547,-6.0917,-6.1225,-6.1563,-6.1933,-6.2498,-6.3514,-6.4865,-6.6021,-6.6875,-6.7234,-6.7618,-6.7704,-6.7824,0.0,0.0,0.0,0.0,0.0,-6.9202,0.0,0.0,0.0,0.0,0.0,0.0,0.0,0.0,0.0,0.0,0.0,0.0,-4.4347,-4.4347,-4.4347,-4.4347,-4.4347,-4.4347,-4.4347,-4.4347,-4.4099,-4.3576,-4.2925,-4.242,-4.2293,-4.1421,-4.1057,-4.1057,-4.0539,-4.0279,-4.0279,-4.0279,-4.0279,-4.0279,-4.0279,-4.0279,-4.0279,-4.0279,-4.0279,-4.0279,0.0,0.0,0.0,0.0,0.0,0.0,0.0,0.0,0.0,0.0,0.0,0.0,0.0,0.0,0.0,0.0,0.0,0.0,0.0,0.0,0.0,0.0,0.0,0.0,0.0,0.0,0.0,0.0,0.0,0.0,0.0,0.0,0.0,0.0,0.0,0.0,0.0,-5.2544,-5.3193,-5.5024,-5.5172,-5.546,0.0,0.0,0.0,0.0,0.0,0.0,-5.9008,-5.9039,-5.9439,-6.027,-6.0301,-6.064,-6.1317,-6.1132,-6.1317,-6.1809,-6.1625,-6.1809,-6.2408,-6.3429,-6.4601,-6.5964,-6.7181,-6.8425,-6.9696,-6.9407,-6.9254,-6.922,-6.9336,-6.9267,-6.9218,-6.9712,-6.9849,-6.9967,0.0,0.0,0.0,0.0,0.0,0.0,0.0,0.0,0.0,0.0,0.0,-4.4347,-4.4347,-4.4347,-4.4347,-4.4347,-4.4347,-4.4347,-4.4347,-4.4347,-4.4223,-4.4223,-4.3576,-4.2925,-4.2293,-4.1035,-4.0409,-4.0409,-4.0279,-4.0279,-4.0279,-4.0279,-4.0279,-4.0279,-4.0279,-4.0279,-4.0279,-4.0279,-4.0279,-4.0279,-4.0279,0.0,0.0,0.0,0.0,0.0,0.0,0.0,0.0,0.0,0.0,0.0,0.0,0.0,0.0,0.0,0.0,0.0,0.0,0.0,0.0,0.0,0.0,0.0,0.0,0.0,0.0,0.0,0.0,0.0,0.0,0.0,0.0,0.0,0.0,0.0,0.0,0.0,0.0,-5.7358,-5.6113,0.0,0.0,0.0,0.0,-5.857,-5.8731,-5.9008,-5.9686,-5.9747,-6.0332,-6.1656,-6.1717,-6.2025,-6.2702,-6.2086,-6.1779,-6.1809,-6.1163,-6.0959,-6.1299,-6.2284,-6.3774,-6.5718,-6.6689,-6.8128,-6.9662,-6.9159,-6.8966,-6.8898,-6.8177,-6.7741,-6.7783,-6.9467,-7.0065,-7.0354,0.0,0.0,0.0,0.0,0.0,-4.4347,-4.4347,-4.4347,-4.4347,-4.4347,-4.4347,-4.4347,-4.4347,-4.4347,-4.4347,-4.4347,-4.4347,-4.4347,-4.4347,-4.4347,-4.4347,-4.4347,-4.3701,-4.2822,-4.1678,-4.1109,-4.0738,-4.0738,-4.1044,-4.1175,-4.1175,-4.1175,-4.1175,-4.1175,-4.1175,-4.1175,-4.1153,-4.0541,-4.0279,-4.0279,-4.0279,-4.0279,0.0,0.0,0.0,0.0,0.0,0.0,0.0,0.0,0.0,0.0,0.0,0.0,0.0,0.0,0.0,0.0,0.0,0.0,0.0,0.0,0.0,0.0,0.0,0.0,0.0,0.0,0.0,0.0,0.0,0.0,0.0,0.0,0.0,0.0,0.0,0.0,0.0,-5.7263,-5.7446,0.0,-5.9008,-5.8338,-5.8267,-5.9378,-5.9439,-5.9901,-6.104,-6.1101,-6.1317,-6.1779,-6.1809,-6.1717,-6.1502,-6.1286,-6.1379,-6.1809,-6.1563,-6.1791,-6.2538,-6.4661,-6.616,-6.7156,-6.949,-7.0806,-7.1353,-7.0766,-7.054,-7.0408,-7.0781,-7.0884,-7.0953,-7.1587,-7.1794,-7.1863,0.0,0.0,0.0,0.0,-4.4347,-4.4347,-4.4347,-4.4347,-4.4347,-4.4347,-4.4347,-4.4347,-4.4347,-4.4347,-4.4347,-4.4347,-4.4347,-4.4347,-4.4347,-4.4347,-4.4419,-4.4611,-4.3876,-4.2857,-4.1539,-4.1375,-4.124,-4.124,-4.1546,-4.1699,-4.1699,-4.1699,-4.1699,-4.1699,-4.1699,-4.1699,-4.1655,-4.1022,-4.0672,-4.052,-4.052,-4.0432,-4.0279,0.0,0.0,0.0,0.0,0.0,0.0,0.0,0.0,0.0,0.0,0.0,0.0,0.0,0.0,0.0,0.0,0.0,0.0,0.0,0.0,0.0,0.0,0.0,0.0,0.0,0.0,0.0,0.0,0.0,0.0,0.0,0.0,0.0,0.0,0.0,-5.6852,-5.7855,-5.8481,-5.9039,-5.9716,-5.9593,-5.9747,-6.0424,-6.0455,-6.0855,-6.1748,-6.1594,-6.1563,-6.1809,-6.1809,-6.1717,-6.1471,-6.1255,-6.1471,-6.2148,-6.2038,-6.2674,-6.3922,-6.6192,-6.7579,-6.8301,-7.0667,-7.1797,-7.2004,-7.1897,-7.1966,-7.2123,-7.1932,-7.1912,-7.1946,-7.2188,-7.2291,-7.236,0.0,0.0,0.0,-4.4347,-4.4347,-4.4347,-4.4347,-4.4347,-4.4347,-4.4347,-4.4347,-4.4347,-4.4347,-4.4347,-4.4347,-4.4347,-4.4347,-4.4347,-4.4347,-4.4371,-4.4611,-4.5014,-4.4184,-4.3162,-4.2055,-4.186,-4.1699,-4.1699,-4.1721,-4.1743,-4.1743,-4.1743,-4.1743,-4.1743,-4.1743,-4.1743,-4.1743,-4.1743,-4.1459,-4.1044,-4.1044,-4.0738,-4.0323,0.0,0.0,0.0,0.0,0.0,0.0,0.0,0.0,0.0,0.0,0.0,0.0,0.0,0.0,0.0,0.0,0.0,0.0,0.0,0.0,0.0,0.0,0.0,0.0,0.0,0.0,0.0,0.0,0.0,0.0,0.0,0.0,0.0,-5.7169,-5.7169,-5.7855,-5.9584,-5.9255,-5.9131,-5.9747,-6.0424,-6.1101,-6.1717,-6.1779,-6.1779,-6.1809,-6.1194,-6.1132,-6.1779,-6.1809,-6.2117,-6.2764,-6.2148,-6.2148,-6.2825,-6.2495,-6.3398,-6.5247,-6.6576,-6.7911,-6.9132,-7.0134,-7.0946,-7.167,-7.2429,-7.3188,-7.3602,-7.1394,-7.0532,-7.0636,-7.1325,-7.1601,-7.1808,0.0,0.0,-4.4347,-4.4347,-4.4347,-4.4347,-4.4347,-4.4347,-4.4347,-4.4347,-4.4347,-4.4347,-4.4347,-4.4347,-4.4347,-4.4347,-4.4347,-4.4347,-4.4347,-4.4708,-4.4888,-4.49,-4.3372,-4.2455,-4.2548,-4.2367,-4.2223,-4.2223,-4.2595,-4.2769,-4.2769,-4.2769,-4.2769,-4.2769,-4.2769,-4.2769,-4.2769,-4.2769,-4.2485,-4.2005,-4.1634,-4.1415,-4.1306,0.0,0.0,0.0,0.0,0.0,0.0,0.0,0.0,0.0,0.0,0.0,0.0,0.0,0.0,0.0,0.0,0.0,0.0,0.0,0.0,0.0,0.0,0.0,0.0,0.0,0.0,0.0,0.0,0.0,0.0,0.0,-5.6574,-5.7858,-5.7752,-5.8516,-5.9257,-5.9747,-6.0486,-6.0855,-6.0547,-6.1132,-6.1409,-6.1101,-6.1071,-6.1286,-6.1779,-6.1625,-6.1625,-6.1809,-6.1809,-6.1902,-6.2086,-6.1902,-6.2148,-6.2825,-6.3455,-6.456,-6.6117,-6.8438,-7.0209,-7.1558,-7.3052,-7.3809,-7.4016,-7.4223,-7.443,-7.4568,-7.3912,-7.3671,-7.3705,-7.3912,-7.3981,-7.405,0.0,-4.4347,-4.4347,-4.4347,-4.4347,-4.4347,-4.4347,-4.4347,-4.4347,-4.4347,-4.4347,-4.4347,-4.4347,-4.4347,-4.4347,-4.4347,-4.4347,-4.4347,-4.4347,-4.4666,-4.4583,-4.3617,-4.3171,-4.2839,-4.2525,-4.2623,-4.2748,-4.2748,-4.3032,-4.3184,-4.3184,-4.3184,-4.3184,-4.3184,-4.3184,-4.3184,-4.3184,-4.3184,-4.301,-4.2704,-4.242,-4.207,-4.1699,-4.1699,-4.2215,-4.2727,-4.1946,-4.2727,-4.4002,-4.3762,0.0,0.0,0.0,0.0,0.0,0.0,0.0,0.0,0.0,0.0,0.0,0.0,0.0,0.0,0.0,0.0,0.0,0.0,0.0,0.0,0.0,0.0,0.0,0.0,-5.7992,-5.9213,-5.9213,-6.001,-6.0517,-6.024,-6.1163,-6.1532,-6.0855,-6.1409,-6.1656,-6.1255,-6.1225,-6.1379,-6.1779,-6.1532,-6.1502,-6.1809,-6.1809,-6.2086,-6.2641,-6.2641,-6.3133,-6.4305,-6.5433,-6.6846,-6.8499,-7.0662,-7.233,0.0,-7.4444,-7.5119,-7.543,-7.543,-7.5602,0.0,0.0,0.0,0.0,0.0,-7.4947,-7.4981,0.0,-4.4347,-4.4347,-4.4347,-4.4347,-4.4347,-4.4347,-4.4347,-4.4347,-4.4347,-4.4347,-4.4347,-4.4347,-4.4347,-4.4347,-4.4347,-4.4347,-4.4395,-4.4515,-4.4441,-4.3863,-4.2388,-4.3466,-4.357,-4.2507,-4.2944,-4.3184,-4.3184,-4.3184,-4.3184,-4.3184,-4.3184,-4.3184,-4.3184,-4.3184,-4.3184,-4.3184,-4.3184,-4.3184,-4.3184,-4.3184,-4.266,-4.1852,-4.1852,-4.1852,-4.1852,-4.1852,-4.1852,-4.1987,-4.3306,0.0,0.0,0.0,0.0,0.0,0.0,0.0,0.0,0.0,0.0,0.0,0.0,0.0,0.0,0.0,0.0,0.0,0.0,0.0,0.0,0.0,0.0,0.0,0.0,-5.9635,-6.0794,-6.0794,-6.1379,-6.1563,-6.0886,-6.1379,-6.1532,-6.0855,-6.1409,-6.1779,-6.1686,-6.1686,-6.1717,-6.1809,0.0,0.0,0.0,0.0,-6.2764,-6.4057,-6.4057,-6.4923,-6.6412,-6.7906,-6.9658,-7.159,-7.2982,-7.4196,-7.5188,-7.5188,-7.5602,-7.6223,-7.6223,-7.6637,-7.7085,-7.5706,-7.5188,-7.5188,-7.5188,-7.5188,0.0,0.0,-4.4347,-4.4347,-4.4347,-4.4347,-4.4347,-4.4347,-4.4347,-4.4347,-4.4347,-4.4347,-4.4347,-4.4347,-4.4347,-4.4347,-4.4347,-4.4347,-4.4708,-4.5549,-4.3715,-4.3167,-4.4572,-4.3418,-4.2842,-4.3032,-4.3141,-4.3184,-4.3184,-4.3184,-4.3184,-4.3184,-4.3184,-4.3184,-4.3184,-4.3184,-4.3184,-4.3184,-4.3184,-4.3184,-4.3184,-4.3184,-4.3053,-4.2879,-4.2879,-4.2879,-4.2879,-4.2879,-4.2879,-4.2879,-4.3156,-4.4074,-4.4979,-4.5249,-4.6537,0.0,0.0,0.0,0.0,0.0,0.0,0.0,0.0,0.0,0.0,0.0,0.0,0.0,0.0,0.0,0.0,0.0,0.0,0.0,-5.8584,-5.994,-6.0794,-6.0794,-6.1379,-6.1563,-6.0886,-6.1379,-6.1532,-6.0855,-6.1409,-6.1594,-6.104,-6.0978,-6.1225,-6.1779,-6.221,0.0,-6.341,-6.3995,-6.4672,-6.5503,-6.5695,-6.6208,-6.7094,0.0,0.0,-7.2315,-7.4258,-7.5764,-7.6775,-7.6775,-7.6878,-7.7016,-7.7016,-7.7085,-7.7189,-7.6878,-7.6775,-7.6775,-7.6775,-7.6775,-7.6809,0.0,-4.4347,-4.4347,-4.4347,-4.4347,-4.4347,-4.4347,-4.4347,-4.4347,-4.4347,-4.4347,-4.4347,-4.4347,-4.4347,-4.4347,-4.4347,-4.4347,-4.4559,-4.4944,-4.3701,-4.3348,-4.4347,-4.3321,-4.2922,-4.3163,-4.3184,-4.3184,-4.3184,-4.3184,-4.3184,-4.3184,-4.3184,-4.3184,-4.3184,-4.3184,-4.3184,-4.3184,-4.3184,-4.3184,-4.3184,-4.3184,-4.3184,-4.3184,-4.3184,-4.3184,-4.3184,-4.3184,-4.3184,-4.3184,-4.3184,-4.3697,-4.4228,-4.4228,-4.5685,-4.7641,0.0,0.0,0.0,0.0,0.0,0.0,0.0,0.0,0.0,0.0,0.0,0.0,0.0,0.0,-5.4166,-5.5964,0.0,-5.7745,-5.9576,-6.0451,-6.0794,-6.0794,-6.1101,-6.1194,-6.0824,-6.1379,-6.1532,-6.0855,-6.1101,-6.1317,-6.1317,-6.1625,-6.2086,-6.2794,-6.3472,-6.418,-6.4857,-6.5306,-6.6097,-6.7116,-6.7454,-6.799,-6.8789,-7.107,-7.2564,-7.3309,-7.5405,-7.6702,-7.7223,-7.7223,-7.7223,-7.7223,-7.7223,-7.7223,-7.7223,-7.7223,-7.7223,-7.7223,-7.7223,-7.7223,-7.7223,0.0,-4.4347,-4.4347,-4.4347,-4.4347,-4.4347,-4.4347,-4.4347,-4.4347,-4.4347,-4.4347,-4.4347,-4.4347,-4.4347,-4.4347,-4.4347,-4.4223,-4.4237,-4.4451,-4.3863,-4.3686,-4.4007,-4.3498,-4.3324,-4.3441,-4.3324,-4.3184,-4.3184,-4.3184,-4.3184,-4.3184,-4.3184,-4.3184,-4.3184,-4.3184,-4.3184,-4.3184,-4.3184,-4.3184,-4.3184,-4.3184,-4.3184,-4.3184,-4.3184,-4.3184,-4.3184,-4.3184,-4.3184,-4.3184,-4.3184,-4.3184,-4.3184,-4.3184,-4.464,-4.6603,-4.7987,-4.9952,0.0,0.0,0.0,0.0,0.0,0.0,0.0,0.0,-5.3592,-5.3592,-5.3592,-5.3592,-5.4286,-5.6423,-5.7075,-5.7886,-6.0136,-6.069,-6.0794,-6.0794,-6.0794,-6.0794,-6.0794,-6.1286,-6.1379,-6.0855,-6.104,-6.1409,-6.1963,-6.2764,-6.3502,-6.418,-6.4888,-6.5707,-6.6386,-6.6734,-6.7548,-6.8665,-6.8976,-6.9597,-7.0582,-7.2599,-7.3838,-7.4373,-7.63,-7.7223,-7.7223,-7.7223,-7.7223,-7.7223,-7.7223,-7.7223,-7.7223,-7.7223,-7.7223,-7.7223,-7.7223,-7.7223,-7.7223,0.0,-4.4347,-4.4347,-4.4347,-4.4347,-4.4347,-4.4347,-4.4347,-4.4347,-4.4347,-4.4347,-4.4347,-4.4347,-4.4347,-4.4347,-4.4347,-4.3701,-4.4128,-4.5638,-4.3917,-4.3845,-4.6019,-4.4228,-4.3441,-4.4112,-4.3441,-4.3184,-4.3184,-4.3184,-4.3184,-4.3184,-4.3184,-4.3184,-4.3184,-4.3184,-4.3184,-4.3184,-4.3184,-4.3184,-4.3184,-4.3184,-4.3184,-4.3184,-4.3184,-4.3184,-4.3184,-4.3184,-4.3184,-4.3184,-4.3184,-4.3184,-4.3184,-4.3184,-4.3836,-4.5028,-4.7593,-4.9028,-5.0359,-5.2956,-5.3592,-5.3592,-5.3592,-5.3592,-5.3592,0.0,-5.3592,-5.3592,-5.3592,-5.3592,-5.4047,-5.5412,-5.6537,-5.7634,-5.9009,-6.0136,-6.0794,-6.0794,-6.0794,-6.0794,-6.0794,-6.0855,-6.0886,-6.0824,-6.1902,-6.2641,-6.2702,-6.3933,-6.4949,-6.5626,-6.6529,-6.7435,-6.8117,-6.8935,-6.9537,-6.9693,-6.9922,-7.0711,-7.1701,-7.3258,-7.4472,-7.5479,-7.6611,-7.7223,-7.7223,-7.7223,-7.7223,-7.7223,-7.7223,-7.7223,-7.7223,-7.7223,-7.7223,-7.7223,-7.7223,-7.7223,-7.7223,0.0,0.0,-4.4347,-4.4347,-4.4347,-4.4347,-4.4347,-4.4347,-4.4347,-4.4347,-4.4347,-4.4347,-4.4347,-4.4347,-4.4347,-4.4347,-4.4099,-4.4278,-4.5195,-4.4463,-4.4267,-4.5142,-4.4663,-4.4112,-4.358,-4.3697,-4.358,-4.3184,-4.3184,-4.3184,-4.3184,-4.3184,-4.3184,-4.3184,-4.3184,-4.3184,-4.3184,-4.3184,-4.3184,-4.3184,-4.3184,-4.3184,-4.3184,-4.3184,-4.3184,-4.3184,-4.3184,-4.3441,0.0,-4.3302,-4.3441,-4.3697,-4.3302,-4.4366,-4.609,-4.7856,-4.9696,-5.1419,-5.3078,-5.3863,-5.4026,-5.3673,-5.3592,-5.3592,-5.3592,-5.3592,-5.3592,-5.3592,-5.3592,-5.4166,-5.6079,-5.6849,-5.7886,0.0,-6.0451,-6.0794,-6.0794,-6.1132,-6.1532,-6.1933,-6.2333,-6.2394,-6.2025,-6.3225,-6.418,-6.458,-6.5503,-6.6478,-6.727,-6.8148,-6.8758,-6.9153,-6.9776,-7.0047,-7.0047,-7.1029,-7.1733,-7.224,-7.4073,-7.519,-7.5669,-7.6702,-7.7223,-7.7223,-7.7223,-7.7223,-7.7223,-7.7223,-7.7223,-7.7223,-7.7223,-7.7223,-7.7223,-7.7223,-7.7223,-7.7223,0.0,0.0,0.0,-4.4347,-4.4347,-4.4347,-4.4347,-4.4347,-4.4347,-4.4347,-4.4347,-4.4347,-4.4347,-4.4347,-4.4347,-4.4347,-4.4347,-4.4529,-4.5066,-4.4747,-4.4665,-4.5142,-4.4914,-4.4388,-4.3858,-4.3836,-4.3719,-4.3184,-4.3184,-4.3184,-4.3184,-4.3184,-4.3184,-4.3184,-4.3184,-4.3184,-4.3184,-4.3184,-4.3184,-4.3184,-4.3184,-4.3184,-4.3184,-4.3184,-4.3302,-4.3441,-4.3441,-4.3974,-4.464,-4.4366,-4.4755,-4.5301,-4.5051,-4.63,-4.804,-4.9321,-5.1202,-5.3165,-5.3768,-5.4162,-5.4351,-5.3754,-5.3592,-5.3592,-5.3592,-5.3592,-5.3592,-5.3592,-5.3592,-5.4286,-5.6308,-5.6962,-5.7856,-6.0,-6.0586,-6.0917,-6.1317,-6.1779,-6.2394,-6.3287,-6.4149,-6.4487,-6.3995,-6.4857,-6.5657,-6.615,-6.6981,-6.7773,-6.8613,-6.9224,-6.9588,-6.9933,-7.0275,-7.0419,-7.0419,-7.1766,-7.2591,-7.2874,-7.4669,-7.5764,-7.608,-7.6828,-7.7223,-7.7223,-7.7223,-7.7223,-7.7223,-7.7223,-7.7223,-7.7223,-7.7223,-7.7223,-7.7223,-7.7223,-7.7223,-7.7223,0.0,0.0,0.0,0.0,-4.4347,-4.4347,-4.4347,-4.4347,-4.4347,-4.4347,-4.4347,-4.4347,-4.4347,-4.4347,-4.4347,-4.4347,-4.4347,-4.4804,-4.5862,-4.4487,-4.4797,-4.7316,-4.48,-4.3858,-4.5187,-4.3974,-4.3184,-4.3184,-4.3184,-4.3184,-4.3184,-4.3184,-4.3184,-4.3184,-4.3184,-4.3184,-4.3184,-4.3184,-4.3184,-4.3184,-4.3184,-4.3184,-4.3184,-4.3184,-4.358,-4.4228,-4.4228,-4.4892,-4.5797,-4.6493,-4.7509,-4.8322,-4.8886,-4.9611,-5.0655,-5.2232,-5.3885,-5.522,-5.4623,-5.446,-5.4351,-5.3754,-5.3592,-5.3592,-5.3592,-5.3592,-5.3592,-5.3592,-5.3592,-5.3926,-5.5178,-5.6423,-5.7664,-5.8871,-6.0,-6.1255,-6.2579,-6.2764,-6.3287,-6.4672,-6.5996,-6.6827,0.0,-6.6827,-6.6858,-6.6888,-6.8089,-6.8945,-6.9356,-6.9703,-6.9933,-7.0275,-7.0645,-7.0789,-7.0789,-7.1874,-7.2874,-7.3972,-7.5094,-7.608,-7.7133,-7.7223,-7.7223,-7.7223,-7.7223,-7.7223,-7.7223,-7.7223,-7.7223,-7.7223,-7.7223,-7.7223,-7.7223,-7.7223,-7.7223,-7.7223,0.0,0.0,0.0,0.0,0.0,0.0,-4.4347,-4.4347,-4.4347,-4.4347,-4.4347,0.0,0.0,0.0,0.0,0.0,-4.4347,-4.4553,-4.5066,-4.5137,-4.5193,-4.5278,-4.5324,-4.4937,-4.3997,-4.3836,-4.3719,-4.3184,-4.3184,-4.3184,-4.3184,-4.3184,-4.3184,-4.3184,-4.3184,-4.3184,-4.3184,-4.3184,-4.3184,-4.3184,-4.3184,-4.3184,-4.3346,-4.4073,-4.4581,-4.4905,0.0,-4.6946,-4.7316,-4.8185,-4.9101,-4.97,-4.985,-5.082,-5.2336,-5.4012,-5.488,-5.5274,-5.465,-5.4487,-5.4351,-5.3754,-5.3592,-5.3592,-5.3592,-5.3592,-5.3592,-5.3592,-5.3592,-5.3926,-5.5178,-5.6423,-5.7927,-6.0036,-6.1338,-6.261,-6.3995,-6.458,-6.5195,-6.6119,-6.7042,0.0,0.0,0.0,0.0,-6.8212,-6.8876,-6.9356,-6.9703,-6.9933,-7.0306,-7.0645,-7.0789,-7.1171,-7.1874,-7.2874,-7.3972,-7.506,-7.6207,-7.6828,-7.7223,-7.7223,-7.7223,-7.7223,-7.7223,-7.7223,-7.7223,-7.7223,-7.7223,-7.7223,-7.7223,-7.7223,-7.7313,-7.7858,-7.7682,-7.7333,0.0,0.0,0.0,0.0,0.0,0.0,0.0,0.0,0.0,0.0,0.0,0.0,0.0,0.0,0.0,0.0,0.0,-4.4457,-4.4934,-4.53,-4.5384,-4.516,-4.5638,-4.546,-4.4388,-4.4526,-4.4366,-4.3997,-4.3719,-4.358,-4.358,-4.3302,-4.3184,-4.3184,-4.3184,-4.3184,-4.3184,-4.3184,-4.3412,-4.3823,-4.3647,-4.3919,-4.4531,-4.5202,-4.5895,0.0,-4.8481,-4.9499,-5.0012,-5.0206,-5.1119,-5.2156,-5.2305,-5.3296,-5.4493,-5.551,-5.5735,-5.5545,-5.4704,-5.4487,-5.4351,-5.3754,-5.3592,-5.3592,-5.3592,-5.3592,-5.3592,-5.3592,-5.3944,-5.4582,-5.5849,-5.7453,-5.9043,-6.0698,-6.2375,-6.3916,-6.4789,-6.5626,-6.6611,-6.7504,-6.7997,-6.8427,0.0,0.0,0.0,-6.8889,-6.924,-6.9472,-6.9818,-7.0161,-7.0419,-7.0789,-7.0789,-7.1282,-7.2379,-7.3496,-7.4669,-7.6207,-7.6918,-7.7223,-7.7223,-7.7223,-7.7223,-7.7223,-7.7223,-7.7223,-7.7223,-7.7223,-7.7223,-7.7189,-7.6913,-7.6844,-7.6864,-7.7468,-7.7345,-7.7029,0.0,0.0,0.0,0.0,0.0,0.0,0.0,0.0,0.0,0.0,0.0,0.0,0.0,0.0,0.0,0.0,0.0,0.0,-4.5092,-4.4982,-4.5373,-4.6549,-4.5879,-4.5731,-4.6271,-4.5595,-4.5324,-4.5324,-4.464,-4.4228,-4.4228,-4.358,-4.3324,-4.3324,-4.3324,-4.3324,-4.3324,-4.3324,-4.3985,-4.5017,-4.443,-4.5367,-4.6864,-4.6427,-4.7761,-4.9829,-5.0955,-5.2436,-5.3787,-5.2802,-5.376,-5.56,-5.617,-5.6712,-5.7038,-5.6468,-5.6251,-5.5952,-5.4786,-5.446,-5.4297,-5.3727,-5.3592,-5.3592,-5.3592,-5.3619,-5.3646,-5.3673,-5.4623,-5.5811,-5.7015,-5.9251,-6.1019,-6.0865,-6.3164,-6.4962,-6.5021,-6.6113,-6.7473,0.0,0.0,-6.8889,-6.8889,0.0,0.0,-6.9006,0.0,-6.9588,-6.9787,-7.0161,-7.0419,-7.0789,-7.0869,-7.1392,-7.2485,-7.3599,-7.519,-7.7223,-7.7223,-7.7223,-7.7223,-7.7223,-7.7223,-7.7223,-7.7223,-7.7223,-7.7223,-7.7223,-7.7223,-7.7154,-7.643,-7.6154,-7.6192,-7.6174,-7.6232,-7.6393,0.0,0.0,0.0,0.0,0.0,0.0,0.0,0.0,0.0,0.0,0.0,0.0,0.0,0.0,0.0,0.0,0.0,0.0,-4.5092,-4.5366,-4.5763,-4.5893,-4.599,-4.6001,-4.5595,-4.546,-4.5324,-4.5324,-4.5051,-4.5051,-4.5051,-4.4778,-4.4778,-4.4778,-4.4778,-4.4778,-4.4778,-4.4778,-4.5005,-4.5234,-4.5097,-4.5942,-4.7596,-4.8403,-4.9767,-5.1505,-5.2768,-5.3484,-5.41,-5.5017,-5.5949,-5.6766,-5.6902,-5.6766,-5.6495,-5.6359,-5.5654,-5.4867,-5.4569,-5.4162,-5.3782,-5.3646,-5.3592,-5.3592,-5.3592,-5.3944,-5.4379,-5.4867,-5.5545,-5.6323,-5.7013,-5.9239,-6.1309,-6.2267,-6.4661,-6.6744,-6.7683,-6.8132,-6.852,-6.8858,-6.8889,-6.9006,-6.924,-6.924,0.0,0.0,-6.9703,-6.9818,-7.0161,-7.0532,-7.0676,-7.0789,-7.158,-7.2485,-7.3566,-7.5417,-7.6611,-7.7223,-7.7223,-7.7223,-7.7223,-7.7223,-7.7223,-7.7223,-7.7223,-7.7223,-7.7223,-7.7223,-7.7223,-7.7189,-7.7016,-7.6973,-7.7097,-7.7709,-7.7473,-7.7163,0.0,0.0,0.0,0.0,0.0,0.0,0.0,0.0,0.0,0.0,0.0,0.0,0.0,0.0,0.0,0.0,0.0,0.0,0.0,-4.5285,-4.5557,-4.5693,-4.6215,-4.6461,-4.6271,-4.6271,-4.6271,-4.6271,-4.6001,-4.5731,-4.5731,-4.546,-4.5324,-4.5324,-4.5324,-4.5324,-4.5324,-4.5324,-4.5575,0.0,0.0,-4.697,-4.8779,-4.9261,-5.0567,-5.2216,-5.3496,-5.4567,-5.5499,-5.6381,-5.6902,-5.7174,-5.7174,-5.6794,-5.6251,-5.598,-5.5247,-5.4433,-5.4162,-5.3863,-5.3592,-5.3592,-5.3782,-5.4053,-5.4324,-5.4867,-5.5464,-5.6061,-5.6875,-5.7581,-5.7933,-6.0611,-6.2658,-6.2876,-6.5622,-6.7795,-6.8026,-6.8505,-6.9006,-6.9123,-6.9123,-6.924,-6.9588,-6.9588,-6.9703,0.0,-7.0047,-7.0047,-7.0275,-7.0645,-7.0789,-7.0789,-7.1874,-7.3187,-7.4669,-7.6392,-7.7223,-7.7223,-7.7223,-7.7223,-7.7223,-7.7223,-7.7223,-7.7223,0.0,-7.7223,-7.7223,-7.7223,-7.7223,-7.7189,-7.6878,-7.6921,-7.7322,-7.7453,-7.7379,-7.7393,0.0,0.0,0.0,0.0,0.0,0.0,0.0,0.0,0.0,0.0,-4.4347,-4.4347,0.0,0.0,0.0,0.0,0.0,0.0,0.0,0.0,-4.5333,-4.579,-4.6391,-4.692,-4.7377,-4.7473,-4.7497,-4.7497,-4.6831,-4.654,-4.654,-4.5866,-4.5595,-4.5595,-4.5595,-4.5595,-4.5595,-4.5595,-4.6258,-4.7176,-4.6728,-4.7981,-5.0101,0.0,-5.0813,-5.3103,-5.3894,-5.5393,-5.7174,-5.6963,-5.699,-5.7174,-5.7092,-5.6658,-5.6061,-5.5464,-5.484,-5.4243,-5.3727,-5.3592,-5.3619,-5.37,-5.4162,-5.4758,-5.5383,-5.6061,-5.6712,-5.7309,-5.834,-5.9127,-5.9209,-6.2332,-6.4438,-6.33,-6.6327,-6.8505,-6.7396,-6.8148,-6.9006,-6.9387,-6.9387,-6.9472,-6.9818,-6.9933,-7.0047,-7.0306,-7.0419,-7.0419,-7.0419,-7.0645,-7.0869,-7.1171,-7.2304,-7.377,-7.5798,-7.6702,-7.7223,-7.7223,-7.7223,-7.7223,-7.7223,-7.7223,-7.7223,-7.7223,0.0,0.0,-7.7223,-7.7223,-7.7223,-7.7154,-7.6588,-7.6865,-7.7379,-7.6823,-7.7019,-7.7559,0.0,0.0,0.0,0.0,0.0,0.0,0.0,0.0,0.0,0.0,-4.4347,-4.4347,0.0,0.0,0.0,0.0,0.0,0.0,0.0,0.0,0.0,-4.5261,-4.6199,-4.6752,-4.6848,-4.7281,-4.7497,-4.7497,-4.7364,-4.7364,-4.7364,-4.7232,-4.7098,-4.7098,-4.7098,-4.7098,-4.7098,-4.7098,-4.7279,-4.7484,-4.7412,-4.9215,-5.1829,-5.0821,0.0,0.0,-5.5551,-5.6105,-5.6963,-5.5545,-5.6095,-5.7092,-5.6604,-5.6034,-5.5437,-5.4813,-5.4216,-5.3727,-5.3619,-5.3592,-5.3727,-5.4216,-5.4786,-5.541,-5.6007,-5.6984,-5.7933,-5.8557,-5.9236,-5.9887,-6.0375,-6.2925,-6.4694,-6.4438,-6.6971,-6.8772,-6.8623,-6.8772,-6.9006,-6.9387,-6.9387,-6.9588,-7.0161,-7.0161,0.0,0.0,0.0,-7.0645,-7.0645,-7.0789,-7.158,-7.3394,-7.4472,-7.5703,-7.6918,-7.7133,-7.7223,-7.7223,-7.7223,-7.7223,-7.7223,-7.7223,-7.7223,-7.7223,0.0,0.0,-7.7223,-7.7223,-7.7223,-7.7278,-7.7891,-7.82,-7.8319,-7.8891,-7.8795,-7.8427,0.0,0.0,0.0,0.0,0.0,0.0,0.0,-4.4347,-4.4347,-4.4347,-4.4347,-4.4347,-4.4347,-4.4347,-4.4347,0.0,0.0,0.0,0.0,0.0,0.0,0.0,0.0,0.0,-4.6704,-4.7233,-4.7497,-4.7497,0.0,-4.7497,-4.7497,-4.7497,-4.7497,-4.7497,-4.7497,-4.7497,-4.7497,-4.7497,-4.7497,-4.7497,-4.7497,-4.8596,-5.0265,-5.0026,0.0,0.0,-5.4861,-5.5815,-5.7092,-5.5956,-5.6084,-5.6631,-5.6034,-5.541,-5.4867,-5.4569,-5.4053,-5.3673,-5.3972,-5.4053,-5.427,-5.5193,-5.5898,-5.6577,-5.7499,-5.8395,-5.9182,-5.9806,-6.0158,-6.043,-6.0728,-6.3066,-6.4822,-6.4822,-6.7093,-6.8889,-6.8889,-6.9006,-6.924,-6.9588,-6.9703,-7.0078,-7.0532,-7.0532,-7.0645,0.0,0.0,-7.0789,-7.0789,-7.1282,-7.2379,-7.3972,-7.5094,-7.6114,-7.7223,-7.7223,-7.7223,-7.7223,-7.7223,-7.7223,-7.7223,-7.7223,-7.7223,-7.7223,-7.7223,0.0,-7.7223,-7.7223,-7.7456,-7.7945,-7.8336,-7.9037,-7.9755,-7.9719,-7.973,-7.9727,0.0,0.0,0.0,0.0,0.0,0.0,-4.4347,-4.4347,-4.4347,-4.4347,-4.4347,-4.4347,-4.4347,-4.4347,-4.4347,0.0,0.0,0.0,0.0,0.0,0.0,0.0,0.0,0.0,0.0,0.0,0.0,-4.7497,-4.7497,0.0,0.0,0.0,0.0,0.0,-4.7497,-4.7497,-4.7497,-4.7497,-4.7497,0.0,0.0,-4.7943,0.0,0.0,0.0,0.0,0.0,-5.5472,-5.6902,-5.6305,-5.6007,-5.5817,-5.522,-5.4786,-5.446,-5.4324,-5.4053,-5.389,-5.4351,-5.4677,-5.5138,-5.6224,-5.7038,-5.7852,-5.8937,-5.9643,-6.0213,-6.0674,-6.1029,-6.1275,-6.1275,-6.3431,-6.5202,-6.5202,-6.7366,-6.8889,-6.8889,-6.924,-6.9472,-6.9818,-7.0047,-7.0419,-7.0789,-7.0789,0.0,0.0,0.0,0.0,-7.1092,-7.2197,-7.329,-7.4273,-7.5383,-7.6392,-7.7223,-7.7223,-7.7223,-7.7223,-7.7223,-7.7223,-7.7223,-7.7223,-7.7223,-7.7223,-7.7223,0.0,0.0,-7.7223,-7.7685,-7.8504,-7.8635,-7.9643,-8.0839,-8.0364,-8.0588,-8.0828,0.0,0.0,0.0,0.0,0.0,0.0,-4.4347,-4.4347,-4.4347,-4.4347,-4.4347,-4.4347,-4.4347,-4.4347,-4.4347,0.0,0.0,0.0,0.0,0.0,0.0,0.0,0.0,0.0,0.0,0.0,0.0,-4.7497,-4.7497,0.0,0.0,0.0,0.0,0.0,0.0,-4.7497,-4.7497,-4.7497,0.0,0.0,0.0,0.0,0.0,0.0,0.0,0.0,0.0,-5.5889,-5.6278,-5.5708,-5.5111,-5.4541,-5.3944,-5.4107,-5.4379,-5.3836,-5.4026,-5.4406,-5.446,-5.5274,-5.6278,-5.6929,-5.7988,-5.9019,-5.967,-6.0267,-6.0701,-6.0755,-6.1789,-6.2669,-6.2669,-6.4822,-6.6757,-6.6757,-6.7879,-6.8889,-6.8889,-6.924,-6.9472,-6.9818,-7.0047,-7.0419,-7.0789,-7.0789,-7.0789,0.0,0.0,0.0,0.0,-7.329,-7.4373,-7.5383,-7.6519,-7.7133,-7.7223,-7.7223,-7.7223,-7.7223,-7.7223,-7.7223,-7.7223,-7.7223,-7.7223,-7.7223,-7.7223,0.0,0.0,-7.7223,-7.7685,-7.8587,-7.9329,-8.0143,-8.0982,-8.1709,-8.1534,-8.0975,0.0,0.0,0.0,0.0,0.0,0.0,-4.4347,-4.4347,-4.4347,-4.4347,-4.4347,-4.4347,-4.4347,-4.4347,-4.4347,-4.4347,0.0,0.0,0.0,0.0,0.0,0.0,0.0,0.0,0.0,0.0,-4.6968,-4.7497,-4.7497,0.0,0.0,0.0,0.0,0.0,0.0,-4.7497,-4.7497,-4.7497,0.0,0.0,0.0,0.0,0.0,0.0,0.0,0.0,0.0,0.0,-5.535,-5.4916,-5.4677,-5.4433,-5.4216,-5.4297,-5.4433,-5.4189,-5.4297,-5.465,-5.5383,-5.6197,-5.7065,-5.8042,-5.891,-5.9697,-6.0267,-6.0593,-6.0782,-6.0782,-6.1896,-6.2773,-6.2773,-6.5076,-6.6879,-6.6879,-6.7998,-6.8889,-6.8889,-6.924,-6.9472,-6.9818,-7.0047,-7.0419,0.0,0.0,0.0,0.0,0.0,0.0,0.0,-7.377,-7.4472,-7.5574,-7.6611,-7.7223,-7.7223,-7.7223,-7.7223,-7.7223,-7.7223,-7.7223,-7.7223,-7.7223,-7.7223,-7.7223,-7.7223,0.0,0.0,-7.7772,-7.8469,-7.9329,-8.0068,-8.0911,-8.1715,-8.2055,-8.2003,-8.1636,0.0,0.0,0.0,0.0,0.0,-4.3974,-4.3974,-4.3974,-4.4099,-4.4223,-4.4347,-4.4347,-4.4347,-4.4347,-4.4347,-4.4347,-4.4347,0.0,0.0,0.0,0.0,0.0,0.0,0.0,0.0,0.0,-4.6824,-4.7497,-4.7497,-4.7497,0.0,0.0,-4.7497,-4.7497,0.0,0.0,0.0,0.0,0.0,0.0,0.0,0.0,0.0,0.0,0.0,0.0,0.0,0.0,0.0,0.0,0.0,-5.4243,-5.4433,-5.4487,-5.4514,-5.4704,-5.4867,-5.5247,-5.6278,-5.7119,-5.796,-5.9019,-5.9697,-6.0267,-6.0674,-6.0782,-6.0782,-6.0782,-6.2164,-6.3431,-6.3431,-6.558,-6.7517,-6.7517,-6.8268,-6.8889,-6.8889,-6.924,-6.9588,-6.9703,0.0,-7.0532,0.0,0.0,0.0,0.0,0.0,0.0,0.0,-7.4472,-7.4963,-7.5986,-7.6828,-7.7223,-7.7223,-7.7223,-7.7223,-7.7223,-7.7223,-7.7223,-7.7223,-7.7223,-7.7223,-7.7223,0.0,0.0,0.0,-7.8082,-7.8963,-7.9762,-8.0623,-8.1474,-8.2186,-8.2186,-8.2186,-8.2113,0.0,0.0,0.0,0.0,0.0,-4.3326,-4.3326,-4.3326,-4.3576,-4.4223,-4.4347,-4.4347,-4.4347,-4.4347,-4.4347,-4.4347,-4.4347,0.0,0.0,0.0,0.0,0.0,0.0,0.0,0.0,0.0,-4.6439,-4.7497,-4.7497,-4.7497,-4.7497,-4.7497,-4.7497,-4.7497,0.0,0.0,0.0,0.0,0.0,0.0,0.0,0.0,0.0,0.0,0.0,0.0,0.0,0.0,0.0,0.0,0.0,0.0,0.0,-5.4487,-5.4596,-5.522,-5.5817,-5.6414,-5.7011,-5.8069,-5.9127,-5.9724,-6.0321,-6.0755,-6.0782,-6.0782,-6.0782,-6.0782,-6.2934,-6.4822,-6.4822,-6.6971,-6.8889,-6.8889,-6.8889,-6.8889,-6.8889,-6.9472,-6.9703,-6.9503,0.0,-7.0645,-7.0306,0.0,0.0,0.0,0.0,0.0,0.0,-7.5574,-7.608,-7.7133,-7.7223,-7.7223,-7.7223,-7.7223,-7.7223,-7.7223,-7.7223,-7.7223,-7.7223,-7.7223,-7.7223,0.0,0.0,0.0,0.0,-7.8082,-7.8963,-7.9762,-8.0623,-8.1474,-8.2186,-8.2186,-8.2186,-8.2186,0.0,0.0,0.0,0.0,0.0,0.0,-4.395,-4.395,-4.4099,-4.4223,-4.4347,-4.4347,-4.4347,-4.4347,-4.4347,-4.4347,-4.4347,0.0,0.0,0.0,0.0,0.0,0.0,0.0,0.0,-4.5934,-4.6439,-4.7497,-4.7497,-4.7497,-4.7497,-4.7497,-4.7497,-4.7497,-4.7497,-4.7497,0.0,0.0,0.0,0.0,0.0,0.0,0.0,0.0,0.0,0.0,0.0,0.0,0.0,0.0,0.0,0.0,0.0,0.0,0.0,-5.6929,-5.7065,-5.7038,-5.7635,-5.8693,-5.9643,-5.9833,-6.0321,-6.0782,-6.0782,-6.0782,-6.0782,-6.0782,-6.2934,-6.4822,-6.4822,-6.7093,-6.8889,-6.8889,-6.8889,-6.8889,-6.8889,-6.924,-6.9588,-6.9703,-7.0306,-7.0789,0.0,0.0,0.0,0.0,0.0,0.0,0.0,-7.5574,-7.608,-7.7133,-7.7223,-7.7223,-7.7223,-7.7223,-7.7223,-7.7223,-7.7223,-7.7223,-7.7223,-7.7223,0.0,0.0,0.0,0.0,0.0,-7.8718,-7.9487,-7.9875,-8.123,-8.1952,-8.2186,-8.2186,-8.2186,-8.2186,0.0,0.0,0.0,0.0,0.0,0.0,-4.3826,-4.395,-4.3974,-4.4223,-4.4347,-4.4347,-4.4347,-4.4347,-4.4347,-4.4347,-4.4347,0.0,0.0,0.0,0.0,0.0,0.0,0.0,-4.591,-4.5934,-4.6439,-4.7497,-4.7497,-4.7497,-4.7497,-4.7497,-4.7497,-4.7497,-4.7497,-4.7497,0.0,0.0,0.0,0.0,0.0,0.0,-5.0129,0.0,0.0,0.0,0.0,0.0,0.0,0.0,0.0,0.0,0.0,0.0,0.0,0.0,-5.7988,-5.7988,-5.8585,-5.9317,-5.9941,-6.0158,-6.0484,-6.0782,-6.0782,-6.1138,-6.1519,-6.1519,-6.3692,-6.558,-6.558,-6.7366,-6.8889,-6.8889,-6.8889,-6.8889,-6.9123,0.0,0.0,-7.0161,0.0,0.0,0.0,0.0,0.0,0.0,0.0,0.0,0.0,0.0,-7.6519,-7.7223,-7.7223,-7.7223,-7.7223,-7.7223,-7.7223,-7.7223,-7.7223,-7.7223,-7.7223,-7.7223,0.0,0.0,0.0,0.0,0.0,-7.917,-7.9839,-8.0328,-8.1647,-8.2186,-8.2186,-8.2186,-8.2186,-8.2186,0.0,0.0,0.0,0.0,0.0,0.0,0.0,-4.3326,-4.3576,-4.4223,-4.4347,-4.4347,-4.4347,-4.4347,-4.4347,-4.4347,-4.4347,0.0,0.0,0.0,0.0,0.0,0.0,0.0,-4.591,-4.5958,-4.6487,-4.7497,-4.7497,-4.7497,-4.7497,-4.7497,-4.7497,-4.7497,-4.7497,-4.7497,0.0,0.0,0.0,0.0,-4.8657,-4.9023,0.0,0.0,0.0,0.0,0.0,0.0,0.0,0.0,0.0,0.0,0.0,0.0,0.0,0.0,0.0,0.0,0.0,-5.9941,-6.0077,-6.062,-6.0782,-6.0782,-6.0782,-6.1761,0.0,-6.2773,-6.4949,-6.6879,-6.6879,-6.7998,-6.8889,-6.8889,-6.8889,-6.9006,0.0,-6.9703,0.0,0.0,0.0,0.0,0.0,0.0,0.0,0.0,0.0,0.0,0.0,0.0,-7.7223,-7.7223,-7.7223,-7.7223,-7.7223,-7.7223,-7.7223,-7.7223,-7.7223,-7.7223,-7.7223,-7.7223,0.0,0.0,0.0,0.0,0.0,-7.9408,-8.0218,-8.0982,-8.1885,-8.2186,-8.2186,-8.2186,-8.2186,-8.2186,0.0,0.0,0.0,0.0,0.0,0.0,0.0,0.0,0.0,0.0,-4.4347,-4.4347,-4.4347,-4.4347,-4.4347,0.0,0.0,0.0,0.0,0.0,0.0,0.0,0.0,0.0,-4.591,-4.6319,-4.6848,-4.7497,-4.7497,-4.7497,-4.7497,-4.7497,-4.7497,-4.7497,-4.7497,-4.7497,0.0,0.0,0.0,0.0,-4.8657,-4.954,0.0,0.0,0.0,0.0,-5.3633,-5.3727,0.0,0.0,0.0,0.0,0.0,0.0,0.0,0.0,-5.8883,-5.9236,-6.0267,0.0,-6.0593,-6.0728,-6.0782,-6.0782,0.0,-6.1761,-6.2773,-6.2773,-6.4949,-6.6879,-6.6879,-6.7998,-6.8889,-6.8889,-6.8889,-6.9006,-6.9387,0.0,0.0,0.0,0.0,0.0,0.0,0.0,0.0,0.0,0.0,0.0,0.0,0.0,-7.7223,-7.7223,-7.7223,-7.7223,-7.7223,-7.7223,-7.7223,-7.7223,-7.7223,-7.7223,-7.7223,-7.7223,0.0,0.0,0.0,0.0,-7.8587,-7.9992,-8.0768,-8.0982,-8.1885,-8.2186,-8.2186,-8.2186,-8.2186,-8.2186,0.0,0.0,0.0,0.0,0.0,0.0,0.0,0.0,0.0,0.0,-4.4347,-4.4347,-4.4347,-4.4347,-4.4347,0.0,0.0,0.0,0.0,0.0,0.0,0.0,0.0,-4.5381,-4.591,-4.6439,-4.6968,-4.7497,-4.7497,-4.7497,-4.7497,-4.7497,-4.7497,-4.7497,-4.7497,-4.7497,0.0,0.0,0.0,-4.763,-4.9177,0.0,0.0,0.0,0.0,0.0,-5.347,-5.3592,0.0,-5.4297,-5.4894,-5.5518,0.0,0.0,0.0,0.0,-5.9209,-5.9616,-6.0511,-6.0782,-6.0782,-6.0782,-6.0782,-6.0782,-6.0782,-6.2298,-6.3663,-6.3663,-6.5831,-6.7879,-6.7879,-6.8386,-6.8889,-6.8889,-6.9006,0.0,0.0,0.0,-7.0645,0.0,0.0,0.0,0.0,0.0,0.0,0.0,0.0,0.0,0.0,0.0,-7.7223,-7.7223,-7.7223,-7.7223,-7.7223,-7.7223,-7.7223,-7.7223,-7.7223,-7.7223,-7.7223,-7.7223,-7.7367,0.0,0.0,0.0,-7.9721,-8.0514,-8.116,-8.1542,-8.2018,-8.2186,-8.2186,-8.2186,-8.2186,-8.2186,0.0,0.0,0.0,0.0,0.0,0.0,0.0,0.0,0.0,0.0,0.0,0.0,0.0,0.0,0.0,0.0,0.0,0.0,0.0,0.0,0.0,0.0,-4.502,-4.5501,-4.603,-4.6559,-4.704,-4.7497,-4.7497,-4.7497,-4.7497,-4.7497,-4.7497,-4.7497,-4.7497,-4.7497,-4.7497,-4.7497,-4.763,-4.7894,-4.9822,0.0,0.0,0.0,0.0,0.0,0.0,0.0,0.0,-5.4379,-5.4976,-5.5545,-5.6224,0.0,0.0,0.0,0.0,0.0,-6.062,-6.0782,-6.0782,-6.0782,-6.0782,-6.0892,-6.1029,-6.3066,-6.4822,-6.5076,-6.7123,-6.8889,-6.8889,-6.8889,-6.8889,-6.8889,0.0,0.0,-7.0161,-7.0757,0.0,0.0,0.0,0.0,0.0,0.0,0.0,0.0,0.0,0.0,0.0,0.0,0.0,-7.7223,-7.7223,-7.7223,-7.7223,-7.7223,-7.7223,-7.7223,-7.7223,-7.7223,-7.7223,-7.7313,-7.7772,0.0,0.0,0.0,-8.0911,-8.1053,-8.1542,-8.2186,-8.2186,-8.2186,-8.2186,-8.2186,-8.2186,-8.2186,0.0,0.0,0.0,0.0,0.0,0.0,0.0,0.0,0.0,0.0,0.0,0.0,0.0,0.0,0.0,0.0,0.0,0.0,0.0,0.0,0.0,-4.5669,-4.5766,-4.6054,-4.6583,-4.7112,-4.7425,-4.7497,-4.7497,-4.7497,-4.7497,-4.7497,-4.7497,-4.7497,-4.7497,-4.7497,-4.7497,-4.7497,-4.8002,-4.8893,-5.0078,0.0,0.0,0.0,0.0,0.0,0.0,0.0,0.0,-5.4894,-5.5328,-5.56,-5.6712,0.0,0.0,0.0,0.0,0.0,-6.062,-6.0782,-6.0782,-6.0782,-6.0782,-6.1166,-6.227,-6.3692,-6.5076,-6.6357,-6.7879,-6.8889,-6.8889,-6.8889,-6.8889,0.0,0.0,0.0,0.0,0.0,0.0,0.0,0.0,0.0,0.0,0.0,0.0,0.0,0.0,0.0,0.0,0.0,0.0,-7.7223,-7.7223,-7.7223,-7.7223,-7.7223,-7.7223,-7.7223,-7.7223,-7.7223,-7.7223,-7.7945,-7.8336,0.0,0.0,-8.0695,-8.0982,-8.1715,-8.2121,-8.2186,-8.2186,-8.2186,-8.2186,-8.2186,-8.2186,-8.2251,0.0,0.0,0.0,0.0,0.0,0.0,0.0,0.0,0.0,0.0,0.0,0.0,0.0,0.0,0.0,0.0,0.0,0.0,0.0,0.0,-4.579,-4.6319,-4.6343,-4.6463,-4.6704,-4.7233,-4.7497,-4.7497,-4.7497,-4.7497,-4.7497,-4.7497,-4.7497,-4.7497,-4.7497,-4.7497,-4.7497,-4.7497,-4.8133,-4.9023,0.0,0.0,0.0,0.0,0.0,0.0,0.0,0.0,0.0,0.0,-5.541,-5.5627,-5.6821,0.0,0.0,0.0,0.0,0.0,-6.0701,-6.0782,-6.1029,-6.1654,-6.1896,-6.227,-6.3533,-6.4949,-6.6109,-6.6757,-6.7998,-6.8889,-6.8889,0.0,-6.9006,-6.9325,0.0,0.0,0.0,0.0,0.0,0.0,0.0,0.0,0.0,0.0,0.0,0.0,0.0,0.0,0.0,0.0,0.0,0.0,-7.7223,-7.7223,-7.7223,-7.7223,-7.7223,-7.7223,-7.7223,-7.7456,-7.7945,-7.8336,-7.8963,-7.9875,0.0,-8.116,-8.161,-8.2018,-8.2186,-8.2186,-8.2186,-8.2186,-8.2186,-8.2186,-8.2186,-8.2316,0.0,0.0,0.0,0.0,0.0,0.0,0.0,0.0,0.0,0.0,0.0,0.0,0.0,0.0,0.0,0.0,0.0,0.0,0.0,-4.6102,-4.6343,-4.6872,-4.6896,-4.6896,-4.6896,-4.7305,-4.7497,-4.7497,-4.7497,-4.7497,-4.7497,-4.7497,-4.7497,-4.7497,-4.7497,-4.7497,-4.7497,-4.7762,-4.8396,-4.9436,0.0,0.0,0.0,0.0,0.0,0.0,0.0,0.0,0.0,0.0,0.0,0.0,0.0,0.0,0.0,-5.8992,-5.9833,-6.0782,-6.0782,-6.0782,-6.1138,-6.2403,-6.2773,-6.33,-6.4949,-6.6109,-6.7001,-6.7245,-6.8148,-6.8889,-6.8889,-6.9006,0.0,-6.9672,0.0,0.0,0.0,0.0,0.0,0.0,0.0,0.0,0.0,0.0,0.0,0.0,0.0,0.0,0.0,0.0,0.0,0.0,-7.7223,-7.7223,-7.7223,-7.7051,-7.6947,-7.6947,-7.7125,-7.7476,-7.7942,-7.8317,-7.915,-8.0332,-8.0579,-8.0995,-8.1636,-8.1636,-8.1636,-8.1636,-8.1636,-8.1746,-8.1929,-8.2113,-8.2316,-8.2434,0.0,0.0,0.0,0.0,0.0,0.0,0.0,0.0,0.0,0.0,0.0,0.0,0.0,0.0,0.0,0.0,0.0,0.0,0.0,-4.6655,-4.6896,-4.7425,-4.7449,-4.7449,-4.7449,-4.7473,-4.7497,-4.7497,-4.7497,-4.7497,-4.7497,-4.7497,-4.7497,-4.7497,-4.7497,-4.7497,-4.7497,-4.8526,-4.9565,-5.0639,-5.2197,0.0,0.0,0.0,0.0,0.0,0.0,0.0,0.0,0.0,0.0,0.0,0.0,0.0,-5.8992,-5.8992,-5.9833,-6.0782,-6.0782,-6.0782,-6.1138,-6.2403,-6.2773,-6.3533,-6.6109,-6.6879,-6.7245,-6.8505,-6.8889,-6.8889,-6.8889,-6.9123,-6.9472,-6.9818,0.0,0.0,0.0,0.0,0.0,0.0,0.0,0.0,0.0,0.0,0.0,0.0,0.0,0.0,0.0,0.0,0.0,0.0,0.0,-7.7223,-7.7223,-7.6533,-7.6189,-7.6189,-7.6949,-7.6947,-7.6292,-7.7807,-7.8562,-7.8702,-7.9552,-7.9883,-7.9947,-7.9947,-7.9947,-7.9947,-7.9947,-8.0424,-8.1195,-8.1929,-8.2497,-8.2994,0.0,0.0,0.0,0.0,0.0,0.0,0.0,0.0,0.0,0.0,0.0,0.0,0.0,0.0,0.0,0.0,0.0,0.0,0.0,-4.7209,-4.7305,-4.7497,-4.7497,-4.7497,-4.7497,-4.7497,-4.7497,-4.7497,-4.7497,-4.7497,-4.7497,-4.7497,-4.7497,-4.7497,-4.7497,-4.7894,-4.8526,-4.8893,-5.0256,-5.2171,-5.276,-5.3486,0.0,0.0,0.0,0.0,0.0,0.0,0.0,0.0,-5.5654,-5.6115,-5.6929,-5.8015,-5.8992,-5.8992,-5.9833,-6.0782,-6.0782,-6.1411,-6.2164,-6.2641,-6.4052,-6.561,-6.6634,-6.7517,-6.8268,-6.8772,-6.8889,-6.8889,-6.8889,0.0,-6.9703,0.0,0.0,0.0,0.0,0.0,0.0,0.0,0.0,0.0,0.0,0.0,0.0,0.0,0.0,0.0,0.0,0.0,0.0,0.0,0.0,-7.7016,-7.6533,-7.6712,-7.6391,-7.545,-7.6199,-7.6957,-7.7628,-7.8241,-7.8763,-7.9304,-7.9636,-7.98,-7.98,-7.98,-7.98,-7.98,-7.98,-7.9984,-8.0341,-8.0973,-8.1311,-8.1623,0.0,0.0,0.0,0.0,0.0,0.0,0.0,0.0,0.0,0.0,0.0,0.0,0.0,0.0,0.0,0.0,0.0,0.0,-4.7473,-4.7497,-4.7497,-4.7497,-4.7497,-4.7497,-4.7497,-4.7497,-4.7497,-4.7497,-4.7497,-4.7497,-4.7497,-4.7497,-4.7497,-4.7497,-4.7894,-4.8494,-4.9296,-4.992,-5.1408,-5.3282,-5.3847,-5.419,0.0,0.0,0.0,0.0,0.0,0.0,0.0,0.0,-5.5952,-5.6441,-5.7201,-5.8178,-5.9046,-5.9236,-6.0374,-6.1383,-6.1383,-6.2164,-6.2906,-6.33,-6.4822,-6.6357,-6.6757,-6.7879,-6.8889,-6.8889,-6.8889,-6.8889,-6.8889,-6.9325,0.0,0.0,0.0,0.0,0.0,0.0,0.0,0.0,0.0,0.0,0.0,0.0,0.0,0.0,0.0,0.0,0.0,0.0,0.0,0.0,0.0,-7.6691,-7.6487,-7.6559,-7.6287,-7.5738,-7.6021,-7.6691,-7.7796,-7.8,-7.8471,-7.8993,-7.8993,-7.8993,-7.8993,-7.8993,-7.8993,-7.9029,-7.9286,-7.9485,-7.9731,-8.0369,-8.0842,-8.1237,0.0,0.0,0.0,0.0,0.0,0.0,0.0,0.0,-4.5934,-4.5934,-4.6391,0.0,0.0,0.0,0.0,0.0,0.0,0.0,-4.7497,-4.7497,-4.7497,-4.7497,-4.7497,-4.7497,-4.7497,-4.7497,-4.7497,-4.7497,-4.7497,-4.7497,-4.7497,-4.7497,-4.7497,-4.7497,-4.8526,-4.9321,-5.0106,-5.2076,-5.3308,-5.4017,-5.5653,-5.5573,-5.4569,0.0,0.0,0.0,0.0,0.0,0.0,0.0,-5.6305,-5.6522,-5.7689,-5.8503,-5.9127,-5.9697,-6.1319,-6.2773,-6.2773,-6.2773,-6.3169,-6.4438,-6.4822,-6.5202,-6.6604,-6.7879,-6.8889,-6.8889,-6.8889,-6.8889,-6.8889,-6.9325,0.0,0.0,0.0,0.0,0.0,0.0,0.0,0.0,0.0,0.0,0.0,0.0,0.0,0.0,0.0,0.0,0.0,0.0,0.0,0.0,0.0,0.0,-7.7228,-7.5765,-7.5814,-7.7257,-7.6565,-7.6203,-7.6203,-7.6993,-7.7304,-7.7304,-7.7304,-7.7304,-7.7304,-7.7304,-7.7304,-7.7414,-7.8259,-7.8906,-7.9391,-8.0282,-8.1252,-8.2165,0.0,0.0,0.0,0.0,0.0,0.0,0.0,0.0,-4.6607,-4.6992,-4.7161,0.0,0.0,0.0,0.0,0.0,0.0,0.0,-4.7497,-4.7497,-4.7497,-4.7497,-4.7497,-4.7497,-4.7497,-4.7497,-4.7497,-4.7497,-4.7497,-4.7497,-4.7497,-4.7497,-4.7894,-4.8526,-4.8523,-4.9825,-5.2102,-5.2362,-5.3632,-5.5653,-5.6097,-5.5844,-5.5166,0.0,0.0,0.0,0.0,0.0,0.0,0.0,0.0,0.0,-5.7825,-5.8503,-5.9127,-5.9697,-6.0539,-6.1411,-6.1411,-6.2802,0.0,-6.3562,-6.558,-6.7487,-6.7001,-6.7879,-6.8889,-6.8889,-6.8889,-6.8889,-6.8889,-6.9325,0.0,0.0,0.0,0.0,0.0,0.0,0.0,0.0,0.0,0.0,0.0,0.0,0.0,0.0,0.0,0.0,0.0,0.0,0.0,0.0,0.0,-7.5967,-7.5695,-7.572,-7.6049,-7.6529,-7.681,-7.6956,-7.6956,-7.7181,-7.7304,-7.7304,-7.7304,-7.7304,-7.7304,-7.7304,-7.7304,-7.7341,-7.8005,-7.8331,-7.861,-7.9616,-8.0159,-8.051,0.0,0.0,0.0,0.0,0.0,0.0,0.0,0.0,-4.7136,-4.7473,-4.7497,-4.7497,0.0,0.0,0.0,0.0,0.0,0.0,-4.7497,-4.7497,-4.7497,-4.7497,-4.7497,-4.7497,-4.7497,-4.7497,-4.7497,-4.7497,-4.7497,-4.7497,-4.7497,-4.7497,-4.7991,-4.8714,-4.9323,-5.0882,-5.3009,-5.3608,-5.4884,-5.6658,-5.6658,-5.6142,-5.5437,0.0,0.0,0.0,0.0,0.0,0.0,0.0,0.0,0.0,-5.8259,-5.8856,-5.9587,-6.0697,-6.1619,-6.2564,-6.3066,-6.4467,0.0,-6.5329,-6.6727,-6.7998,-6.7759,-6.8268,-6.8889,-6.8889,-6.8889,-6.8889,-6.9123,-6.9472,0.0,0.0,0.0,0.0,0.0,0.0,0.0,0.0,0.0,0.0,0.0,0.0,0.0,0.0,0.0,0.0,0.0,0.0,0.0,0.0,0.0,-7.5882,-7.543,-7.594,-7.6295,-7.6636,-7.7118,-7.7304,-7.7304,-7.7304,-7.7304,-7.7304,-7.7304,-7.7304,-7.7304,-7.7304,-7.7426,-7.7651,-7.796,-7.8363,-7.8791,-7.9449,-7.9836,-8.004,0.0,0.0,-4.5731,-4.7232,0.0,0.0,0.0,0.0,-4.7497,-4.7497,-4.7497,-4.7497,0.0,0.0,0.0,0.0,0.0,0.0,-4.7497,-4.7497,-4.7497,-4.7497,-4.7497,-4.7497,-4.7497,-4.7497,-4.7497,-4.7497,-4.7497,-4.7497,-4.7497,-4.7545,-4.7967,-4.8694,-5.0625,-5.2257,-5.3472,-5.5408,-5.6557,-5.7174,-5.7174,-5.6495,-5.5545,-5.6088,0.0,0.0,0.0,0.0,0.0,0.0,0.0,0.0,-5.8856,-5.9453,-6.0239,-6.2103,-6.3562,-6.4949,-6.6233,-6.6757,-6.7123,-6.8386,-6.7879,0.0,-6.8623,-6.8889,-6.8889,-6.8889,0.0,-6.9006,-6.924,0.0,0.0,0.0,0.0,0.0,0.0,0.0,0.0,0.0,0.0,0.0,0.0,0.0,0.0,0.0,0.0,0.0,0.0,0.0,0.0,0.0,0.0,-7.6093,-7.6119,-7.6187,-7.657,0.0,-7.7304,-7.7304,-7.7304,-7.7304,-7.7304,-7.7304,-7.7304,-7.7304,-7.7304,-7.7304,-7.7629,-7.809,-7.8146,-7.8791,-7.9708,-7.9751,-8.0081,-8.0506,0.0,0.0,-4.5731,-4.7232,0.0,0.0,0.0,0.0,0.0,-4.7497,-4.7497,0.0,0.0,0.0,0.0,0.0,0.0,0.0,-4.7497,-4.7497,-4.7497,-4.7497,-4.7497,-4.7497,-4.7497,-4.7497,-4.7497,-4.7497,-4.7497,-4.7497,-4.7521,-4.793,-4.9082,-5.0785,-5.1272,-5.2976,-5.5639,-5.5732,-5.626,-5.7174,-5.7174,-5.6739,-5.6115,-5.6251,-5.6142,0.0,0.0,0.0,0.0,0.0,0.0,0.0,-5.9344,-5.9778,-6.0131,-6.0975,-6.2164,-6.33,-6.3533,-6.5202,-6.7001,-6.7245,-6.7879,-6.8505,-6.8889,-6.8889,-6.8889,-6.8889,-6.9123,-6.924,0.0,0.0,0.0,0.0,0.0,0.0,0.0,0.0,0.0,0.0,0.0,0.0,0.0,0.0,0.0,0.0,0.0,0.0,0.0,0.0,0.0,0.0,-7.6059,-7.6157,-7.6184,-7.6208,-7.657,0.0,-7.7304,-7.7304,-7.7304,-7.7304,-7.7304,-7.7304,-7.7304,-7.7304,-7.7304,-7.7304,-7.7629,-7.8146,-7.8536,-7.9171,-7.9751,-8.0159,-8.0392,-8.0506,0.0,0.0,0.0,0.0,0.0,0.0,0.0,0.0,0.0,0.0,0.0,0.0,0.0,0.0,0.0,0.0,-4.7497,-4.7497,-4.7497,-4.7497,-4.7497,-4.7497,-4.7497,-4.7497,-4.7497,-4.7497,-4.7497,-4.7497,-4.7762,-4.7882,-4.7882,-4.8171,-4.9206,-5.0772,-5.1749,-5.3361,-5.5234,-5.5972,-5.6655,-5.7174,-5.7174,-5.6821,-5.6332,-5.6604,-5.6549,-5.6332,-5.6631,0.0,0.0,0.0,0.0,0.0,0.0,0.0,-6.0484,-6.1436,-6.227,-6.3037,-6.4438,-6.586,-6.7001,-6.7759,0.0,-6.8889,-6.8889,-6.8889,-6.8889,-6.8889,-6.9006,0.0,0.0,0.0,0.0,0.0,0.0,0.0,0.0,0.0,0.0,0.0,0.0,0.0,0.0,0.0,0.0,0.0,0.0,0.0,0.0,0.0,0.0,0.0,-7.6438,-7.6542,-7.6203,-7.657,-7.6893,-7.7304,-7.7304,-7.7304,-7.7304,-7.7304,-7.7304,-7.7304,-7.7304,-7.7304,-7.7304,-7.757,-7.8016,-7.8574,-7.9037,-7.9583,-8.0119,-8.0392,-8.0506,-8.0506,0.0,0.0,0.0,0.0,0.0,0.0,0.0,0.0,0.0,0.0,0.0,0.0,0.0,0.0,0.0,0.0,0.0,0.0,-4.7497,-4.7497,-4.7497,-4.7497,-4.7497,-4.7497,-4.7497,-4.7497,-4.7545,-4.7642,-4.8074,-4.8522,-4.8826,-4.8691,-4.9286,-5.0523,-5.2346,-5.3726,-5.4567,-5.6367,-5.7174,-5.7174,-5.7174,-5.6902,-5.6495,-5.6984,-5.6929,-5.6685,-5.7174,-5.7716,-5.8232,-5.834,0.0,0.0,0.0,0.0,-6.1029,-6.2164,-6.2773,-6.3663,-6.586,-6.6879,-6.7517,-6.8623,-6.8889,0.0,-6.8889,-6.8889,-6.8889,-6.8889,-6.9006,0.0,0.0,0.0,0.0,0.0,0.0,0.0,0.0,0.0,0.0,0.0,0.0,0.0,0.0,0.0,0.0,0.0,0.0,0.0,0.0,0.0,-7.7042,-7.6348,-7.7062,-7.7128,-7.6439,-7.6993,-7.7304,-7.7304,-7.7304,-7.7304,-7.7304,-7.7304,-7.7304,-7.7304,-7.7304,-7.7365,-7.745,-7.7903,-7.8469,-7.9085,-7.9494,-8.004,-8.0506,-8.0506,-8.0506,-8.0506,0.0,0.0,0.0,0.0,0.0,0.0,0.0,0.0,0.0,0.0,-4.7497,-4.7497,0.0,0.0,-4.7497,-4.7497,-4.7497,-4.7497,-4.7497,0.0,0.0,-4.7497,-4.7497,-4.7497,-4.7497,-4.7497,-4.7714,-4.8195,-4.8267,-4.929,-5.1123,-5.019,-5.0788,-5.2673,-5.3426,-5.4916,-5.6785,-5.7044,-5.7174,-5.7174,-5.7174,-5.7146,-5.7065,-5.7146,-5.7445,-5.7852,-5.7933,-5.834,-5.8964,-5.948,-5.9751,0.0,0.0,0.0,-6.092,-6.1029,-6.2669,-6.4567,-6.4949,-6.6849,-6.8654,-6.8889,-6.8889,-6.8889,-6.8889,0.0,-6.8889,0.0,0.0,0.0,0.0,0.0,0.0,0.0,0.0,0.0,0.0,0.0,0.0,0.0,0.0,0.0,0.0,0.0,0.0,0.0,0.0,0.0,-7.7223,-7.7945,-7.7931,-7.7174,-7.7955,-7.7933,-7.7118,-7.7243,-7.7304,-7.7304,-7.7304,-7.7304,-7.7304,-7.7304,-7.7304,-7.7304,-7.7304,-7.757,-7.8016,-7.8072,-7.869,-7.9621,-7.9665,-8.004,-8.0506,-8.0506,-8.0506,-8.0506,0.0,0.0,0.0,0.0,0.0,0.0,0.0,0.0,0.0,0.0,0.0,-4.7497,0.0,-4.7497,-4.7497,-4.7497,-4.7497,-4.7497,-4.7497,-4.7497,-4.7497,-4.7497,-4.7497,-4.7497,-4.7497,-4.7786,-4.805,-4.8291,-4.8892,-4.9947,-5.1482,-5.1368,-5.2042,-5.3535,-5.4489,-5.5419,-5.6367,-5.6915,-5.7174,-5.7174,-5.7174,-5.7174,-5.7228,-5.7553,-5.7852,-5.8123,-5.8476,-5.8992,-5.9534,-5.9806,-6.0104,-6.043,-6.0701,0.0,0.0,0.0,-6.2164,-6.4052,-6.561,-6.7366,-6.8889,-6.8889,-6.8889,-6.8889,-6.8889,-6.8889,-6.8889,0.0,0.0,0.0,0.0,0.0,0.0,0.0,0.0,0.0,0.0,0.0,0.0,0.0,0.0,0.0,0.0,0.0,0.0,0.0,0.0,-7.7367,-7.7858,-7.8252,-7.8301,-7.7991,-7.8311,-7.8135,-7.7341,-7.7304,-7.7304,-7.7304,-7.7304,-7.7304,-7.7304,-7.7304,-7.7304,-7.7304,-7.7629,-7.7846,-7.8146,-7.8741,-7.9265,-7.9708,-8.004,-8.0277,-8.0506,-8.0506,-8.0506,-8.0506,0.0,0.0,0.0,0.0,0.0,0.0,0.0,0.0,0.0,0.0,0.0,0.0,0.0,0.0,0.0,0.0,-4.7497,-4.7497,-4.7497,-4.7497,-4.7497,-4.7497,-4.7617,-4.769,-4.769,-4.8219,-4.8555,-4.87,-4.9469,-5.0596,-5.209,-5.2491,-5.3487,-5.4727,-5.5286,-5.571,-5.6105,-5.6915,-5.7174,-5.7174,-5.7174,-5.7282,-5.7472,-5.7906,-5.8259,-5.8585,-5.9073,-5.9616,-6.0104,-6.0104,-6.0403,-6.0782,-6.0782,-6.0782,0.0,0.0,0.0,-6.431,-6.6757,-6.8148,-6.8889,-6.8889,-6.8889,-6.8889,0.0,0.0,-6.9006,0.0,0.0,0.0,0.0,0.0,0.0,0.0,0.0,0.0,0.0,0.0,0.0,0.0,0.0,0.0,0.0,0.0,0.0,0.0,0.0,-7.7772,-7.8504,-7.8882,-7.8895,-7.8524,-7.8695,-7.837,-7.7341,-7.7304,-7.7304,-7.7304,-7.7304,-7.7304,-7.7304,-7.7426,-7.751,-7.751,-7.7903,-7.8255,-7.8574,-7.9358,-7.9751,-7.9958,-8.0354,-8.0506,-8.0506,-8.0506,-8.0506,-8.0506,0.0,0.0,0.0,0.0,0.0,0.0,0.0,0.0,0.0,0.0,0.0,0.0,-4.7497,-4.7497,-4.7497,-4.7497,-4.7497,-4.7497,-4.7497,-4.7497,-4.7497,-4.7497,-4.7978,0.0,-4.8243,-4.8772,-4.9277,-4.9782,-4.983,-5.1206,-5.3733,-5.3759,-5.4994,-5.7044,-5.5973,-5.6105,-5.7174,-5.7174,-5.7174,-5.7174,-5.7174,-5.7526,-5.8042,-5.8069,-5.8774,-5.9806,-5.9833,-6.0213,-6.0728,-6.0728,-6.0728,-6.0782,-6.0782,-6.0782,-6.1029,0.0,0.0,0.0,-6.8386,-6.8889,-6.8889,-6.8889,-6.8889,-6.9006,0.0,0.0,0.0,0.0,0.0,0.0,0.0,0.0,0.0,0.0,0.0,0.0,0.0,0.0,0.0,0.0,0.0,0.0,0.0,0.0,0.0,0.0,0.0,-7.842,-7.8504,-7.9952,-8.0116,-7.8593,-7.9304,-7.893,-7.7341,-7.7304,-7.7304,-7.7304,-7.7304,-7.7304,-7.7304,-7.7826,-7.8072,-7.8072,-7.8128,-7.8677,-7.9621,-7.9665,-7.9999,-8.0468,-8.0506,-8.0506,-8.0506,-8.0506,-8.0506,-8.0506,0.0,0.0,0.0,0.0,0.0,0.0,0.0,0.0,0.0,0.0,0.0,0.0,0.0,-4.7497,-4.7497,-4.7497,-4.7497,-4.7642,-4.7978,-4.8002,-4.8147,-4.8507,-4.87,-4.8796,-4.8796,-4.9325,-4.9686,-4.9878,-5.0864,-5.2216,-5.3894,-5.4593,-5.5815,-5.7174,-5.6785,-5.6785,-5.7174,-5.7174,-5.7391,-5.7743,-5.7743,-5.8123,-5.872,-5.91,-5.9507,-5.9941,-6.0321,-6.0593,-6.0782,-6.0782,-6.0782,-6.0782,-6.0782,-6.0782,-6.1275,-6.3431,-6.5455,-6.7123,-6.8505,-6.8889,-6.8889,-6.8889,-6.8889,-6.8889,-6.9006,-6.9123,0.0,0.0,0.0,0.0,0.0,0.0,0.0,0.0,0.0,0.0,0.0,0.0,0.0,0.0,0.0,0.0,0.0,0.0,0.0,0.0,0.0,0.0,-7.92,-7.9288,-7.9126,-7.8573,-7.8867,-7.8479,-7.7341,-7.7304,-7.7304,-7.7304,-7.7304,-7.745,-7.7826,-7.8016,-7.8469,-7.9123,-7.9123,-7.9358,-7.9708,-8.004,-8.0354,-8.0506,-8.0506,-8.0506,-8.0506,-8.0506,-8.0506,-8.0506,0.0,0.0,0.0,0.0,0.0,-4.5866,-4.6271,-4.654,-4.6965,-4.7497,0.0,0.0,0.0,0.0,-4.7569,-4.7762,-4.793,-4.8171,-4.8531,-4.8555,-4.87,-4.906,-4.9253,-4.9349,-4.9349,-4.9686,-4.995,-5.0143,-5.1125,-5.2379,-5.3894,-5.4727,-5.5815,-5.7174,-5.7174,-5.7174,-5.7201,-5.7391,-5.7716,-5.8096,-5.8286,-5.8747,-5.9344,-5.9751,-6.0023,-6.024,0.0,0.0,0.0,-6.0782,-6.0782,-6.0782,-6.0782,-6.1411,-6.2564,-6.431,-6.6109,-6.7759,-6.8623,-6.8889,-6.8889,-6.8889,-6.8889,-6.9006,-6.9123,0.0,0.0,0.0,0.0,0.0,0.0,0.0,0.0,0.0,0.0,0.0,0.0,0.0,0.0,0.0,0.0,0.0,0.0,0.0,0.0,0.0,0.0,0.0,-7.9247,-7.9053,-7.8807,-7.8626,-7.8332,-7.7892,-7.7341,-7.7304,-7.7304,-7.7304,-7.7304,-7.757,-7.8128,-7.8309,-7.8841,-7.9708,-7.9916,-7.9958,-7.9999,-8.0354,-8.0506,-8.0506,-8.0506,-8.0506,-8.0506,-8.0506,-8.0506,-8.0506,0.0,0.0,-4.4228,-4.4228,-4.5324,-4.6271,-4.6405,-4.6965,-4.7497,-4.7497,0.0,0.0,0.0,0.0,0.0,-4.8267,-4.8772,-4.9084,-4.9109,-4.9109,-4.9109,-4.9133,-4.9614,-4.9878,-4.9878,-4.9878,-5.0167,-5.0696,-5.0307,-5.1368,-5.3894,-5.4029,-5.5127,-5.7174,-5.7201,-5.7201,-5.7255,-5.7825,-5.8096,-5.8178,-5.8774,-5.9371,-5.9914,-5.9914,-6.0267,0.0,-6.0782,-6.0782,0.0,-6.0782,-6.0782,-6.0782,-6.092,-6.2669,-6.4822,-6.4822,-6.6727,-6.8889,0.0,0.0,0.0,-6.8889,-6.8889,-6.9006,-6.9672,0.0,0.0,0.0,0.0,0.0,0.0,0.0,0.0,0.0,0.0,0.0,0.0,0.0,0.0,0.0,0.0,0.0,0.0,0.0,0.0,0.0,0.0,-7.8484,-7.8484,-7.9267,-7.936,-7.8589,-7.7745,-7.7304,-7.7304,-7.7304,-7.7304,-7.7304,-7.7304,-7.7592,-7.8146,-7.869,-7.9218,-7.9751,-8.0238,-8.0506,-8.0506,-8.0506,-8.0506,-8.0506,-8.0506,-8.0506,-8.0506,-8.0506,-8.0506,-8.0506,0.0,-4.3302,-4.3441,-4.3441,-4.3858,-4.4388,-4.546,-4.5731,-4.6271,0.0,0.0,0.0,-4.8026,-4.8411,-4.87,-4.8844,-4.8988,-4.9229,-4.9614,-4.9638,-4.983,-5.0239,-5.0407,-5.0479,-5.0479,-5.0479,-5.0551,-5.0696,-5.2153,-5.3199,-5.3894,-5.5551,-5.6628,-5.7201,-5.7635,-5.7825,-5.7825,-5.7988,-5.8585,-5.9399,-5.9561,-5.9996,-6.0511,-6.0511,-6.062,0.0,0.0,-6.0782,-6.0782,0.0,-6.0782,-6.1029,-6.1896,-6.3431,-6.4949,-6.5985,-6.7487,-6.8889,-6.8889,0.0,0.0,0.0,0.0,0.0,-6.9123,-6.924,0.0,0.0,0.0,0.0,0.0,0.0,0.0,0.0,0.0,0.0,0.0,0.0,0.0,0.0,0.0,0.0,0.0,0.0,0.0,0.0,-7.7416,-7.7928,-7.8528,-7.817,-7.7892,-7.7671,-7.7451,-7.7304,-7.7304,-7.7304,-7.7304,-7.7304,-7.771,-7.8146,-7.869,-7.9265,-7.9751,-8.0315,-8.0468,-8.0506,-8.0506,-8.0506,-8.0506,-8.0506,-8.0506,-8.0506,-8.0506,-8.0506,-8.0506,-8.0506,-4.3184,-4.3184,-4.3184,-4.3184,-4.3719,-4.4388,-4.5187,-4.5595,-4.6206,0.0,0.0,0.0,-4.8555,-4.9084,-4.9397,-4.9397,-4.9614,-4.9878,-5.0191,-5.0215,-5.0359,-5.0696,-5.0696,-5.0696,-5.0696,-5.0479,-5.0479,-5.0696,-5.2192,-5.3258,-5.3894,-5.5683,-5.692,-5.7553,-5.7906,-5.834,-5.8829,-5.8829,-5.9236,-5.9914,-6.0158,-6.0457,-6.0782,-6.0782,-6.0782,0.0,0.0,0.0,-6.0782,-6.0782,-6.0782,0.0,-6.1789,-6.33,-6.4949,-6.5735,-6.7366,-6.8889,-6.8889,-6.8889,-6.8889,-6.8889,0.0,0.0,-6.9672,-7.0098,-7.0854,0.0,0.0,0.0,0.0,0.0,0.0,0.0,0.0,0.0,0.0,0.0,0.0,0.0,0.0,0.0,0.0,0.0,0.0,-7.6841,-7.7144,-7.7523,-7.8075,-7.7598,-7.7304,-7.7304,-7.7304,-7.7304,-7.7304,-7.7304,-7.7426,-7.7629,-7.796,-7.8521,-7.9227,-7.9538,-7.9999,-8.0506,-8.0506,-8.0506,-8.0506,-8.0506,-8.0506,-8.0506,-8.0506,-8.0506,-8.0506,-8.0506,-8.0506,-8.0506,0.0,-4.3184,-4.3184,-4.3184,-4.425,-4.5074,-4.5256,-4.5959,-4.6823,0.0,-4.7869,-4.7946,-4.9109,-4.9638,-4.995,-4.995,-5.0407,-5.0696,-5.0696,-5.0696,-5.0696,-5.0696,-5.0696,-5.0696,-5.0696,-5.0215,-5.0191,-5.0696,-5.1418,-5.2463,-5.3894,-5.5206,-5.661,-5.8069,-5.8205,-5.8883,-5.9887,-5.9941,-5.9996,-6.0023,-6.0565,-6.0782,0.0,0.0,-6.0782,-6.0782,-6.0782,-6.0782,-6.0782,-6.0782,-6.0782,0.0,-6.1166,-6.2934,-6.4822,-6.5202,-6.6971,-6.8889,-6.8889,-6.8889,-6.8889,-6.8889,-6.8889,0.0,-7.055,-7.1186,-7.21,0.0,0.0,0.0,0.0,0.0,0.0,0.0,0.0,0.0,0.0,0.0,0.0,0.0,0.0,0.0,0.0,-7.5068,-7.5441,-7.6135,-7.6893,-7.7304,-7.7304,-7.7304,-7.7304,-7.7304,-7.7304,-7.7304,-7.7304,-7.7365,-7.7629,-7.809,-7.82,-7.8741,-7.9708,-7.9751,-8.004,-8.0506,-8.0506,-8.0506,-8.0506,-8.0506,-8.0506,-8.0506,-8.0506,-8.0506,-8.0506,-8.0506,-8.0506,-8.0506,-4.3184,-4.3184,-4.3184,-4.3184,-4.3441,-4.3969,-4.4905,-4.5644,-4.668,-4.7884,-4.8725,-4.9451,-4.971,-5.0215,-5.0551,-5.0551,-5.0648,-5.0696,-5.0696,-5.0696,-5.0696,-5.0696,-5.0696,-5.0696,-5.0696,-5.06,-5.06,-5.0696,-5.2591,-5.3656,-5.3894,-5.6425,-5.7829,-5.8096,-5.91,-5.967,-5.9914,-6.0403,-6.0593,-6.0593,-6.0728,-6.0782,-6.0782,-6.0782,-6.0782,-6.0782,-6.0782,-6.0782,-6.0782,-6.0782,-6.0782,-6.1166,0.0,0.0,0.0,-6.7487,-6.8505,-6.8889,-6.8889,-6.8889,-6.8889,-6.8889,-6.8889,0.0,-6.9209,-7.0067,-7.1233,0.0,0.0,0.0,0.0,0.0,0.0,0.0,0.0,0.0,0.0,0.0,0.0,0.0,0.0,0.0,0.0,-7.5549,-7.6068,-7.6203,-7.6893,-7.7304,-7.7304,-7.7304,-7.7304,-7.7304,-7.7304,-7.7304,-7.7304,-7.771,-7.8016,-7.809,-7.8978,-7.9494,-7.9708,-8.0159,-8.0392,-8.0506,-8.0506,-8.0506,-8.0506,-8.0506,-8.0506,-8.0506,-8.0506,-8.0506,-8.0506,-8.0506,-8.0506,-8.0506,-4.3184,-4.3184,-4.325,-4.3468,-4.3793,-4.4369,-4.5259,-4.6029,-4.6772,-4.7584,-4.852,-4.9416,-5.0287,-5.0245,-5.0246,-5.0696,-5.0696,-5.0696,-5.0696,-5.0696,-5.0696,-5.0696,-5.0696,-5.0696,-5.0696,-5.0696,-5.0696,-5.0696,-5.313,-5.433,-5.4355,-5.7277,-5.8693,-5.8992,-5.9616,-6.005,-6.0348,-6.0647,-6.0782,-6.0782,-6.0782,0.0,-6.0782,-6.0782,-6.0782,-6.0782,-6.0782,-6.0782,-6.0782,-6.0782,-6.0782,0.0,-6.3169,-6.431,-6.5202,0.0,-6.8386,-6.8889,-6.8889,-6.8889,-6.8889,-6.8889,0.0,0.0,0.0,-7.1123,-7.2175,0.0,0.0,0.0,0.0,0.0,0.0,0.0,0.0,0.0,0.0,0.0,0.0,0.0,0.0,0.0,0.0,-7.5963,-7.6336,-7.67,-7.7118,-7.7304,-7.7304,-7.7304,-7.7304,-7.7304,-7.7304,-7.7426,-7.771,-7.796,-7.8363,-7.8891,-7.9449,-7.9836,-8.0119,-8.0392,-8.0506,-8.0506,-8.0506,-8.0506,-8.0506,-8.0506,-8.0506,-8.0506,-8.0506,-8.0506,-8.0506,-8.0506,-8.0506,-8.0543,-4.3337,-4.3316,-4.3447,-4.3927,-4.456,-4.514,-4.5488,-4.6291,-4.7019,-4.7689,-4.8269,-4.8957,-5.0128,-4.9675,-4.9675,-5.0412,-5.0412,-5.0602,-5.084,-5.0864,-5.0912,-5.1008,-5.1008,-5.1008,-5.1008,-5.1008,-5.1008,-5.1008,-5.3632,-5.4945,-5.4945,-5.7918,-5.9426,-5.9887,-5.9996,-6.0321,-6.0782,-6.0782,-6.0782,-6.0782,0.0,-6.0782,-6.0782,-6.0782,-6.0782,-6.0782,-6.0782,-6.0782,-6.0782,-6.0782,-6.0782,-6.1029,-6.2669,-6.3923,0.0,0.0,0.0,-6.8889,0.0,0.0,0.0,0.0,0.0,-6.941,0.0,0.0,0.0,0.0,0.0,0.0,0.0,0.0,0.0,0.0,0.0,0.0,0.0,0.0,0.0,0.0,0.0,0.0,0.0,-7.6403,-7.6636,-7.7243,-7.7304,-7.7304,-7.7304,-7.7304,-7.7304,-7.7304,-7.7426,-7.7651,-7.8128,-7.8309,-7.8841,-7.9708,-7.9794,-8.0081,-8.0506,-8.0506,-8.0506,-8.0506,-8.0506,-8.0506,-8.0506,-8.0506,-8.0506,-8.0506,-8.0506,-8.0506,-8.0506,-8.0506,-8.0505,-8.0578,-4.3862,-4.3774,-4.3949,-4.443,-4.4639,-4.4814,-4.5296,-4.6089,-4.6992,-4.8095,-4.891,-4.9221,-4.8667,-4.8523,-4.8812,-4.9509,-4.9652,-5.0151,-5.1369,-5.1393,-5.161,-5.2091,-5.2091,-5.2091,-5.2091,-5.2091,-5.2091,-5.2091,-5.4386,-5.5534,-5.5534,-5.8506,-5.9806,-5.9914,-6.043,-6.0701,-6.0782,-6.0782,-6.0782,0.0,-6.0782,-6.0782,0.0,-6.0782,-6.0782,-6.0782,-6.0782,-6.0782,-6.0782,0.0,-6.0782,-6.1275,0.0,-6.4694,-6.5329,-6.7879,-6.8772,-6.8889,0.0,0.0,0.0,0.0,-6.8889,0.0,0.0,0.0,-7.2737,-7.4005,0.0,0.0,0.0,0.0,0.0,0.0,0.0,0.0,0.0,0.0,0.0,0.0,0.0,0.0,0.0,0.0,-7.7181,-7.7304,-7.7304,-7.7304,-7.7304,-7.7304,-7.7304,-7.7304,-7.7768,-7.8072,-7.809,-7.9037,-7.9576,-7.9708,-8.0199,-8.043,-8.0506,-8.0506,-8.0506,-8.0506,-8.0506,-8.0506,-8.0506,-8.0506,-8.0506,-8.0506,-8.0506,-8.0506,-8.0506,-8.0506,-8.0576,-8.0778,-4.432,-4.4277,-4.443,-4.4932,-4.5019,-4.5172,-4.5631,-4.5992,-4.6815,-4.8209,-4.8232,-4.8469,-4.9352,-4.9544,-4.9806,-5.0378,0.0,-5.0642,0.0,0.0,-5.1582,-5.2259,-5.2283,-5.2283,-5.2283,-5.2283,-5.255,-5.325,-5.5239,-5.6519,-5.7103,-5.9395,-6.0403,-6.0403,-6.0674,-6.0782,-6.0782,-6.0782,-6.0782,0.0,0.0,0.0,0.0,-6.0782,-6.0782,-6.0782,-6.0782,-6.0782,-6.0892,0.0,-6.1896,0.0,0.0,0.0,0.0,-6.8386,-6.8889,-6.8889,0.0,0.0,0.0,0.0,0.0,0.0,-7.1123,0.0,-7.2842,0.0,0.0,0.0,0.0,0.0,0.0,0.0,-7.219,0.0,0.0,0.0,0.0,0.0,0.0,0.0,0.0,0.0,0.0,0.0,0.0,-7.7304,-7.7304,-7.7304,-7.745,-7.7768,-7.796,-7.8416,-7.8989,-7.9449,-7.9874,-8.0159,-8.0392,-8.0506,-8.0506,-8.0506,-8.0506,-8.0506,-8.0506,-8.0506,-8.0506,-8.0506,-8.0506,-8.0506,-8.0506,-8.0506,-8.0543,-8.0611,-8.0711,-8.0844,-4.4976,-4.4866,-4.4932,-4.5412,-4.55,-4.5609,-4.5959,-4.6151,-4.664,-4.7829,-4.7852,-4.8327,-4.9692,-4.9909,-5.0049,-5.0569,-5.0467,-5.0513,0.0,0.0,-5.1639,-5.2397,-5.2545,-5.2692,-5.2692,-5.2692,-5.3132,-5.3957,-5.577,-5.7113,-5.7957,-5.9989,-6.0782,-6.0782,-6.0782,-6.0782,-6.0782,0.0,-6.0782,-6.0782,-6.0782,-6.0782,-6.0782,-6.0782,-6.0782,-6.0782,-6.0782,-6.0782,-6.1029,-6.2403,-6.2773,0.0,-6.5985,0.0,-6.7123,-6.8505,-6.8889,-6.8889,-6.8889,0.0,0.0,0.0,0.0,0.0,0.0,0.0,0.0,0.0,0.0,0.0,0.0,0.0,-7.2338,-7.1947,0.0,-7.2651,0.0,0.0,0.0,0.0,0.0,0.0,0.0,0.0,0.0,-7.7304,-7.7304,-7.7304,-7.7304,-7.7426,-7.771,-7.8128,-7.8416,-7.8891,-7.9708,-7.9874,-8.0119,-8.0506,-8.0506,-8.0506,-8.0506,-8.0506,-8.0506,-8.0506,-8.0506,-8.0506,-8.0506,-8.0506,-8.0506,-8.0506,-8.0506,-8.0505,-8.0614,-8.0745,-8.0907,-8.1022,-4.5959,-4.5609,-4.5434,-4.5893,-4.598,-4.598,-4.6002,-4.6596,-4.7069,-4.6808,0.0,0.0,0.0,0.0,0.0,0.0,0.0,-4.9147,-5.0559,0.0,-5.2024,0.0,0.0,-5.3774,0.0,-5.3774,-5.3774,-5.3774,-5.6093,-5.7251,-5.7421,-5.9734,-6.0782,-6.0782,-6.0782,-6.0782,-6.0782,-6.0782,-6.0782,-6.0782,-6.0782,-6.0782,-6.0782,0.0,-6.0782,-6.0782,-6.0782,0.0,0.0,-6.2403,-6.2773,0.0,0.0,0.0,0.0,0.0,0.0,0.0,0.0,0.0,0.0,-6.8889,0.0,0.0,0.0,0.0,-7.404,0.0,0.0,0.0,0.0,-7.2428,-7.2248,-7.1736,-7.2448,0.0,0.0,0.0,0.0,0.0,0.0,0.0,0.0,0.0,0.0,-7.7304,-7.7304,-7.7304,-7.7304,-7.7826,-7.809,-7.809,-7.9123,-7.9665,-7.9708,-8.0199,-8.0506,-8.0506,-8.0506,-8.0506,-8.0506,-8.0506,-8.0506,-8.0506,-8.0506,-8.0506,-8.0506,-8.0506,-8.0506,-8.0506,-8.0506,-8.0611,-8.0811,-8.0811,-8.108,-8.1461,-4.6002,-4.5871,-4.5806,-4.598,-4.6002,-4.6002,-4.6002,-4.6414,-4.6849,0.0,0.0,0.0,0.0,-4.9616,-5.0057,0.0,0.0,-5.0004,-5.111,-5.1416,0.0,0.0,0.0,-5.3822,0.0,0.0,-5.4546,-5.6143,-5.6844,-5.816,-5.9595,-6.048,-6.0782,-6.0782,-6.0782,-6.0782,0.0,0.0,0.0,0.0,0.0,-6.0782,-6.0782,0.0,0.0,-6.0782,-6.0782,-6.1411,0.0,-6.3692,-6.4694,-6.586,-6.7638,-6.8268,-6.8268,-6.8772,-6.8889,0.0,0.0,0.0,-6.8889,-6.8889,0.0,0.0,0.0,0.0,0.0,0.0,0.0,0.0,0.0,-7.1988,-7.1672,-7.1634,-7.2398,-7.3241,0.0,0.0,0.0,0.0,0.0,0.0,0.0,0.0,0.0,-7.7304,-7.7629,-7.7826,0.0,-7.8363,-7.8791,-7.9171,-7.9494,-7.9874,-8.0238,-8.0392,-8.0506,-8.0506,-8.0506,-8.0506,-8.0506,-8.0506,-8.0506,-8.0506,-8.0506,-8.0506,-8.0506,-8.0506,-8.0506,-8.0543,-8.0646,-8.0844,-8.106,-8.106,-8.1258,-8.1507,-4.6002,-4.6002,-4.6002,-4.6002,-4.6155,-4.6264,-4.6264,0.0,0.0,0.0,-4.8253,0.0,-4.9583,0.0,-5.0403,0.0,-4.983,-4.9964,-5.0898,-5.1231,0.0,-5.337,-5.3672,0.0,0.0,0.0,0.0,-5.6725,-5.7159,-5.8302,-6.0177,-6.0618,-6.0782,-6.0782,-6.0782,-6.0782,-6.0782,-6.0782,-6.0782,0.0,0.0,-6.0782,0.0,0.0,-6.0782,-6.0892,0.0,-6.203,-6.3037,-6.4949,-6.6109,-6.7123,-6.8505,-6.8889,-6.8889,-6.8889,-6.8889,-6.8889,-6.8889,-6.8889,0.0,-6.941,-7.0186,0.0,-7.2241,0.0,0.0,0.0,0.0,0.0,0.0,-7.1616,-7.1457,-7.2004,-7.2783,-7.3878,0.0,-7.6534,0.0,0.0,0.0,0.0,0.0,0.0,-7.7035,-7.7533,-7.7644,-7.7903,0.0,0.0,-7.9358,-7.9708,-7.9916,-8.0159,-8.0506,-8.0506,-8.0506,-8.0506,-8.0506,-8.0506,-8.0506,-8.0506,-8.0506,-8.0506,-8.0506,-8.0506,-8.0506,-8.0506,-8.0542,-8.0611,-8.0745,-8.103,-8.1323,-8.1323,-8.1451,-8.1695,-4.6024,-4.6046,-4.6068,-4.6068,-4.6461,0.0,0.0,0.0,-4.7684,0.0,-4.8941,-4.9605,-4.992,-4.9964,-4.9964,-4.9964,-4.9359,-4.9201,-5.0121,-5.0898,0.0,0.0,-5.337,-5.3672,-5.3672,0.0,0.0,0.0,-5.6725,-5.785,-5.9149,-6.0315,-6.0782,-6.0782,-6.0782,-6.0782,-6.0782,-6.0782,-6.0782,-6.0782,-6.0782,-6.0782,-6.0782,-6.0782,0.0,-6.1029,-6.227,-6.2906,-6.33,-6.5985,-6.6879,-6.7245,-6.8505,-6.8889,-6.8889,-6.8889,-6.8889,-6.8889,-6.8889,-6.9006,-6.9209,-7.0231,0.0,0.0,0.0,0.0,-7.324,0.0,0.0,0.0,0.0,0.0,-7.1634,-7.2735,-7.3641,-7.4828,-7.6801,-7.7181,-7.7268,0.0,0.0,0.0,0.0,-7.6533,-7.6648,-7.7886,-7.7365,-7.7521,0.0,0.0,-7.9637,-7.9637,-8.0124,-8.0391,-8.043,-8.043,-8.0468,-8.0506,-8.0506,-8.0506,-8.0506,-8.0506,-8.0506,-8.0506,-8.0506,-8.0506,-8.0506,-8.0506,-8.0611,-8.0811,-8.0811,-8.108,-8.1507,-8.1507,-8.1695,-8.1892,-4.6548,-4.6854,-4.7116,0.0,-4.7204,-4.7291,0.0,0.0,0.0,0.0,-4.8627,-4.9069,-4.9201,-4.9201,-4.9201,-4.9201,-4.9065,0.0,0.0,0.0,0.0,-5.1693,-5.2436,-5.2916,-5.2916,-5.3521,-5.4843,-5.687,0.0,-5.8302,-6.0315,-6.0618,-6.0782,-6.0782,-6.0782,-6.0782,-6.0782,-6.0782,-6.0782,-6.0782,-6.0782,-6.0782,0.0,0.0,-6.1411,-6.227,-6.2641,-6.3431,-6.4567,-6.6357,-6.7517,-6.8505,-6.8772,-6.8889,-6.8889,-6.8889,-6.8889,-6.8889,-6.8889,-6.9526,-7.0055,-6.9888,-7.1164,-7.238,0.0,0.0,0.0,0.0,0.0,0.0,0.0,0.0,0.0,-7.2448,-7.392,-7.5441,-7.6737,-7.6517,0.0,-7.6423,0.0,0.0,-7.641,-7.6581,-7.6588,-7.6327,-7.7453,0.0,0.0,0.0,0.0,-7.8447,-7.856,-7.8939,-7.9589,-7.9589,-7.9895,-8.0506,-8.0506,-8.0506,-8.0506,-8.0506,-8.0506,-8.0506,-8.0506,-8.0506,-8.0506,-8.0506,-8.0611,-8.0811,-8.1,-8.1401,-8.1796,-8.1796,-8.1815,-8.1911,-4.7073,-4.7444,0.0,-4.7793,0.0,0.0,-4.7815,0.0,0.0,-4.8492,-4.8733,0.0,-4.8907,-4.8907,-4.8907,-4.8907,-4.8907,0.0,-5.0121,0.0,0.0,-5.1824,-5.2283,-5.274,-5.3068,-5.4098,0.0,-5.7303,0.0,-5.9008,-6.0782,-6.0782,-6.0782,-6.0782,-6.0782,-6.0782,-6.0782,-6.0782,-6.0782,-6.0782,-6.0782,-6.1138,0.0,-6.1378,-6.2012,-6.3236,-6.3561,-6.4406,-6.5418,-6.6824,-6.7657,-6.8027,-6.8027,-6.8243,-6.8458,-6.8458,-6.8674,-6.9006,-6.9526,-6.9847,-7.0283,-7.0845,-7.1513,-7.1983,-7.21,-7.1968,-7.1921,0.0,0.0,0.0,0.0,0.0,0.0,-7.3402,-7.4902,-7.5991,-7.6263,0.0,0.0,0.0,-7.5138,0.0,-7.5363,-7.5824,-7.6154,-7.608,-7.6881,0.0,0.0,0.0,0.0,-7.8022,-7.8022,-7.8252,-7.871,-7.871,-7.913,-7.9971,-7.9971,-8.0162,-8.0506,-8.0506,-8.0506,-8.0506,-8.0506,-8.0506,-8.0506,-8.0614,-8.0783,-8.1,-8.1375,-8.1652,-8.1892,-8.1947,-8.1947,-8.1926,-4.7662,-4.799,0.0,0.0,0.0,0.0,0.0,-4.8623,0.0,-4.8907,0.0,-4.8907,-4.8907,-4.8907,-4.8907,-4.8907,0.0,-4.9201,-4.9964,-4.9964,-5.0588,-5.1977,-5.2283,-5.2588,-5.3521,-5.4819,-5.5997,0.0,-5.8444,-5.9595,-6.0782,-6.0782,-6.0782,-6.0782,-6.0782,-6.0782,-6.0782,-6.0782,-6.0728,-6.0647,-6.092,-6.1623,-6.2492,-6.2089,-6.2765,-6.4064,-6.4575,-6.5263,-6.6012,-6.7286,-6.7412,-6.6919,-6.6919,-6.7319,-6.7781,-6.7781,-6.8181,-6.8845,-7.001,-7.0015,-7.0052,-7.2148,-7.1784,-7.1142,-7.2076,-7.1751,-7.1312,-7.1312,-7.1312,-7.1312,0.0,0.0,0.0,-7.49,-7.5927,0.0,0.0,0.0,0.0,0.0,0.0,0.0,-7.4285,-7.4836,-7.5511,0.0,0.0,0.0,0.0,0.0,0.0,-7.7678,-7.7678,0.0,-7.7831,0.0,-7.8252,-7.913,-7.9245,-7.9665,-8.0353,-8.043,-8.0506,-8.0506,-8.0506,-8.0506,-8.0543,-8.075,-8.097,-8.1296,-8.1734,-8.1892,-8.1911,-8.1998,-8.1991,-8.2007,-4.858,0.0,0.0,0.0,0.0,-4.8864,-4.8798,-4.8842,-4.8907,-4.8907,-4.8907,-4.8907,-4.8907,-4.8907,-4.8907,-4.8907,-4.8907,0.0,0.0,0.0,0.0,-4.9516,-5.0121,-5.0898,-5.1847,-5.36,-5.5361,0.0,0.0,-5.9595,-6.0782,-6.0782,-6.0782,-6.0782,-6.0782,-6.0782,-6.0782,-6.0782,0.0,-6.0185,-6.1176,-6.1501,-6.1385,-6.2263,-6.345,-6.4665,-6.4785,-6.4934,-6.5173,-6.6583,-6.7012,-6.6919,-6.6919,-6.6981,-6.7104,-6.7104,-6.7165,-6.7456,-6.8595,-6.9446,-7.0274,-7.0897,-7.1565,-7.2042,-7.1559,-7.1413,-7.1312,-7.1312,-7.1312,-7.1546,-7.2142,0.0,0.0,0.0,0.0,0.0,0.0,0.0,0.0,0.0,0.0,-7.3416,0.0,0.0,0.0,0.0,0.0,0.0,0.0,0.0,0.0,0.0,0.0,0.0,0.0,0.0,-7.7373,-7.8252,-7.8939,-7.936,-7.9513,-8.02,-8.0506,-8.0506,-8.0506,-8.0506,-8.0543,-8.075,-8.109,-8.1499,-8.1775,-8.1892,-8.1911,-8.1998,-8.2036,-8.2091,-4.8864,0.0,0.0,0.0,0.0,0.0,0.0,-4.8907,0.0,-4.8907,-4.8907,-4.8907,-4.8907,-4.8907,-4.8907,-4.8907,-4.8907,-4.8907,-4.8907,-4.8907,-4.9359,-5.0143,-5.0611,-5.1362,-5.2612,-5.4794,-5.641,-5.7303,0.0,-6.0177,-6.0782,-6.0782,-6.0782,-6.0755,-6.0457,-6.0131,0.0,0.0,0.0,-5.956,-6.0774,-6.1585,-6.2034,-6.2925,-6.4129,-6.5329,-6.4995,-6.4843,-6.5049,-6.6016,-6.615,-6.5873,-6.5873,-6.6119,-6.6396,-6.6396,-6.7063,-6.795,-6.9052,-6.9917,-7.0601,-7.137,-7.1724,-7.1751,-7.1379,-7.1312,-7.1312,-7.1312,-7.1312,-7.1688,-7.2914,-7.387,0.0,0.0,0.0,0.0,0.0,0.0,-7.3347,0.0,0.0,0.0,0.0,0.0,0.0,0.0,0.0,0.0,0.0,0.0,0.0,0.0,0.0,0.0,0.0,0.0,0.0,-7.7335,-7.7755,-7.8404,-7.9283,-7.9704,-8.0086,-8.0506,-8.0506,-8.0542,-8.0681,-8.0992,-8.1387,-8.1716,-8.1873,-8.1892,-8.1911,-8.2007,-8.2078,-8.2116,0.0,-4.8907,0.0,0.0,-4.8907,0.0,-4.8907,-4.8907,-4.8907,-4.8907,-4.8907,-4.8907,-4.8907,-4.8907,-4.8907,-4.8907,-4.8907,-4.8907,-4.8907,-4.8907,-4.9516,-5.1076,-5.1053,-5.1824,-5.3521,-5.5826,-5.7133,0.0,0.0,0.0,-6.0782,-6.0647,-6.0511,0.0,0.0,0.0,0.0,0.0,-5.9043,-5.9303,-6.065,-6.1776,-6.2959,-6.377,-6.4691,-6.5626,-6.5103,-6.4888,-6.498,-6.5503,-6.5349,-6.4888,-6.4888,-6.5257,-6.5688,-6.5991,-6.6995,-6.8318,-6.9723,-7.0239,-7.0719,-7.1849,-7.1751,-7.1312,-7.1312,-7.1312,-7.1401,-7.1546,-7.183,-7.2533,-7.3799,-7.4185,0.0,0.0,0.0,0.0,0.0,0.0,0.0,0.0,0.0,0.0,-7.3963,0.0,0.0,0.0,0.0,0.0,0.0,0.0,0.0,0.0,0.0,-7.5501,-7.5501,0.0,-7.5806,0.0,-7.6609,-7.7411,-7.8748,-7.913,-7.9627,-8.0238,-8.0465,-8.0716,-8.0962,-8.1362,-8.1674,-8.1892,-8.1892,-8.1892,-8.1911,-8.2036,-8.2091,-8.2116,0.0,0.0,0.0,0.0,0.0,0.0,0.0,-4.8907,-4.8907,-4.8907,-4.8907,-4.8907,-4.8907,-4.8907,-4.8907,-4.8907,-4.8907,-4.8907,-4.8907,-4.8907,-4.9359,-5.0121,-5.0277,-5.1053,-5.274,-5.5066,-5.6529,0.0,0.0,-6.0782,0.0,-6.0213,0.0,0.0,0.0,0.0,0.0,-5.8992,-5.9298,-6.0005,-6.1327,-6.2198,-6.3109,-6.4279,-6.4869,-6.498,-6.4918,-6.4888,-6.4918,-6.498,-6.4949,-6.4888,-6.4888,-6.4949,-6.5201,-6.6192,-6.6543,-6.7069,-6.919,-6.9736,-7.0082,-7.1108,-7.1379,-7.1312,-7.1312,-7.1312,-7.1546,-7.2228,-7.3764,-7.4937,-7.4973,-7.5112,-7.535,0.0,0.0,0.0,0.0,0.0,-7.2431,-7.2496,0.0,0.0,0.0,-7.4056,0.0,0.0,0.0,0.0,0.0,0.0,0.0,-7.5501,0.0,-7.5501,-7.5501,-7.5501,0.0,-7.5615,-7.6341,-7.68,-7.6991,-7.8557,-7.9321,-7.9473,-8.0371,-8.1022,-8.1437,-8.1484,-8.1674,-8.1892,-8.1892,-8.1892,-8.1911,-8.1975,-8.2051,-8.2116,0.0,0.0,0.0,0.0,0.0,0.0,0.0,-4.8907,-4.8907,-4.8907,-4.8907,-4.8907,-4.8907,-4.8907,-4.8907,-4.8907,-4.8907,-4.8907,-4.8907,-4.9359,-4.9987,-5.0898,-5.1362,-5.2412,-5.4373,-5.5972,-5.7277,0.0,0.0,0.0,0.0,0.0,0.0,0.0,0.0,-5.8232,-5.7906,-5.876,-5.9233,-5.9611,-6.1637,-6.2674,-6.3044,-6.4412,-6.4888,-6.4888,-6.4888,-6.4888,-6.4888,-6.4888,-6.4888,-6.4888,-6.4888,-6.5297,-6.5884,-6.6385,-6.7395,-6.8568,-6.9475,-7.017,-7.0791,-7.1222,-7.1312,-7.1312,-7.1312,-7.1312,-7.1546,-7.2364,-7.392,-7.5048,-7.4583,-7.4596,-7.4715,0.0,0.0,0.0,0.0,0.0,0.0,-7.2496,0.0,-7.3579,0.0,0.0,0.0,0.0,0.0,0.0,0.0,0.0,0.0,-7.5501,0.0,-7.5501,-7.5501,-7.5501,-7.5501,-7.5501,-7.5806,-7.6227,-7.6723,-7.7946,-7.9124,-8.0256,-8.0935,-8.1337,-8.1507,-8.1674,-8.1796,-8.1892,-8.1892,-8.1892,-8.1911,-8.2022,-8.2078,-8.2116,-4.8907,0.0,-4.8907,0.0,-4.8907,-4.8907,-4.8907,-4.8907,-4.8907,-4.8907,-4.8907,-4.8907,-4.8907,-4.8907,-4.8907,-4.8907,-4.8907,-4.8907,-4.8907,-4.9359,-5.0277,-5.1385,-5.1977,0.0,-5.5582,-5.6725,-5.7876,-5.9008,-6.0177,0.0,0.0,0.0,0.0,0.0,-5.7825,-5.7581,-5.7303,-5.8522,-5.9341,-5.9806,-6.2086,-6.3159,-6.3645,-6.4524,-6.4888,-6.4888,-6.4888,-6.4888,-6.4888,-6.4888,-6.5108,-6.5406,-6.5406,-6.5884,-6.6596,-6.7292,-6.847,-6.976,-7.0076,-7.0699,-7.1312,-7.1312,-7.1312,-7.1312,-7.1312,-7.1457,-7.1917,-7.2996,-7.4315,-7.5011,-7.4575,-7.4145,-7.4004,-7.4287,0.0,0.0,0.0,0.0,0.0,-7.2496,-7.3104,-7.3677,-7.3963,-7.4661,0.0,0.0,0.0,0.0,0.0,0.0,0.0,0.0,0.0,0.0,0.0,-7.5501,-7.5501,-7.5501,-7.5501,-7.5806,-7.6379,-7.7559,-7.9023,-8.0645,-8.1246,-8.1546,-8.1613,-8.1815,-8.1892,-8.1892,-8.1892,-8.1911,-8.1947,-8.2036,-8.2104,-8.2151,-4.8907,-4.8907,-4.8907,-4.8907,-4.8907,-4.8907,-4.8907,-4.8907,-4.8907,-4.8907,-4.8907,-4.8907,-4.8907,-4.8907,-4.8907,-4.8907,-4.8907,-4.8907,-4.8907,-4.8907,-4.9673,0.0,0.0,-5.274,-5.5582,-5.6725,-5.7876,-5.9008,0.0,0.0,-5.986,0.0,0.0,-5.7201,-5.7201,-5.7201,-5.7303,-5.8522,-5.9806,-6.111,-6.2436,-6.3645,-6.4888,-6.4888,-6.4888,-6.4888,-6.4888,-6.4888,-6.4888,-6.4888,-6.5592,-6.6491,-6.6491,-6.6491,-6.691,-6.909,-6.9666,-6.9888,-7.1007,-7.1312,-7.1312,-7.1312,-7.1312,-7.1312,-7.1312,-7.1917,-7.2996,-7.4677,-7.5217,-7.5415,-7.5415,-7.4196,-7.3289,-7.3447,0.0,0.0,0.0,0.0,0.0,-7.2496,-7.2496,-7.2926,-7.3879,0.0,0.0,0.0,0.0,0.0,0.0,0.0,0.0,-7.5501,-7.5501,0.0,-7.5501,-7.5501,-7.5501,-7.5501,-7.5501,-7.5501,-7.5612,-7.7418,-7.9008,-8.026,-8.1136,-8.1674,-8.1892,-8.1892,-8.1892,-8.1892,-8.1892,-8.1947,-8.1991,-8.1991,-8.2091,-8.2192,-4.8907,-4.8907,-4.8907,-4.8907,-4.8907,-4.8907,-4.8907,-4.8907,-4.8907,-4.8907,-4.8907,-4.8907,-4.8907,-4.8907,-4.8907,0.0,-4.8907,-4.8907,0.0,-4.9359,-4.9987,-5.0432,-5.1053,-5.2869,-5.5801,-5.6239,-5.7681,-6.0177,0.0,0.0,0.0,-5.8449,-5.7743,-5.7174,-5.7174,-5.7174,-5.7303,-5.9436,-6.0629,-6.1229,-6.3418,-6.4524,-6.4888,-6.4888,-6.4888,-6.4888,-6.4888,-6.4888,-6.4998,-6.57,-6.6205,-6.6806,-6.8172,-6.8667,-6.8798,-6.9475,-7.0203,-7.0916,-7.1222,-7.1312,-7.1312,-7.1312,-7.1312,-7.1457,-7.2004,-7.2858,-7.3637,-7.4189,-7.432,-7.4268,-7.3824,-7.3432,-7.3106,-7.2775,-7.2563,0.0,0.0,0.0,-7.2496,-7.2496,-7.3104,-7.3677,0.0,-7.4619,0.0,0.0,0.0,0.0,0.0,0.0,0.0,0.0,-7.5501,0.0,-7.5501,-7.5501,-7.5501,-7.5501,-7.5501,-7.5872,-7.6645,-7.8139,-7.9274,-8.0245,-8.1307,-8.1815,-8.1892,-8.1892,-8.1892,-8.1892,-8.1964,-8.1959,-8.2007,-8.2104,-8.2162,-8.2201,-4.8907,-4.8907,-4.8907,-4.8907,-4.8907,-4.8907,-4.8907,-4.8907,-4.8907,-4.8907,-4.8907,-4.8907,-4.8907,-4.8907,0.0,-4.8907,-4.8907,-4.8907,-4.8907,-4.9359,-4.9808,-5.0121,-5.1185,-5.3124,-5.6068,0.0,0.0,-6.0782,-6.0538,-5.9941,-5.8992,-5.8367,-5.7743,-5.7174,-5.7174,-5.7431,-5.8016,-6.0173,-6.1229,-6.1939,-6.4045,-6.4888,-6.4888,-6.4888,-6.4888,-6.4888,-6.4888,-6.5187,-6.5592,-6.628,-6.6982,-6.8004,-6.9283,-6.9982,-7.0296,-7.0296,-7.0791,-7.1312,-7.1312,-7.1312,-7.1312,-7.1312,-7.1312,-7.1566,-7.232,-7.3223,-7.3904,-7.39,-7.373,-7.347,-7.3151,-7.2972,-7.2729,-7.2431,-7.2438,-7.2496,-7.2496,0.0,-7.2553,0.0,0.0,0.0,0.0,-7.4824,0.0,0.0,0.0,0.0,0.0,0.0,0.0,-7.5501,-7.5501,0.0,-7.5501,-7.5501,-7.5532,-7.5633,-7.5692,-7.6117,-7.6889,-7.8022,-7.9011,-7.9929,-8.0961,-8.1582,-8.1892,-8.1892,-8.1911,-8.1947,-8.1975,-8.2022,-8.2091,-8.2172,-8.2201,-8.2218,-4.8907,-4.8907,0.0,0.0,-4.8907,0.0,-4.8907,-4.8907,-4.8907,-4.8907,-4.8907,-4.8907,-4.8907,-4.8907,-4.8907,-4.8907,0.0,0.0,0.0,-4.8907,-4.9201,-4.9964,-5.1624,0.0,-5.5922,-5.7564,-5.9175,-6.0782,-6.0185,-5.9589,-5.8992,-5.8367,-5.7743,-5.7174,-5.7174,-5.7916,-5.9217,-6.0416,-6.1704,-6.3044,-6.4382,-6.4888,-6.4888,-6.4888,-6.4888,-6.4888,-6.4888,-6.5592,-6.6491,-6.6596,-6.7971,-6.9666,-6.9794,-7.0515,-7.1312,-7.1312,-7.1312,-7.1312,-7.1312,-7.1312,-7.1312,-7.1312,-7.1367,-7.1591,-7.2434,-7.3216,-7.383,-7.3826,-7.3361,-7.2907,-7.3057,-7.2655,-7.2321,-7.2438,-7.2496,-7.2496,-7.2496,0.0,-7.2686,0.0,0.0,0.0,0.0,-7.4745,-7.4942,0.0,0.0,0.0,0.0,0.0,-7.5501,-7.5501,-7.5501,-7.5501,-7.5501,-7.5497,-7.5633,-7.581,-7.6041,-7.6224,-7.645,-7.7324,-7.83,-7.9328,-8.0222,-8.1077,-8.1892,-8.1892,-8.1947,-8.1975,-8.1991,-8.2078,-8.2192,-8.2192,-8.2218,-8.2293,0.0,0.0,-4.8907,-4.8907,-4.8907,-4.8907,-4.8907,-4.8907,-4.8907,-4.8907,-4.8907,-4.8907,-4.8907,-4.8907,-4.8907,-4.8907,-4.8907,-4.8907,-4.8907,-4.8907,-4.9065,-4.9201,-5.0698,-5.2646,-5.4721,-5.6479,-5.856,-6.0782,-6.0185,-5.9589,-5.8992,-5.8367,-5.7743,-5.7174,-5.7174,-5.7916,-5.9217,-6.0416,-6.1704,-6.3044,-6.4382,-6.4888,-6.4888,-6.4888,-6.4888,-6.4888,-6.4888,-6.5592,-6.6596,-6.7497,-6.8568,-6.9888,-7.0699,-7.1098,-7.1312,-7.1312,-7.1312,-7.1312,-7.1312,-7.1312,-7.1312,-7.1312,-7.1816,-7.232,-7.2575,-7.2827,-7.3002,-7.2951,-7.2364,-7.1946,-7.2071,-7.2073,-7.2144,-7.2321,-7.2438,-7.2496,-7.2496,-7.2496,0.0,0.0,-7.3616,-7.4064,-7.4664,-7.5095,-7.5392,0.0,0.0,0.0,0.0,-7.5501,-7.5501,-7.5501,-7.5501,-7.5501,-7.5501,-7.5628,-7.581,-7.6041,-7.621,-7.6366,-7.645,-7.7467,-7.8437,-7.9328,-8.0222,-8.1077,-8.1892,-8.1892,-8.1911,-8.1929,-8.1959,-8.2051,-8.214,-8.2182,-8.2218,-8.2293,-4.8907,-4.8907,-4.8907,-4.8907,-4.8907,-4.8907,-4.8907,-4.8907,-4.8907,-4.8907,-4.8907,-4.8907,-4.8907,-4.8907,-4.8907,-4.8907,-4.8907,-4.8907,-4.8907,-4.8907,-4.9201,-4.9942,-5.1601,-5.3378,-5.5311,-5.7226,-5.9149,-6.0782,-6.0457,-5.986,-5.8992,-5.8666,-5.8015,-5.7174,-5.7788,-5.8746,-6.0051,-6.1348,-6.2553,-6.3902,-6.4635,-6.4888,-6.4888,-6.4888,-6.4888,-6.4998,-6.5515,-6.628,-6.7395,-6.847,-6.9571,-7.0482,-7.1098,-7.1312,-7.1312,-7.1312,-7.1312,-7.1312,-7.1312,-7.1312,-7.13,-7.1333,-7.2001,-7.254,-7.2228,-7.2454,-7.2617,-7.2219,-7.1884,-7.1718,-7.1842,-7.2024,-7.2204,-7.2321,-7.2438,-7.2496,-7.2496,-7.2686,0.0,-7.3566,-7.4018,-7.454,-7.5018,-7.5318,-7.5501,-7.5501,0.0,0.0,-7.5501,-7.5501,-7.5501,-7.5501,-7.5501,-7.5501,-7.5501,-7.578,-7.6041,-7.6248,-7.6433,-7.6516,-7.6555,-7.7156,-7.7891,-7.8746,-7.9639,-8.0494,-8.1349,-8.1737,-8.1947,-8.1991,-8.2036,-8.2104,-8.2192,-8.2218,-8.2273,-8.2293,-4.8907,-4.8907,-4.8907,-4.8907,-4.8907,-4.8907,-4.8907,-4.8907,-4.8907,-4.8907,-4.8907,-4.8907,-4.8907,-4.8907,-4.8907,-4.8907,-4.8907,-4.8907,-4.8907,-4.9201,-4.9786,-5.1293,-5.31,-5.4893,-5.6504,-5.8586,-5.9927,-6.0755,-6.0755,-6.0158,-5.8992,-5.8992,-5.8472,-5.7532,-5.862,-5.9929,-6.1348,-6.2436,-6.3645,-6.4888,-6.4888,-6.4888,-6.4888,-6.4888,-6.4888,-6.4998,-6.6098,-6.7189,-6.8271,-6.9379,-7.0389,-7.1312,-7.1312,-7.1312,-7.1312,-7.1312,-7.1244,-7.1142,-7.1142,-7.113,-7.1178,-7.1304,-7.195,-7.237,-7.1654,-7.2017,-7.2327,-7.1639,-7.1656,-7.178,-7.1988,-7.2144,-7.2321,-7.2438,-7.2496,-7.2496,-7.2496,0.0,-7.3466,-7.3963,-7.4417,-7.4903,-7.5427,-7.5501,-7.5501,-7.5501,-7.5501,-7.5501,0.0,-7.5501,-7.5501,-7.5501,-7.5501,-7.5497,-7.5532,-7.5899,-7.6224,-7.6411,-7.6614,-7.6687,-7.6687,-7.6687,-7.7192,-7.8046,-7.8785,-7.9696,-8.0668,-8.1406,-8.1859,-8.2104,-8.2104,-8.2172,-8.2287,-8.2287,-8.2287,-8.2293,-4.8907,-4.8907,-4.8907,-4.8907,-4.8907,-4.8907,-4.8907,-4.8907,-4.8907,-4.8907,-4.8907,-4.8907,-4.8907,-4.8907,-4.8907,-4.8907,-4.8907,-4.8907,-4.8907,-5.0098,-5.1008,-5.1293,-5.4151,-5.5801,-5.6264,-5.847,-5.9787,-6.0315,-6.0618,-6.0158,-5.8992,-5.8992,-5.8968,-5.8746,-5.8996,-6.0416,-6.2668,-6.2784,-6.3645,-6.4888,-6.4888,-6.4888,-6.4888,-6.4888,-6.4888,-6.4998,-6.6098,-6.7189,-6.8271,-6.9379,-7.0389,-7.1312,-7.1312,-7.1312,-7.1312,-7.1312,-7.0872,-7.0364,-7.0364,-7.0345,-7.051,-7.1293,-7.1624,-7.1687,-7.1536,-7.1612,-7.1639,-7.1531,-7.1494,-7.162,-7.1927,-7.2048,-7.2108,-7.2438,-7.2496,-7.2496,-7.2496,0.0,-7.3466,-7.3963,-7.4417,-7.4903,-7.5427,-7.5501,-7.5501,-7.5501,-7.5501,-7.5501,-7.5501,-7.5501,-7.5501,-7.5501,-7.5501,-7.5599,-7.5756,-7.5985,-7.6224,-7.6411,-7.6614,-7.6687,-7.6687,-7.6687,-7.7192,-7.8008,-7.8124,-7.9148,-8.0692,-8.0847,-8.1375,-8.2104,-8.2104,-8.2151,-8.2201,-8.2201,-8.2265,-8.2293,-4.8907,-4.8907,-4.8907,-4.8907,-4.8907,-4.8907,-4.8907,-4.8907,-4.8907,-4.8907,-4.8907,-4.8907,-4.8907,-4.8907,-4.8907,-4.8907,-4.8907,-4.9201,-5.0098,-5.0853,-5.1754,-5.2494,-5.4918,-5.67,-5.8018,-5.9061,-5.9927,-6.048,-6.0755,-6.0158,-5.8992,-5.9731,-5.969,-5.9121,-6.0537,-6.1851,-6.2929,-6.3645,-6.427,-6.4888,-6.4888,-6.4888,-6.4888,-6.4888,-6.5297,-6.5884,-6.6982,-6.8072,-6.909,-7.0203,-7.0916,-7.1312,-7.1312,-7.1041,-7.0703,-7.0703,-7.0466,-7.0094,-6.9722,-6.9962,-7.0322,-7.0726,-7.1158,-7.1477,-7.1504,-7.1494,-7.1494,-7.1494,-7.1494,-7.162,-7.1927,-7.1988,-7.2108,-7.2438,-7.2496,0.0,0.0,-7.3364,-7.3869,-7.4287,-7.4824,-7.5245,-7.5501,-7.5501,-7.5501,-7.5501,-7.5501,-7.5501,-7.5501,-7.5501,-7.5501,-7.5501,-7.5599,-7.5724,-7.578,-7.6121,-7.632,-7.6411,-7.6614,-7.6687,-7.6687,-7.6687,-7.692,-7.7347,-7.7813,-7.8742,-7.9981,-8.0448,-8.1228,-8.2104,-8.2104,-8.2162,-8.2265,-8.2265,-8.228,-8.2293,-4.8907,-4.8907,-4.8907,-4.8907,-4.8907,-4.8907,-4.8907,-4.8907,-4.8907,-4.8907,-4.8907,-4.8907,-4.8907,-4.8907,-4.8907,-4.8907,-4.8907,-4.9651,-5.1139,-5.1601,-5.2646,-5.4151,-5.5801,-5.7446,-5.9368,-5.9508,-5.9927,-6.048,-6.062,-6.0023,-5.8992,-6.019,-6.0259,-5.9588,-6.1851,-6.3044,-6.3418,-6.4412,-6.4888,-6.4888,-6.4888,-6.4888,-6.4888,-6.5187,-6.5808,-6.6701,-6.7971,-6.8993,-6.9888,-7.0916,-7.1312,-7.1278,-7.1109,-7.0669,-7.0161,-6.9992,-6.9964,-6.9832,-6.9509,-6.9703,-7.0152,-7.0519,-7.1004,-7.1494,-7.1494,-7.1494,-7.1494,-7.1494,-7.1531,-7.162,-7.1927,-7.2048,-7.2167,-7.2438,0.0,0.0,0.0,-7.3677,-7.4154,-7.4664,-7.517,-7.5501,-7.5501,-7.5501,-7.5501,-7.5501,-7.5501,-7.5501,-7.5501,-7.5501,-7.5497,-7.5566,-7.5724,-7.578,-7.578,-7.6185,-7.6411,-7.6411,-7.6614,-7.6687,-7.6687,-7.6687,-7.6687,-7.6726,-7.7425,-7.822,-7.9126,-7.9981,-8.0932,-8.1878,-8.2073,-8.2201,-8.2293,-8.2293,-8.2293,-8.2299,-4.8907,-4.8907,-4.8907,-4.8907,-4.8907,-4.8907,-4.8907,-4.8907,-4.8907,-4.8907,-4.8907,-4.8907,-4.8907,-4.8907,-4.8907,-4.8907,-4.8907,-4.9651,-5.1139,-5.2646,-5.43,-5.5826,-5.7472,-5.8355,-5.8523,-5.9228,-5.9648,-5.9648,-5.994,-5.9616,-5.8992,-5.9773,-6.0336,-6.087,-6.232,-6.3532,-6.4777,-6.4888,-6.4888,-6.4888,-6.4888,-6.4888,-6.4998,-6.5991,-6.6385,-6.6806,-6.8863,-6.9666,-6.9888,-7.0916,-7.1312,-7.1176,-7.05,-7.0229,-7.006,-6.9383,-6.9202,-6.9371,-6.9973,-6.9793,-6.9635,-7.1081,-7.1467,-7.1494,-7.1494,-7.1494,-7.1494,-7.1494,-7.1656,-7.1842,-7.1988,-7.2144,-7.2358,-7.2496,0.0,0.0,-7.3246,-7.3677,-7.4154,-7.4664,-7.517,-7.5501,-7.5501,-7.5501,-7.5501,-7.5501,-7.5501,-7.5501,-7.5501,-7.5501,-7.5599,-7.5749,-7.578,-7.578,-7.578,-7.6185,-7.6411,-7.6411,-7.6614,-7.6687,-7.6687,-7.6687,-7.6687,-7.6687,-7.6764,-7.7369,-7.8351,-7.9208,-8.0173,-8.1155,-8.1975,-8.2287,-8.2293,-8.2293,-8.2293,-8.2299,-4.8907,-4.8907,-4.8907,-4.8907,-4.8907,-4.8907,-4.8907,-4.8907,-4.8907,-4.8907,-4.8907,-4.8907,-4.8907,-4.8907,-4.8907,-4.8907,-4.8907,-4.9942,-5.2646,-5.3378,-5.4893,-5.7472,-5.8212,-5.8664,-5.8806,-5.8997,-5.9227,-5.9365,-5.9346,-5.939,-5.9644,-6.0637,-6.1507,-6.2203,-6.3532,-6.4412,-6.4888,-6.4888,-6.4888,-6.4888,-6.4888,-6.5297,-6.5884,-6.6385,-6.7292,-6.8568,-6.9379,-7.0076,-7.0724,-7.0647,-7.0635,-7.05,-6.9755,-6.918,-6.8692,-6.85,-6.8464,-6.8743,-7.0023,-7.0168,-7.006,-7.0642,-7.1139,-7.1494,-7.1494,-7.1494,-7.1494,-7.1494,-7.1656,-7.1842,-7.1988,-7.2144,-7.2358,-7.2496,0.0,-7.2798,-7.3628,-7.3916,-7.4325,-7.5095,-7.5392,-7.5501,-7.5501,-7.5501,-7.5501,-7.5501,-7.5501,-7.5501,-7.5501,-7.5501,-7.5599,-7.578,-7.5928,-7.5985,-7.5985,-7.6389,-7.6516,-7.6411,-7.6614,-7.6687,-7.6687,-7.6687,-7.6687,-7.6687,-7.6738,-7.7268,-7.8182,-7.8546,-7.9578,-8.0969,-8.1321,-8.1804,-8.2293,-8.2293,-8.2271,-8.2217,-4.8907,-4.8907,-4.8907,-4.8907,-4.8907,-4.8907,-4.8907,-4.8907,-4.8907,-4.8907,-4.8907,-4.8907,-4.8907,-4.8907,-4.8907,-4.8907,-4.9337,-5.0853,-5.3528,-5.4597,-5.6239,-5.8355,-5.8523,-5.8586,-5.8684,-5.854,-5.8662,-5.8885,-5.859,-5.9078,-6.002,-6.1163,-6.2025,-6.2929,-6.427,-6.4888,-6.4888,-6.4888,-6.4888,-6.4888,-6.5297,-6.5777,-6.6596,-6.7292,-6.8371,-6.9727,-6.981,-7.033,-7.0838,-7.0094,-6.9857,-6.9722,-6.8944,-6.8199,-6.7624,-6.7948,-6.8172,-6.8676,-7.0025,-7.0575,-7.0745,-7.0745,-7.1139,-7.1494,-7.1494,-7.1494,-7.1494,-7.1593,-7.1718,-7.1903,-7.2084,-7.2263,-7.238,-7.2496,-7.2667,-7.3034,-7.3916,-7.4147,-7.454,-7.5392,-7.5501,-7.5501,-7.5501,-7.5501,-7.5501,-7.5501,-7.5501,-7.5501,-7.5501,-7.5501,-7.5633,-7.5899,-7.6041,-7.6173,-7.6297,-7.6536,-7.6632,-7.6496,-7.6632,-7.6687,-7.6687,-7.6687,-7.6704,-7.6738,-7.6786,-7.7156,-7.778,-7.8102,-7.8974,-8.0181,-8.0727,-8.1336,-8.1903,-8.2215,-8.2242,-8.2186,-4.8907,-4.8907,-4.8907,-4.8907,-4.8907,-4.8907,-4.8907,-4.8907,-4.8907,-4.8907,-4.8907,-4.8907,-4.8907,-4.8907,-4.8907,-4.8907,-5.041,-5.2037,-5.3678,-5.67,-5.8497,-5.8497,-5.8497,-5.8235,-5.766,-5.8052,-5.8038,-5.789,-5.7678,-5.8379,-5.9992,-6.0703,-6.1704,-6.3014,-6.427,-6.4888,-6.4888,-6.4888,-6.4888,-6.4998,-6.6098,-6.6491,-6.6806,-6.8863,-6.9666,-6.9755,-7.0041,-7.0195,-7.006,-6.935,-6.9079,-6.8944,-6.8132,-6.7387,-6.6946,-6.7776,-6.86,-6.9384,-7.0165,-7.0943,-7.1494,-7.1494,-7.1494,-7.1494,-7.1494,-7.1494,-7.1593,-7.1755,-7.1903,-7.2048,-7.2263,-7.238,-7.2496,-7.2496,-7.2963,-7.3466,-7.3963,-7.4374,-7.4903,-7.5427,-7.5501,-7.5501,-7.5501,-7.5501,-7.5501,-7.5501,-7.5501,-7.5501,-7.5501,-7.5501,-7.566,-7.6095,-7.6121,-7.6297,-7.6726,-7.6687,-7.6687,-7.6687,-7.6687,-7.6687,-7.6687,-7.6687,-7.6738,-7.6816,-7.6816,-7.6858,-7.7082,-7.794,-7.8316,-7.8585,-8.0302,-8.1005,-8.1083,-8.1981,-8.2242,-8.2186,-4.8907,-4.8907,-4.8907,-4.8907,-4.8907,-4.8907,-4.8907,-4.8907,-4.8907,-4.8907,-4.8907,-4.8907,-4.8907,-4.8907,-4.9359,-5.0543,-5.0985,-5.2494,-5.5213,-5.6944,-5.7921,-5.7921,-5.7921,-5.766,-5.7085,-5.7324,-5.7785,-5.8625,-5.8668,-5.9843,-6.1997,-6.2292,-6.3044,-6.427,-6.4777,-6.4888,-6.4888,-6.4888,-6.5297,-6.6098,-6.6385,-6.7395,-6.8732,-6.8913,-6.9436,-7.0007,-6.96,-6.9417,-6.9316,-6.8504,-6.8267,-6.8132,-6.7387,-6.7365,-6.7776,-6.86,-6.9419,-7.0234,-7.0943,-7.1368,-7.1494,-7.1494,-7.1494,-7.1494,-7.1494,-7.1593,-7.1718,-7.1816,-7.2024,-7.2204,-7.2299,-7.238,-7.2496,-7.2496,-7.2963,-7.3466,-7.3963,-7.4374,-7.4903,-7.5427,-7.5501,-7.5501,-7.5501,-7.5501,-7.5501,-7.5501,-7.5501,-7.5501,-7.5501,-7.5501,-7.566,-7.6095,-7.6121,-7.6297,-7.6726,-7.6687,-7.6687,-7.6687,-7.6687,-7.6687,-7.6687,-7.6687,-7.6704,-7.6738,-7.6844,-7.687,-7.6955,-7.7294,-7.7837,-7.8468,-7.8975,-7.9912,-8.105,-8.123,-8.1678,-8.2182,-4.8907,-4.8907,-4.8907,-4.8907,-4.8907,-4.8907,-4.8907,-4.8907,-4.8907,-4.8907,-4.8907,-4.8907,-4.8907,-4.8907,-4.9494,-5.1139,-5.2306,-5.3984,-5.6539,-5.7047,-5.7216,-5.6981,-5.6981,-5.6935,-5.6757,-5.7277,-5.7982,-5.874,-5.9386,-6.075,-6.2899,-6.2899,-6.3645,-6.4888,-6.4888,-6.4888,-6.4888,-6.4888,-6.5483,-6.6491,-6.6982,-6.8009,-6.9296,-6.9269,-6.9424,-6.9654,-6.891,-6.8639,-6.8504,-6.7726,-6.7455,-6.7472,-6.7331,-6.765,-6.825,-6.9347,-6.999,-7.0575,-7.1304,-7.1494,-7.1494,-7.1494,-7.1494,-7.1494,-7.1494,-7.1593,-7.1718,-7.1842,-7.2024,-7.2204,-7.2321,-7.2438,-7.2553,-7.2798,-7.3209,-7.3725,-7.4199,-7.4705,-7.5132,-7.5427,-7.5501,-7.5501,-7.5501,-7.5501,-7.5501,-7.5501,-7.5501,-7.5501,-7.5501,-7.5566,-7.5787,-7.6095,-7.6199,-7.6389,-7.6687,-7.6687,-7.6687,-7.6687,-7.6687,-7.6687,-7.6687,-7.6721,-7.6754,-7.6801,-7.687,-7.6965,-7.6995,-7.7082,-7.7414,-7.7921,-7.8272,-7.9248,-8.0504,-8.0811,-8.1445,-8.2171,-4.8907,-4.8907,-4.8907,-4.8907,-4.8907,-4.8907,-4.8907,-4.8907,-4.8907,-4.8907,-4.8907,-4.8907,-4.8907,-4.9044,-4.9808,-5.1447,-5.3961,-5.6147,-5.7582,-5.7033,-5.6484,-5.5935,-5.5857,-5.61,-5.6637,-5.7748,-5.8484,-5.8718,-6.0022,-6.1585,-6.3044,-6.3044,-6.3789,-6.4888,-6.4888,-6.4888,-6.4888,-6.4888,-6.5561,-6.6606,-6.7604,-6.8274,-6.8726,-6.9637,-6.9586,-6.8876,-6.8098,-6.7793,-6.7692,-6.7049,-6.6812,-6.7029,-6.7776,-6.8093,-6.8524,-6.9955,-7.044,-7.0642,-7.1304,-7.1494,-7.1494,-7.1494,-7.1494,-7.1494,-7.1494,-7.1494,-7.162,-7.1927,-7.1988,-7.2108,-7.2438,-7.2553,-7.2742,-7.3193,-7.3725,-7.4199,-7.4664,-7.5132,-7.5501,-7.5501,-7.5501,-7.5501,-7.5501,-7.5501,-7.5501,-7.5501,-7.5501,-7.5501,-7.5501,-7.5692,-7.5899,-7.6095,-7.632,-7.6496,-7.6687,-7.6687,-7.6687,-7.6687,-7.6687,-7.6687,-7.6704,-7.6786,-7.6858,-7.6882,-7.6985,-7.7028,-7.7095,-7.7101,-7.7101,-7.7179,-7.796,-7.8825,-7.9689,-8.0501,-8.1327,-8.209,-4.8907,-4.8907,-4.8907,-4.8907,-4.8907,-4.8907,-4.8907,-4.8907,-4.8907,-4.8907,-4.8907,-4.8907,-4.8907,-4.9942,-5.1447,-5.3076,-5.5591,-5.7172,-5.7007,-5.6432,-5.604,-5.5909,-5.5517,-5.6027,-5.7642,-5.7999,-5.8676,-5.9749,-6.1467,-6.3044,-6.4524,-6.4524,-6.4635,-6.4888,-6.4888,-6.4888,-6.4888,-6.4888,-6.5678,-6.6864,-6.7163,-6.7937,-6.8985,-6.8553,-6.8301,-6.8064,-6.732,-6.7049,-6.7015,-6.688,-6.7195,-6.7776,-6.7935,-6.8903,-6.9955,-7.0303,-7.0811,-7.1304,-7.1431,-7.1494,-7.1494,-7.1494,-7.1494,-7.1494,-7.1494,-7.1656,-7.178,-7.1988,-7.2144,-7.2263,-7.2438,-7.2853,-7.3141,-7.3298,-7.4009,-7.4544,-7.4705,-7.5132,-7.5501,-7.5501,-7.5501,-7.5501,-7.5501,-7.5501,-7.5501,-7.5501,-7.5501,-7.5501,-7.5501,-7.5692,-7.587,-7.6095,-7.632,-7.6496,-7.6687,-7.6687,-7.6687,-7.6687,-7.6687,-7.6721,-7.6786,-7.6816,-7.6858,-7.6882,-7.6985,-7.7012,-7.702,-7.7089,-7.7101,-7.7101,-7.7296,-7.7903,-7.8782,-7.9607,-8.0445,-8.1265,-4.8907,-4.8907,-4.8907,-4.8907,-4.8907,-4.8907,-4.8907,-4.8907,-4.8907,-4.8907,-4.8907,-4.9201,-4.9942,-5.0853,-5.2096,-5.423,-5.5983,-5.6693,-5.6405,-5.5857,-5.5517,-5.5517,-5.5255,-5.5842,-5.7578,-5.8537,-5.9749,-6.1438,-6.3044,-6.4158,-6.4888,-6.4888,-6.4888,-6.4888,-6.4888,-6.4703,-6.4395,-6.4909,-6.571,-6.6517,-6.7003,-6.7737,-6.847,-6.8064,-6.7692,-6.732,-6.6948,-6.6812,-6.6812,-6.6812,-6.7325,-6.8093,-6.8447,-6.9419,-7.044,-7.0811,-7.124,-7.1494,-7.1494,-7.1494,-7.1494,-7.1494,-7.1494,-7.1494,-7.1494,-7.1656,-7.1842,-7.1988,-7.2144,-7.2438,-7.2798,-7.3087,-7.3415,-7.3916,-7.4374,-7.4786,-7.5057,-7.5318,-7.5501,-7.5501,-7.5501,-7.5501,-7.5501,-7.5501,-7.5501,-7.5501,-7.5501,-7.5532,-7.5628,-7.581,-7.6041,-7.6248,-7.6433,-7.6614,-7.6687,-7.6687,-7.6687,-7.6687,-7.6687,-7.6738,-7.6816,-7.6819,-7.687,-7.6965,-7.702,-7.7036,-7.7036,-7.7095,-7.7101,-7.7101,-7.7101,-7.7634,-7.8436,-7.8823,-7.9756,-8.0963,-4.8907,-4.8907,-4.8907,-4.8907,-4.8907,-4.8907,-4.8907,-4.8907,-4.8907,-4.8907,-4.8907,-4.9472,-5.1025,-5.1546,-5.2774,-5.5207,-5.5745,-5.5883,-5.5778,-5.536,-5.5099,-5.5099,-5.5365,-5.6105,-5.7451,-5.938,-6.1081,-6.2814,-6.4158,-6.4888,-6.4888,-6.4888,-6.4826,-6.4703,-6.4703,-6.4412,-6.395,-6.4874,-6.5459,-6.6029,-6.6911,-6.7424,-6.7726,-6.7726,-6.7354,-6.6812,-6.6812,-6.6812,-6.6812,-6.6812,-6.7325,-6.8172,-6.8978,-6.9778,-7.0507,-7.1304,-7.1494,-7.1494,-7.1494,-7.1494,-7.1494,-7.1494,-7.1494,-7.1494,-7.1557,-7.1656,-7.1842,-7.2024,-7.2204,-7.2496,-7.3193,-7.3401,-7.3677,-7.4544,-7.4786,-7.498,-7.5427,-7.5501,-7.5501,-7.5501,-7.5501,-7.5501,-7.5501,-7.5501,-7.5501,-7.5501,-7.5501,-7.5599,-7.578,-7.6013,-7.6199,-7.6411,-7.6614,-7.6687,-7.6687,-7.6687,-7.6687,-7.6687,-7.6687,-7.6738,-7.6777,-7.6846,-7.6955,-7.7012,-7.7089,-7.7101,-7.7101,-7.7101,-7.7101,-7.7101,-7.7107,-7.7524,-7.8164,-7.8266,-7.937,-8.0896,-4.8907,-4.8907,-4.8907,-4.8907,-4.8907,-4.8907,-4.8907,-4.8907,-4.8907,-4.8907,-4.8907,-4.9339,-5.0414,-5.262,-5.4461,-5.5761,-5.5851,-5.57,-5.5255,-5.5151,-5.5099,-5.5099,-5.6209,-5.7578,-5.9161,-6.087,-6.188,-6.2116,-6.4045,-6.4888,-6.4888,-6.4888,-6.458,-6.3964,-6.3964,-6.4071,-6.4223,-6.4429,-6.5188,-6.6245,-6.6428,-6.669,-6.6948,-6.6948,-6.6914,-6.6812,-6.6812,-6.6812,-6.6812,-6.6812,-6.7325,-6.8172,-6.8978,-6.9778,-7.0507,-7.1304,-7.1494,-7.1494,-7.1494,-7.1494,-7.1494,-7.1494,-7.1494,-7.1593,-7.1718,-7.1816,-7.1878,-7.224,-7.2299,-7.2496,-7.3193,-7.3628,-7.4064,-7.4585,-7.5095,-7.5427,-7.5501,-7.5501,-7.5501,-7.5501,-7.5501,-7.5501,-7.5501,-7.5501,-7.5501,-7.5501,-7.5501,-7.5599,-7.578,-7.6013,-7.6199,-7.6411,-7.6614,-7.6687,-7.6687,-7.6687,-7.6687,-7.6687,-7.6687,-7.6738,-7.6777,-7.6846,-7.6955,-7.7012,-7.7089,-7.7101,-7.7101,-7.7101,-7.7101,-7.7107,-7.7097,-7.7148,-7.7293,-7.8026,-7.9361,-8.0818,-4.8907,-4.8907,-4.8907,-4.8907,-4.8907,-4.8907,-4.8907,-4.8907,-4.8907,-4.8907,-4.9429,-5.0199,-5.1639,-5.3799,-5.5486,-5.5935,-5.5621,-5.536,-5.5125,-5.5099,-5.5472,-5.6209,-5.6834,-5.8088,-6.0323,-6.1407,-6.2379,-6.3134,-6.43,-6.4703,-6.4303,-6.4303,-6.3933,-6.3256,-6.3867,-6.3954,-6.3805,-6.4964,-6.5592,-6.579,-6.6356,-6.6623,-6.6812,-6.6812,-6.6812,-6.6812,-6.6812,-6.6812,-6.6812,-6.6812,-6.7616,-6.8752,-6.9091,-7.006,-7.1074,-7.1431,-7.1494,-7.1494,-7.1494,-7.1494,-7.1494,-7.1494,-7.1494,-7.1557,-7.1842,-7.1903,-7.1964,-7.224,-7.261,-7.3034,-7.3579,-7.4064,-7.4582,-7.5057,-7.5356,-7.5501,-7.5501,-7.5501,-7.5501,-7.5501,-7.5501,-7.5501,-7.5501,-7.5501,-7.5501,-7.5501,-7.5599,-7.5756,-7.5957,-7.6173,-7.6366,-7.6575,-7.6651,-7.6687,-7.6687,-7.6687,-7.6687,-7.6687,-7.6687,-7.6754,-7.6885,-7.6909,-7.6975,-7.7043,-7.7095,-7.7101,-7.7101,-7.7101,-7.7101,-7.7107,-7.71,-7.7067,-7.7101,-7.7979,-7.9065,-8.0156]}]]